[[{"header":{"parameterUnit":"m.s-1","parameterCategory":1,"la1":31.0,"la2":29.5877,"lo1":-88.7671,"lo2":-86.6584,"dy":0.0162,"dx":0.0185,"nx":115,"ny":88,"refTime":"2024-09-13T06:00:00:Z","depth":0,"parameterNumber":2,"parameterNumberName":"U-component_of_WINDS"},"data":[0.0,0.0,0.0,0.0,0.0,0.0,0.0,0.0,0.0,0.0,0.0,0.0,0.0,0.0,0.0,0.0,0.0,0.0,0.0,0.0,0.0,0.0,0.0,0.0,0.0,0.0,0.0,0.0,0.0,0.0,0.0,0.0,0.0,0.0,0.0,0.0,0.0,0.0,0.0,0.0,0.0,0.0,0.0,0.0,0.0,0.0,0.0,0.0,0.0,0.0,0.0,0.0,0.0,0.0,0.0,0.0,0.0,0.0,0.0,0.0,0.0,0.0,0.0,0.0,0.0,0.0,0.0,0.0,0.0,0.0,0.0,0.0,0.0,0.0,0.0,0.0,0.0,0.0,0.0,0.0,0.0,0.0,0.0,0.0,0.0,0.0,0.0,0.0,0.0,0.0,0.0,0.0,0.0,0.0,0.0,0.0,0.0,0.0,0.0,0.0,0.0,0.0,0.0,0.0,0.0,0.0,0.0,0.0,0.0,0.0,0.0,0.0,0.0,0.0,0.0,0.0,0.0,0.0,0.0,0.0,0.0,0.0,0.0,0.0,0.0,0.0,0.0,0.0,0.0,0.0,0.0,0.0,0.0,0.0,0.0,0.0,0.0,0.0,0.0,0.0,0.0,0.0,0.0,0.0,0.0,0.0,0.0,0.0,0.0,0.0,0.0,0.0,0.0,0.0,0.0,0.0,0.0,0.0,0.0,0.0,0.0,0.0,0.0,0.0,0.0,0.0,0.0,0.0,0.0,0.0,0.0,0.0,0.0,0.0,0.0,0.0,0.0,0.0,0.0,0.0,0.0,0.0,0.0,0.0,0.0,0.0,0.0,0.0,0.0,0.0,0.0,0.0,0.0,0.0,0.0,0.0,0.0,0.0,0.0,0.0,0.0,0.0,0.0,0.0,0.0,0.0,0.0,0.0,0.0,0.0,0.0,0.0,0.0,0.0,0.0,0.0,0.0,0.0,0.0,0.0,0.0,0.0,0.0,0.0,0.0,0.0,0.0,0.0,0.0,0.0,0.0,0.0,0.0,0.0,0.0,0.0,0.0,0.0,0.0,0.0,0.0,0.0,0.0,0.0,0.0,0.0,0.0,0.0,0.0,0.0,0.0,0.0,0.0,0.0,0.0,0.0,0.0,0.0,0.0,0.0,0.0,0.0,0.0,0.0,0.0,0.0,0.0,0.0,0.0,0.0,0.0,0.0,0.0,0.0,0.0,0.0,0.0,0.0,0.0,0.0,0.0,0.0,0.0,0.0,0.0,0.0,0.0,0.0,0.0,0.0,0.0,0.0,0.0,0.0,0.0,0.0,0.0,0.0,0.0,0.0,0.0,0.0,0.0,0.0,0.0,0.0,0.0,0.0,0.0,0.0,0.0,0.0,0.0,0.0,0.0,0.0,0.0,0.0,0.0,0.0,0.0,0.0,0.0,0.0,0.0,0.0,0.0,0.0,0.0,0.0,0.0,0.0,0.0,0.0,0.0,0.0,0.0,0.0,0.0,0.0,0.0,0.0,0.0,0.0,0.0,0.0,0.0,0.0,0.0,0.0,0.0,0.0,0.0,0.0,0.0,0.0,0.0,0.0,0.0,0.0,0.0,0.0,0.0,0.0,0.0,0.0,0.0,0.0,0.0,0.0,0.0,0.0,0.0,0.0,0.0,0.0,0.0,0.0,0.0,0.0,0.0,0.0,0.0,0.0,0.0,0.0,0.0,0.0,0.0,0.0,0.0,0.0,0.0,0.0,0.0,0.0,0.0,0.0,0.0,0.0,0.0,0.0,0.0,0.0,0.0,0.0,0.0,0.0,0.0,0.0,0.0,0.0,0.0,0.0,0.0,0.0,0.0,0.0,0.0,0.0,0.0,0.0,0.0,0.0,0.0,0.0,0.0,0.0,0.0,0.0,0.0,0.0,0.0,0.0,0.0,0.0,0.0,0.0,0.0,0.0,0.0,0.0,0.0,0.0,0.0,0.0,0.0,0.0,0.0,0.0,0.0,0.0,0.0,0.0,0.0,0.0,0.0,0.0,0.0,0.0,0.0,0.0,0.0,0.0,0.0,0.0,0.0,0.0,0.0,0.0,0.0,0.0,0.0,0.0,0.0,0.0,0.0,0.0,0.0,0.0,0.0,0.0,0.0,0.0,0.0,0.0,0.0,0.0,0.0,0.0,0.0,0.0,0.0,0.0,0.0,0.0,0.0,0.0,0.0,0.0,0.0,0.0,0.0,0.0,0.0,0.0,0.0,0.0,0.0,0.0,0.0,0.0,0.0,0.0,0.0,0.0,0.0,0.0,0.0,0.0,0.0,0.0,0.0,0.0,0.0,0.0,0.0,0.0,0.0,0.0,0.0,0.0,0.0,0.0,0.0,0.0,0.0,0.0,0.0,0.0,0.0,0.0,0.0,0.0,0.0,0.0,0.0,0.0,0.0,0.0,0.0,0.0,0.0,0.0,0.0,0.0,0.0,0.0,0.0,0.0,0.0,0.0,0.0,0.0,0.0,0.0,0.0,0.0,0.0,0.0,0.0,0.0,0.0,0.0,0.0,0.0,0.0,0.0,0.0,0.0,0.0,0.0,0.0,0.0,0.0,0.0,0.0,0.0,0.0,0.0,0.0,0.0,0.0,0.0,0.0,0.0,0.0,0.0,0.0,0.0,0.0,0.0,0.0,0.0,0.0,0.0,0.0,0.0,0.0,0.0,0.0,0.0,0.0,0.0,0.0,0.0,0.0,0.0,0.0,0.0,0.0,0.0,0.0,0.0,0.0,0.0,0.0,0.0,0.0,0.0,0.0,0.0,0.0,0.0,0.0,0.0,0.0,0.0,0.0,0.0,0.0,0.0,0.0,0.0,0.0,0.0,0.0,0.0,0.0,0.0,0.0,0.0,0.0,0.0,0.0,0.0,0.0,0.0,0.0,0.0,0.0,0.0,0.0,0.0,0.0,0.0,0.0,0.0,0.0,0.0,0.0,0.0,0.0,0.0,0.0,0.0,0.0,0.0,0.0,0.0,0.0,0.0,0.0,0.0,0.0,0.0,0.0,0.0,0.0,0.0,0.0,0.0,0.0,0.0,0.0,0.0,0.0,0.0,0.0,0.0,0.0,0.0,0.0,0.0,0.0,0.0,0.0,0.0,0.0,0.0,0.0,0.0,0.0,0.0,0.0,0.0,0.0,0.0,0.0,0.0,0.0,0.0,0.0,0.0,0.0,0.0,0.0,0.0,0.0,0.0,0.0,0.0,0.0,0.0,0.0,0.0,0.0,0.0,0.0,0.0,0.0,0.0,0.0,0.0,0.0,0.0,0.0,0.0,0.0,0.0,0.0,0.0,0.0,0.0,0.0,0.0,0.0,0.0,0.0,0.0,0.0,0.0,0.0,0.0,0.0,0.0,0.0,0.0,0.0,0.0,0.0,0.0,0.0,0.0,0.0,0.0,0.0,0.0,0.0,0.0,0.0,0.0,0.0,0.0,0.0,0.0,0.0,0.0,0.0,0.0,0.0,0.0,0.0,0.0,0.0,0.0,0.0,0.0,0.0,0.0,0.0,0.0,0.0,0.0,0.0,0.0,0.0,0.0,0.0,0.0,0.0,0.0,0.0,0.0,0.0,0.0,0.0,0.0,0.0,0.0,0.0,0.0,0.0,0.0,0.0,0.0,0.0,0.0,0.0,0.0,0.0,0.0,0.0,0.0,0.0,0.0,0.0,0.0,0.0,0.0,0.0,0.0,0.0,0.0,0.0,0.0,0.0,0.0,0.0,0.0,0.0,0.0,0.0,0.0,0.0,0.0,0.0,0.0,0.0,0.0,0.0,0.0,0.0,0.0,0.0,0.0,0.0,0.0,0.0,0.0,0.0,0.0,0.0,0.0,0.0,0.0,0.0,0.0,0.0,0.0,0.0,0.0,0.0,0.0,0.0,0.0,0.0,0.0,0.0,0.0,0.0,0.0,0.0,0.0,0.0,0.0,0.0,0.0,0.0,0.0,0.0,0.0,0.0,0.0,0.0,0.0,0.0,0.0,0.0,0.0,0.0,0.0,0.0,0.0,0.0,0.0,0.0,0.0,0.0,0.0,0.0,0.0,0.0,0.0,0.0,0.0,0.0,0.0,0.0,0.0,0.0,0.0,0.0,0.0,0.0,0.0,0.0,0.0,0.0,0.0,0.0,0.0,0.0,0.0,0.0,0.0,0.0,0.0,0.0,0.0,0.0,0.0,0.0,0.0,0.0,0.0,0.0,0.0,0.0,0.0,0.0,0.0,0.0,0.0,0.0,0.0,0.6303,0.0,0.0,0.0,0.0,0.0,0.0,0.0,0.0,0.0,0.0,0.0,0.0,0.0,0.0,0.0,0.0,0.0,0.0,0.0,0.0,0.0,0.0,0.0,0.0,0.0,0.0,0.0,0.0,0.0,0.0,0.0,0.0,0.0,0.0,0.0,0.0,0.0,0.0,0.0,0.0,0.0,0.0,0.0,0.0,0.0,0.0,0.0,0.0,0.0,0.0,0.0,0.0,0.0,0.0,0.0,0.0,0.0,0.0,0.0,0.0,0.0,0.0,0.0,0.0,0.0,0.0,0.0,0.0,0.0,0.0,0.0,0.0,0.0,0.0,0.0,0.0,0.0,0.0,0.0,0.0,0.0,0.0,0.0,0.0,0.0,0.0,0.0,0.0,0.0,0.0,0.0,0.0,0.0,0.0,0.0,0.0,0.0,0.0,0.0,0.0,0.0,0.0,0.0,0.0,0.0,0.0,0.0,0.0,0.0,0.0,0.7462,0.7618,0.7329,0.6865,0.6278,0.0,0.0,0.0,0.0,0.0,0.0,0.0,0.0,0.0,0.0,0.0,0.0,0.0,0.0,0.0,0.0,0.0,0.0,0.0,0.0,0.0,0.0,0.0,0.0,0.0,0.0,0.0,0.0,0.0,0.0,0.0,0.0,0.0,0.0,0.0,0.0,0.0,0.0,0.0,0.0,0.0,0.0,0.0,0.0,0.0,0.0,0.0,0.0,0.0,0.0,0.0,0.0,0.0,0.0,0.0,0.0,0.0,0.0,0.0,0.0,0.0,0.0,0.0,0.0,0.0,0.0,0.0,0.0,0.0,0.0,0.0,0.0,0.0,0.0,0.0,0.0,0.0,0.0,0.0,0.0,0.0,0.0,0.0,0.0,0.0,0.0,0.0,0.0,0.0,0.0,0.0,0.0,0.0,0.0,0.0,0.0,0.0,0.0,0.0,0.0,0.0,0.0,0.0,0.0,0.0,0.0,0.0,0.0,0.0,0.0,0.0,0.0,0.7472,0.7083,0.6562,0.0,0.0,0.0,0.0,0.0,0.0,0.0,0.0,0.0,0.0,0.0,0.0,0.0,0.0,0.0,0.0,0.0,0.0,0.0,0.0,0.0,0.0,0.0,0.0,0.0,0.0,0.0,0.0,0.0,0.0,0.0,0.0,0.0,0.0,0.0,0.0,0.0,0.0,0.0,0.0,0.0,0.0,0.0,0.0,0.0,0.0,0.0,0.0,0.0,0.0,0.0,0.0,0.0,0.0,0.0,0.0,0.0,0.0,0.0,0.0,0.0,0.0,0.0,0.0,0.0,0.0,0.0,0.0,0.0,0.0,0.0,0.0,0.0,0.0,0.0,0.0,0.0,0.0,0.0,0.0,0.0,0.0,0.0,0.0,0.0,0.0,0.0,0.0,0.0,0.0,0.0,0.0,0.0,0.0,0.0,0.0,0.0,0.0,0.0,0.0,0.0,0.0,0.0,0.0,0.0,0.0,0.0,0.0,0.0,0.0,0.749,0.8291,0.8446,0.0,0.7639,0.0,0.0,0.0,0.0,0.0,0.0,0.0,0.0,0.0,0.0,0.0,0.0,0.0,0.0,0.0,0.0,0.0,0.0,0.0,0.0,0.0,0.0,0.0,0.0,0.0,0.0,0.0,0.0,0.0,0.0,0.0,0.0,0.0,0.0,0.0,0.0,0.0,0.0,0.0,0.0,0.0,0.0,0.0,0.0,0.0,0.0,0.0,0.0,0.0,0.0,0.0,0.0,0.0,0.0,0.0,0.0,0.0,0.0,0.0,0.0,0.0,0.0,0.0,0.0,0.0,0.0,0.0,0.0,0.0,0.0,0.0,0.0,0.0,0.0,0.0,0.0,0.0,0.0,0.0,0.0,0.0,0.0,0.0,0.0,0.0,0.0,0.0,0.0,0.0,0.0,0.0,0.0,0.0,0.0,0.0,0.0,0.0,0.0,0.0,0.0,0.0,0.0,0.0,0.0,0.0,0.0,0.0,0.0,0.0,0.0,0.7764,0.8401,0.8175,0.775,0.0,0.0,0.0,0.0,0.0,0.0,0.0,0.0,0.0,0.0,0.0,0.0,0.0,0.0,0.0,0.0,0.0,0.0,0.0,0.0,0.0,0.0,0.0,0.0,0.0,0.0,0.0,0.0,0.0,0.0,0.0,0.0,0.0,0.0,0.0,0.0,0.0,0.0,0.0,0.0,0.0,0.0,0.0,0.0,0.0,0.0,0.0,0.0,0.0,0.0,0.0,0.0,0.0,0.0,0.0,0.0,0.0,0.0,0.0,0.0,0.0,0.0,0.0,0.0,0.0,0.0,0.0,0.0,0.0,0.0,0.0,0.0,0.0,0.0,0.0,0.0,0.0,0.0,0.0,0.0,0.0,0.0,0.0,0.0,0.0,0.0,0.0,0.0,0.0,0.0,0.0,0.0,0.0,0.0,0.0,0.0,0.0,0.0,0.0,0.0,0.0,0.0,0.0,0.0,0.0,0.0,0.0,0.0,0.0,0.0,0.7605,0.0,0.8606,0.8131,0.7448,0.6639,0.0,0.0,0.0,0.0,0.0,0.0,0.0,0.0,0.0,0.0,0.0,0.0,0.0,0.0,0.0,0.0,0.0,0.0,0.0,0.0,0.0,0.0,0.0,0.0,0.0,0.0,0.0,0.0,0.0,0.0,0.0,0.0,0.0,0.0,0.0,0.0,0.0,0.0,0.0,0.0,0.0,0.0,0.0,0.0,0.0,0.0,0.0,0.0,0.0,0.0,0.0,0.0,0.0,0.0,0.0,0.0,0.0,0.0,0.0,0.0,0.0,0.0,0.0,0.0,0.0,0.0,0.0,0.0,0.0,0.0,0.0,0.0,0.0,0.0,0.0,0.0,0.0,0.0,0.0,0.0,0.0,0.0,0.0,0.0,0.0,0.0,0.0,0.0,0.0,0.0,0.0,0.0,0.0,0.0,0.0,0.0,0.0,0.0,0.0,0.0,0.0,0.0,0.0,0.0,0.0,0.0,0.0,0.0,0.0,0.8187,0.8235,0.9297,0.876,0.789,0.0,0.0,0.0,0.0,0.0,0.0,0.0,0.0,0.0,0.0,0.0,0.0,0.0,0.0,0.0,0.0,0.0,0.0,0.0,0.0,0.0,0.0,0.0,0.0,0.0,0.0,0.0,0.0,0.0,0.0,0.0,0.0,0.0,0.0,0.0,0.0,0.0,0.0,0.0,0.0,0.0,0.0,0.0,0.0,0.0,0.0,0.0,0.0,0.0,0.0,0.0,0.0,0.0,0.0,0.0,0.0,0.0,0.0,0.0,0.0,0.0,0.0,0.0,0.0,0.0,0.0,0.0,0.0,0.0,0.0,0.0,0.0,0.0,0.0,0.0,0.0,0.0,0.0,0.0,0.0,0.0,0.0,0.0,0.0,0.0,0.0,0.0,0.0,0.0,0.0,0.0,0.0,0.0,0.0,0.0,0.0,0.0,0.0,0.0,0.0,0.0,0.0,0.0,0.0,0.0,0.0,0.0,0.0,0.0,0.6968,0.7164,0.8172,0.996,0.8365,0.7537,0.0,0.0,0.0,0.0,0.0,0.0,0.0,0.0,0.0,0.0,0.0,0.0,0.0,0.0,0.0,0.0,0.0,0.0,0.0,0.0,0.0,0.0,0.0,0.0,0.0,0.0,0.0,0.0,0.0,0.0,0.0,0.0,0.0,0.0,0.0,0.0,0.0,0.0,0.0,0.0,0.0,0.0,0.0,0.0,0.0,0.0,0.0,0.0,0.0,0.0,0.0,0.0,0.0,0.0,0.0,0.0,0.0,0.0,0.0,0.0,0.0,0.0,0.0,0.0,0.0,0.0,0.0,0.0,0.0,0.0,0.0,0.0,0.0,0.0,0.0,0.0,0.0,0.0,0.0,0.0,0.0,0.0,0.0,0.0,0.0,0.0,0.0,0.0,0.0,0.0,0.0,0.0,0.0,0.0,0.0,0.0,0.0,0.0,0.0,0.0,0.0,0.0,0.0,0.0,0.0,0.0,0.0,0.0,0.0,0.6725,0.0,0.8941,0.0,0.8262,0.7312,0.0,0.0,0.0,0.0,0.0,0.0,0.0,0.0,0.0,0.0,0.0,0.0,0.0,0.0,0.0,0.0,0.0,0.0,0.0,0.0,0.0,0.0,0.0,0.0,0.0,0.0,0.0,0.0,0.0,0.0,0.0,0.0,0.0,0.0,0.0,0.0,0.0,0.0,0.0,0.0,0.0,0.0,0.0,0.0,0.0,0.0,0.0,0.0,0.0,0.0,0.0,0.0,0.0,0.0,0.0,0.0,0.0,0.0,0.0,0.0,0.0,0.0,0.0,0.0,0.0,0.0,0.0,0.0,0.0,0.0,0.0,0.0,0.0,0.0,0.0,0.0,0.0,0.0,0.0,0.0,0.0,0.0,0.0,0.0,0.0,0.0,0.0,0.0,0.0,0.0,0.0,0.0,0.0,0.0,0.0,0.0,0.0,0.0,0.0,0.0,0.0,0.0,0.0,0.0,0.0,0.0,0.0,0.0,0.6887,0.8728,1.0374,1.0377,0.8825,0.853,0.7296,0.0,0.0,0.0,0.0,0.0,0.0,0.0,0.0,0.0,0.0,0.0,0.0,0.0,0.0,0.0,0.0,0.0,0.0,0.0,0.0,0.0,0.0,0.0,0.0,0.0,0.0,0.0,0.0,0.0,0.0,0.0,0.0,0.0,0.0,0.0,0.0,0.0,0.0,0.0,0.0,0.0,0.0,0.0,0.0,0.0,0.0,0.0,0.0,0.0,0.0,0.0,0.0,0.0,0.0,0.0,0.0,0.0,0.0,0.0,0.0,0.0,0.0,0.0,0.0,0.0,0.0,0.0,0.0,0.0,0.0,0.0,0.0,0.0,0.0,0.0,0.0,0.0,0.0,0.0,0.0,0.0,0.0,0.0,0.0,0.0,0.0,0.0,0.0,0.0,0.0,0.0,0.0,0.0,0.0,0.0,0.0,0.0,0.0,0.0,0.0,0.0,0.0,0.0,0.0,0.0,0.0,0.0,0.0,0.0,0.7972,0.9154,0.9817,0.9734,0.8283,0.7373,0.0,0.0,0.0,0.0,0.0,0.0,0.0,0.0,0.0,0.0,0.0,0.0,0.0,0.0,0.0,0.0,0.0,0.0,0.0,0.0,0.0,0.0,0.0,0.0,0.0,0.0,0.0,0.0,0.0,0.0,0.0,0.0,0.0,0.0,0.0,0.0,0.0,0.0,0.0,0.0,0.0,0.0,0.0,0.0,0.0,0.0,0.0,0.0,0.0,0.0,0.0,0.0,0.0,0.0,0.0,0.0,0.0,0.0,0.0,0.0,0.0,0.0,0.0,0.0,0.0,0.0,0.0,0.0,0.0,0.0,0.0,0.0,0.0,0.0,0.0,0.0,0.0,0.0,0.0,0.0,0.0,0.0,0.0,0.0,0.0,0.0,0.0,0.0,0.0,0.0,0.0,0.0,0.0,0.0,0.0,0.0,0.0,0.0,0.0,0.0,0.0,0.0,0.0,0.0,0.0,0.0,0.0,0.0,0.0,0.8682,1.0021,1.0564,1.0187,0.8448,0.7469,0.7355,0.0,0.0,0.0,0.0,0.0,0.0,0.0,0.0,0.0,0.0,0.0,0.0,0.0,0.0,0.0,0.0,0.0,0.0,0.0,0.0,0.0,0.0,0.0,0.0,0.0,0.0,0.0,0.0,0.0,0.0,0.0,0.0,0.0,0.0,0.0,0.0,0.0,0.0,0.0,0.0,0.0,0.0,0.0,0.0,0.0,0.0,0.0,0.0,0.0,0.0,0.0,0.0,0.0,0.0,0.0,0.0,0.0,0.0,0.0,0.0,0.0,0.0,0.0,0.0,0.0,0.0,0.0,0.0,0.0,0.0,0.0,0.0,0.0,0.0,0.0,0.0,0.0,0.0,0.0,0.0,0.0,0.0,0.0,0.0,0.0,0.0,0.0,0.0,0.0,0.0,0.0,0.0,0.0,0.0,0.0,0.0,0.0,0.0,0.0,0.0,0.0,0.0,0.0,0.0,0.0,0.0,0.0,0.0,1.0414,1.2403,1.232,1.0069,0.898,0.7695,0.0,0.0,0.0,0.0,0.0,0.0,0.0,0.0,0.0,0.0,0.0,0.0,0.0,0.0,0.0,0.0,0.0,0.0,0.0,0.0,0.0,0.0,0.0,0.0,0.0,0.0,0.0,0.0,0.0,0.0,0.0,0.0,0.0,0.0,0.0,0.0,0.0,0.0,0.0,0.0,0.0,0.0,0.0,0.0,0.0,0.0,0.0,0.0,0.0,0.0,0.0,0.0,0.0,0.0,0.0,0.0,0.0,0.0,0.0,0.0,0.0,0.0,0.0,0.0,0.0,0.0,0.0,0.0,0.0,0.0,0.0,0.0,0.0,0.0,0.0,0.0,0.0,0.0,0.0,0.0,0.0,0.0,0.0,0.0,0.0,0.0,0.0,0.0,0.0,0.0,0.0,0.0,0.0,0.0,0.0,0.0,0.0,0.0,0.0,0.0,0.0,0.0,0.0,0.0,0.0,0.0,0.0,0.0,0.0,1.0436,1.1522,1.1715,1.0821,0.9661,0.8558,0.0,0.0,0.0,0.0,0.0,0.0,0.0,0.0,0.0,0.0,0.0,0.0,0.0,0.0,0.0,0.0,0.0,0.0,0.0,0.0,0.0,0.0,0.0,0.0,0.0,0.0,0.0,0.0,0.0,0.0,0.0,0.0,0.0,0.0,0.0,0.0,0.0,0.0,0.0,0.0,0.0,0.0,0.0,0.0,0.0,0.0,0.0,0.0,0.0,0.0,0.0,0.0,0.0,0.0,0.0,0.0,0.0,0.0,0.0,0.0,0.0,0.0,0.0,0.0,0.0,0.0,0.0,0.0,0.0,0.0,0.0,0.0,0.0,0.0,0.0,0.0,0.0,0.0,0.0,0.0,0.0,0.0,0.0,0.0,0.0,0.0,0.0,0.0,0.0,0.0,0.0,0.0,0.0,0.0,0.0,0.0,0.0,0.0,0.0,0.0,0.0,0.0,0.0,0.0,0.0,0.0,0.0,0.0,1.0201,1.0632,1.0872,1.0929,1.0709,0.9628,0.8672,0.0,0.0,0.0,0.0,0.0,0.0,0.0,0.0,0.0,0.0,0.0,0.0,0.0,0.0,0.0,0.0,0.0,0.0,0.0,0.0,0.0,0.0,0.0,0.0,0.0,0.0,0.0,0.0,0.0,0.0,0.0,0.0,0.0,0.0,0.0,0.0,0.0,0.0,0.0,0.0,0.0,0.0,0.0,0.0,0.0,0.0,0.0,0.0,0.0,0.0,0.0,0.0,0.0,0.0,0.0,0.0,0.0,0.0,0.0,0.0,0.0,0.0,0.0,0.0,0.0,0.0,0.0,0.0,0.0,0.0,0.0,0.0,0.0,0.0,0.0,0.0,0.0,0.0,0.0,0.0,0.0,0.0,0.0,0.0,0.0,0.0,0.0,0.0,0.0,0.0,0.0,0.0,0.0,0.0,0.0,0.0,0.0,0.0,0.0,0.0,0.0,0.0,0.0,0.0,0.0,0.0,0.0,0.0,1.02,1.0864,1.036,1.0076,0.9944,0.9204,0.8401,0.0,0.0,0.0,0.0,0.0,0.0,0.0,0.0,0.0,0.0,0.0,0.0,0.0,0.0,0.0,0.0,0.0,0.0,0.0,0.0,0.0,0.0,0.0,0.0,0.0,0.0,0.0,0.0,0.0,0.0,0.0,0.0,0.0,0.0,0.0,0.0,0.0,0.0,0.0,0.0,0.0,0.0,0.0,0.0,0.0,0.0,0.0,0.0,0.0,0.0,0.0,0.0,0.0,0.0,0.0,0.0,0.0,0.0,0.0,0.0,0.0,0.0,0.0,0.0,0.0,0.0,0.0,0.0,0.0,0.0,0.0,0.0,0.0,0.0,0.0,0.0,0.0,0.0,0.0,0.0,0.0,0.0,0.0,0.0,0.0,0.0,0.0,0.0,0.0,0.0,0.0,0.0,0.0,0.0,0.0,0.0,0.0,0.0,0.0,0.0,0.0,0.0,0.0,0.0,0.0,0.0,0.0,0.0,0.9875,0.9878,0.9468,0.9268,0.9212,0.8994,0.849,0.0,0.0,0.0,0.0,0.0,0.0,0.0,0.0,0.0,0.0,0.0,0.0,0.0,0.0,0.0,0.0,0.0,0.0,0.0,0.0,0.0,0.0,0.0,0.0,0.0,0.0,0.0,0.0,0.0,0.0,0.0,0.0,0.0,0.0,0.0,0.0,0.0,0.0,0.0,0.0,0.0,0.0,0.0,0.0,0.0,0.0,0.0,0.0,0.7945,0.0,0.0,0.0,0.0,0.0,0.0,0.0,0.0,0.0,0.0,0.0,0.0,0.0,0.0,0.0,0.0,0.0,0.0,0.0,0.0,0.0,0.0,0.0,0.0,0.0,0.0,0.0,0.0,0.0,0.0,0.0,0.0,0.0,0.0,0.0,0.0,0.0,0.0,0.0,0.0,0.0,0.0,0.0,0.0,0.0,0.0,0.0,0.0,0.0,0.0,0.0,0.0,0.0,0.0,0.0,0.0,0.0,0.0,0.0,0.9241,0.8933,0.8422,0.8135,0.8064,0.7806,0.7468,0.0,0.0,0.0,0.0,0.0,0.0,0.0,0.0,0.0,0.0,0.0,0.0,0.0,0.0,0.0,0.0,0.0,0.0,0.0,0.0,0.0,0.0,0.0,0.0,0.0,0.0,0.0,0.0,0.0,0.0,0.0,0.0,0.0,0.0,0.0,0.0,0.0,0.0,0.0,0.0,0.0,0.0,0.0,0.0,0.0,0.0,0.0,0.0,0.0,0.0,0.0,0.0,0.0,0.0,0.0,0.0,0.0,0.0,0.0,0.0,0.0,0.0,0.0,0.0,0.0,0.0,0.0,0.0,0.0,0.0,0.0,0.0,0.0,0.0,0.0,0.0,0.0,0.0,0.0,0.0,0.0,0.0,0.0,0.0,0.0,0.0,0.0,0.0,0.0,0.0,0.0,0.0,0.0,0.0,0.0,0.0,0.0,0.0,0.0,0.0,0.0,0.0,0.0,0.0,0.0,0.0,0.0,0.8318,0.8378,0.7873,0.7154,0.6759,0.6709,0.6193,0.601,0.6331,0.0,0.0,0.0,0.0,0.0,0.0,0.0,0.0,0.0,0.0,0.0,0.0,0.0,0.0,0.0,0.0,0.0,0.0,0.0,0.0,0.0,0.0,0.0,0.0,0.0,0.0,0.0,0.0,0.0,0.0,0.0,0.0,0.0,0.0,0.0,0.0,0.0,0.0,0.7278,0.7807,0.0,0.0,0.0,0.0,0.0,0.0,0.0,0.0,0.861,0.0,0.0,0.0,0.0,0.0,0.0,0.0,0.0,0.0,0.0,0.0,0.0,0.0,0.0,0.0,0.0,0.0,0.0,0.0,0.0,0.0,0.0,0.0,0.0,0.0,0.0,0.0,0.0,0.0,0.0,0.0,0.0,0.0,0.0,0.0,0.0,0.0,0.0,0.0,0.0,0.0,0.0,0.0,0.0,0.0,0.0,0.0,0.0,0.0,0.0,0.0,0.0,0.0,0.0,0.0,0.0,0.77,0.7607,0.7199,0.6469,0.56,0.5205,0.517,0.4633,0.4474,0.4683,0.0,0.0,0.0,0.0,0.0,0.0,0.0,0.0,0.0,0.0,0.0,0.0,0.0,0.0,0.0,0.0,0.0,0.0,0.0,0.0,0.0,0.0,0.0,0.0,0.0,0.0,0.0,0.0,0.0,0.0,0.0,0.0,0.0,0.0,0.0,0.0,0.0,0.0,0.0,0.8453,0.8654,0.0,0.0,0.0,0.0,0.0,0.0,0.0,0.0,0.8824,0.0,0.0,0.0,0.0,0.0,0.0,0.0,0.0,0.0,0.0,0.0,0.0,0.0,0.0,0.0,0.0,0.0,0.0,0.0,0.0,0.0,0.0,0.0,0.0,0.0,0.0,0.0,0.0,0.0,0.0,0.0,0.0,0.0,0.0,0.0,0.0,0.0,0.0,0.0,0.0,0.0,0.0,0.0,0.0,0.0,0.0,0.0,0.0,0.0,0.0,0.0,0.0,0.0,0.0,0.0,0.6175,0.5812,0.5181,0.4356,0.3863,0.3532,0.3359,0.3096,0.3163,0.0,0.0,0.0,0.0,0.0,0.0,0.0,0.0,0.0,0.0,0.0,0.0,0.0,0.0,0.0,0.0,0.0,0.0,0.0,0.0,0.0,0.0,0.0,0.0,0.0,0.0,0.0,0.0,0.0,0.0,0.0,0.0,0.0,0.0,0.0,0.0,0.0,0.0,0.0,0.0,0.8621,0.879,0.8967,0.0,0.0,0.0,0.0,0.0,0.0,0.8982,0.8951,0.0,0.0,0.0,0.0,0.0,0.0,0.0,0.0,0.0,0.0,0.0,0.0,0.0,0.0,0.0,0.0,0.0,0.0,0.0,0.0,0.0,0.0,0.0,0.0,0.0,0.0,0.0,0.0,0.0,0.0,0.0,0.0,0.0,0.0,0.0,0.0,0.0,0.0,0.0,0.0,0.0,0.0,0.0,0.0,0.0,0.0,0.0,0.0,0.0,0.0,0.0,0.0,0.0,0.0,0.0,0.4696,0.3727,0.2837,0.2223,0.2063,0.19,0.1677,0.1645,0.2019,0.0,0.0,0.0,0.0,0.0,0.0,0.0,0.0,0.0,0.0,0.0,0.0,0.0,0.0,0.0,0.0,0.0,0.0,0.0,0.0,0.0,0.0,0.0,0.0,0.0,0.0,0.0,0.0,0.0,0.0,0.0,0.0,0.0,0.0,0.0,0.0,0.0,0.0,0.0,0.0,0.0,0.897,0.9226,0.9211,0.0,0.0,0.0,0.0,0.945,0.9272,0.0,0.0,0.0,0.0,0.0,0.0,0.0,0.0,0.0,0.0,0.0,0.0,0.0,0.0,0.0,0.0,0.0,0.0,0.0,0.0,0.0,0.0,0.0,0.0,0.0,0.0,0.0,0.0,0.0,0.0,0.0,0.0,0.0,0.0,0.0,0.0,0.0,0.0,0.0,0.0,0.0,0.0,0.0,0.0,0.0,0.0,0.0,0.0,0.0,0.0,0.0,0.0,0.0,0.0,0.0,0.0,0.4417,0.1795,0.0416,0.05,0.0392,0.0392,0.0561,0.0556,0.0987,0.0,0.0,0.0,0.0,0.0,0.0,0.0,0.0,0.0,0.0,0.0,0.0,0.0,0.0,0.0,0.0,0.0,0.0,0.0,0.0,0.0,0.0,0.0,0.0,0.0,0.0,0.0,0.0,0.0,0.0,0.0,0.0,0.0,0.0,0.0,0.0,0.0,0.0,0.0,0.0,0.0,0.9526,0.9563,0.9343,0.9255,0.0,0.0,0.9379,0.9899,0.9592,0.0,0.0,0.0,0.0,0.0,0.0,0.0,0.0,0.0,0.0,0.0,0.0,0.0,0.0,0.0,0.0,0.0,0.0,0.0,0.0,0.0,0.0,0.0,0.0,0.0,0.0,0.0,0.0,0.0,0.0,0.0,0.0,0.0,0.0,0.0,0.0,0.0,0.0,0.0,0.0,0.0,0.0,0.0,0.0,0.0,0.0,0.0,0.0,0.0,0.0,0.0,0.0,0.0,0.0,0.0,0.2352,0.1497,-0.0346,-0.1294,-0.1337,-0.1062,-0.0952,-0.0951,-0.0529,0.0049,0.0,0.0,0.0,0.0,0.0,0.0,0.0,0.0,0.0,0.0,0.0,0.0,0.0,0.0,0.0,0.0,0.0,0.0,0.0,0.0,0.0,0.0,0.0,0.0,0.0,0.0,0.0,0.0,0.0,0.0,0.0,0.0,0.0,0.0,0.0,0.0,0.0,0.0,0.0,0.0,0.0,0.0,0.9517,0.9766,0.0,0.0,0.0,1.0002,1.0082,0.0,0.0,0.0,0.0,0.0,0.0,0.0,0.0,0.0,0.0,0.0,0.0,0.0,0.0,0.0,0.0,0.0,0.0,0.0,0.0,0.0,0.0,0.0,0.0,0.0,0.0,0.0,0.0,0.0,0.0,0.0,0.0,0.0,0.0,0.0,0.0,0.0,0.0,0.0,0.0,0.0,0.0,0.0,0.0,0.0,0.0,0.0,0.0,0.0,0.0,0.0,0.0,0.0,0.0,0.0,0.0,0.0,0.0542,-0.1577,-0.2623,-0.2625,-0.2066,-0.179,-0.1789,-0.1286,0.0,0.0,0.0,0.0,0.0,0.0,0.0,0.0,0.0,0.0,0.0,0.0,0.0,0.0,0.0,0.0,0.0,0.0,0.0,0.0,0.0,0.0,0.0,0.0,0.0,0.0,0.0,0.4935,0.0,0.0,0.0,0.0,0.0,0.0,0.0,0.0,0.0,0.0,0.0,0.0,0.0,0.0,0.9428,0.9267,0.9903,1.0296,0.0,0.0,1.0351,1.0587,1.0198,0.9828,0.0,0.0,0.0,0.0,0.0,0.0,0.0,0.0,0.0,0.0,0.0,0.0,0.0,0.0,0.0,0.0,0.0,0.0,0.0,0.0,0.0,0.0,0.0,0.0,0.0,0.0,0.0,0.0,0.0,0.0,0.0,0.0,0.0,0.0,0.0,0.0,0.0,0.0,0.0,0.0,0.0,0.0,0.0,0.0,0.0,0.0,0.0,0.0,0.0,0.0,0.0,0.0,0.0,0.0,0.0,0.376,-0.1217,-0.3569,-0.3074,-0.2456,-0.19,-0.1345,-0.1243,-0.0804,0.0,0.0,0.0,0.0,0.0,0.0,0.0,0.0,0.0,0.0,0.0,0.0,0.0,0.0,0.0,0.0,0.0,0.0,0.0,0.0,0.0,0.0,0.0,0.0,0.0,0.0,0.0,0.0,0.0,0.0,0.0,0.0,0.0,0.0,0.0,0.0,0.0,0.0,0.0,0.0,0.0,0.9067,0.8964,0.9431,0.9989,0.0,0.0,1.0112,1.1638,1.0467,0.9528,0.9984,0.0,0.0,0.0,0.0,0.0,0.0,0.0,0.0,0.0,0.0,0.0,0.0,0.0,0.0,0.0,0.0,0.0,0.0,0.0,0.0,0.0,0.0,0.0,0.0,0.0,0.0,0.0,0.0,0.0,0.0,0.0,0.0,0.0,0.0,0.0,0.0,0.0,0.0,0.0,0.0,0.0,0.0,0.0,0.0,0.0,0.0,0.0,0.0,0.0,0.0,0.0,0.0,0.0,0.44,-0.0606,0.0182,-0.0706,-0.3392,-0.2794,-0.235,-0.2294,-0.1949,-0.1567,0.0,0.0,0.0,0.0,0.0,0.0,0.0,0.0,0.0,0.0,0.0,0.0,0.0,0.0,0.0,0.0,0.0,0.0,0.0,0.0,0.0,0.0,0.0,0.0,0.0,0.0,0.0,0.0,0.6369,0.6577,0.6586,0.0,0.0,0.0,0.0,0.0,0.0,0.0,0.0,0.0,0.0,0.8955,0.8668,0.9139,0.0,0.0,0.9652,0.9762,1.0084,0.957,0.9048,0.8815,0.8862,0.0,0.0,0.0,0.0,0.0,0.0,0.0,0.0,0.0,0.0,0.0,0.0,0.0,0.0,0.0,0.0,0.0,0.0,0.0,0.0,0.0,0.0,0.0,0.0,0.0,0.0,0.0,0.0,0.0,0.0,0.0,0.0,0.0,0.0,0.0,0.0,0.0,0.0,0.0,0.0,0.0,0.0,0.0,0.0,0.0,0.0,0.0,0.0,0.0,0.0,0.0,0.0,0.7135,0.1123,0.2724,0.1898,-0.1504,-0.2182,-0.2573,-0.2569,-0.2435,-0.2143,0.0,0.0,0.0,0.0,0.0,0.0,0.0,0.0,0.0,0.0,0.0,0.0,0.0,0.0,0.0,0.0,0.0,0.0,0.0,0.0,0.0,0.0,0.0,0.0,0.0,0.0,0.0,0.0,0.6761,0.6867,0.6767,0.0,0.0,0.0,0.0,0.0,0.0,0.0,0.0,0.0,0.0,0.8612,0.8245,0.8759,0.9157,0.9147,0.9253,0.9417,0.942,0.9027,0.8632,0.8259,0.0,0.0,0.0,0.0,0.0,0.0,0.0,0.0,0.0,0.0,0.0,0.0,0.0,0.0,0.0,0.0,0.0,0.0,0.0,0.0,0.0,0.0,0.0,0.0,0.0,0.0,0.0,0.0,0.0,0.0,1.0097,0.0,0.0,0.0,0.0,0.0,0.0,0.0,0.0,0.0,0.0,0.0,0.0,0.0,0.0,0.0,0.0,0.0,0.0,0.0,0.0,0.0,0.0,0.0,1.2158,0.6604,0.3709,0.3347,-0.0516,-0.2404,-0.19,-0.2377,-0.2343,-0.1651,0.0,0.0,0.0,0.0,0.0,0.0,0.0,0.0,0.0,0.0,0.0,0.0,0.0,0.0,0.0,0.0,0.0,0.0,0.0,0.0,0.0,0.0,0.0,0.0,0.0,0.0,0.5856,0.6426,0.6767,0.0,0.0,0.0,0.0,0.0,0.0,0.0,0.0,0.0,0.0,0.7598,0.7815,0.7831,0.8342,0.8788,0.918,0.8811,0.8863,1.0018,0.9049,0.8387,0.0,0.0,0.0,0.0,0.0,0.0,0.0,0.0,0.0,0.0,0.0,0.0,0.0,0.0,0.0,0.0,0.0,0.0,0.0,0.0,0.0,0.0,0.0,0.0,0.0,0.0,0.0,1.4477,1.3843,0.0,0.0,0.0,0.0,0.0,0.0,0.0,0.0,0.0,0.0,0.0,1.9847,2.0565,0.0,0.0,0.0,0.0,0.0,0.0,0.0,0.0,0.0,0.0,0.0,0.0,1.437,1.0842,0.9456,0.7287,0.4172,-0.0103,-0.2294,-0.2071,-0.276,-0.3111,-0.2952,0.0,0.0,0.0,0.0,0.0,0.0,0.0,0.0,0.0,0.0,0.0,0.0,0.0,0.0,0.0,0.0,0.0,0.0,0.0,0.0,0.0,0.0,0.0,0.0,0.0,0.6227,0.0,0.0,0.0,0.0,0.0,0.0,0.0,0.0,0.0,0.0,0.0,0.7772,0.8212,0.791,0.759,0.7616,0.7569,0.7729,0.0,0.0,0.0,0.0,0.0,0.0,0.0,0.0,0.0,0.0,0.0,0.0,0.0,0.0,0.9012,0.8645,0.8772,0.8903,0.8903,0.0,0.0,0.0,0.0,0.0,0.0,0.0,0.0,0.0,0.0,0.0,0.0,0.0,0.0,1.7161,0.0,1.5724,0.0,0.0,0.0,0.0,0.0,0.0,0.0,0.0,2.1378,2.2545,2.2966,2.364,2.3393,0.0,2.1365,1.9779,0.0,0.0,0.0,0.0,0.0,0.0,0.0,0.0,1.7742,1.4374,1.2362,0.9908,0.6773,0.0804,-0.2296,-0.224,-0.3014,-0.3545,-0.386,-0.3017,-0.222,0.0,0.0,0.0,0.0,0.0,0.0,0.0,0.0,0.0,0.0,0.0,0.0,0.0,0.0,0.0,0.0,0.0,0.0,0.0,0.0,0.0,0.0,0.0,0.6388,0.0,0.0,0.0,0.0,0.0,0.0,0.0,0.0,0.0,0.8425,0.8016,0.7862,0.8284,0.7872,0.7522,0.7512,0.0,0.0,0.0,0.0,0.0,0.0,0.0,0.7845,0.7914,0.8176,0.8366,0.8432,0.868,0.8878,0.8997,0.0,0.0,0.889,0.9208,0.9552,0.9559,0.9953,1.0314,1.0421,1.0692,1.092,0.0,0.0,0.0,0.0,0.0,0.0,0.0,0.0,1.9449,1.9414,0.0,1.8414,0.0,0.0,0.0,0.0,0.0,1.9995,0.0,0.0,2.5322,2.645,2.6395,2.632,2.5842,2.5029,2.5057,2.43,2.2609,1.9459,0.0,0.0,0.0,0.0,0.0,0.0,2.1222,2.2461,1.5477,1.157,1.1058,0.2367,-0.2389,-0.2294,-0.2828,-0.3485,-0.4256,-0.3643,-0.2916,-0.2029,-0.0497,0.0,0.0,0.0,0.0,0.0,0.0,0.0,0.0,0.0,0.0,0.0,0.0,0.0,0.0,0.0,0.0,0.0,0.0,0.0,0.0,0.5616,0.0,0.0,0.0,0.0,0.0,0.0,0.0,0.0,0.0,0.0,0.782,0.7807,0.7757,0.7592,0.0,0.0,0.0,0.0,0.7573,0.7825,0.7735,0.7949,0.8602,0.854,0.8484,0.8708,0.0,0.0,0.8751,0.8727,0.8675,0.8467,0.8915,0.9355,0.9619,1.0109,1.0533,1.0605,1.0763,1.1077,1.1333,1.1247,1.1241,2.3984,0.0,0.0,0.0,0.0,2.1792,2.2609,2.377,2.3766,2.3085,2.1852,2.0992,0.0,0.0,0.0,0.0,0.0,0.0,2.3477,2.5386,2.6102,2.6701,2.7184,2.7229,2.7069,2.6839,2.6924,2.6702,2.6211,2.5268,2.2229,1.7355,0.0,0.0,0.0,0.0,2.2647,2.346,1.8914,1.4762,1.1431,0.5476,0.0479,-0.3337,-0.0349,-0.0591,-0.4537,-0.4151,-0.3408,-0.2342,-0.1198,0.0,0.0,0.0,0.0,0.0,0.0,0.0,0.0,0.0,0.0,0.0,0.0,0.0,0.0,0.0,0.0,0.0,0.0,0.0,0.6535,0.6752,0.6983,0.0,0.0,0.0,0.0,0.0,0.0,0.0,0.0,0.0,0.8436,0.8067,0.7949,0.0,0.0,0.7862,0.7862,0.7756,0.7728,0.7926,0.0,0.0,0.0,0.8511,0.858,0.9039,0.9195,0.9214,0.9157,0.9271,0.9308,0.9096,0.947,0.9933,0.9891,1.0185,1.0574,1.0864,1.1144,1.1352,1.1444,1.1581,1.1709,2.5976,2.3298,2.348,2.4141,2.5027,2.506,2.5662,2.6629,2.6632,2.6037,2.504,2.4482,2.345,2.2126,2.1598,0.0,0.0,0.0,2.5842,2.7565,2.7443,2.7625,2.8049,2.798,2.7804,2.749,2.7589,2.763,2.7611,2.7689,2.5501,2.1292,0.0,0.0,2.1081,2.2549,2.3769,2.4444,2.0535,1.7009,1.4173,0.7792,0.1848,-0.3349,-0.1067,-0.121,-0.4381,-0.4375,-0.3834,-0.2924,-0.1938,-0.0903,0.0,0.0,0.0,0.0,0.0,0.0,0.0,0.0,0.0,0.0,0.0,0.492,0.4679,0.0,0.0,0.0,0.5271,0.6147,0.7169,0.7069,0.0,0.0,0.0,0.0,0.0,0.0,0.0,0.8338,0.8338,0.8343,0.8585,0.8362,0.8243,0.8652,0.8351,0.8097,0.802,0.0,0.7898,0.8,0.7988,0.8197,0.8875,0.8809,0.894,0.947,0.9578,0.9573,0.9573,0.9682,0.9719,0.9625,0.9846,1.0149,1.0188,1.0497,1.079,1.1099,1.1498,1.1836,1.1842,1.2053,1.2234,2.6624,2.6023,2.7534,2.8097,2.8008,2.8078,2.8079,2.8104,2.8148,2.8188,2.8194,2.8132,2.7654,2.6916,2.6909,0.0,2.705,2.7826,2.8625,2.9433,2.9144,2.8995,2.8949,2.8733,2.8207,2.7525,2.7641,2.7714,2.7747,2.7841,2.7491,2.668,2.597,2.5148,2.4332,2.4359,2.4792,2.5524,2.1309,1.8663,1.7721,0.9406,0.238,-0.2953,-0.3357,-0.3577,-0.4018,-0.4353,-0.4287,-0.3729,-0.2669,-0.1725,-0.0895,0.0,0.0,0.0,0.0,0.0,0.0,0.0,0.0,0.0,0.0,0.0,0.0,0.0,0.0,0.0,0.533,0.0,0.7143,0.6835,0.0,0.0,0.0,0.7643,0.8679,0.8176,0.7993,0.8493,0.0,0.0,0.8308,0.0,0.8572,0.8572,0.8418,0.8251,0.8081,0.8069,0.8057,0.8077,0.8207,0.8533,0.9191,0.9305,0.9465,0.9908,1.0038,1.0014,1.0009,1.0019,1.0033,1.0009,1.0033,1.0111,1.0463,1.0838,1.1277,1.1165,1.184,1.2337,1.2337,1.2499,1.265,2.7893,2.7698,2.8118,2.7514,2.6379,2.7012,2.7261,2.7272,2.7897,2.8165,2.8126,2.8107,2.7983,2.7795,2.7787,2.8143,2.8788,2.8946,2.9381,2.999,2.9876,2.9736,2.9588,2.954,2.9427,2.9304,2.9421,2.9483,2.9474,2.9565,2.9212,2.8427,2.8265,2.7462,2.6071,2.6678,2.7103,2.7296,2.56,2.0933,1.3314,1.0881,0.5579,-0.3046,-0.0289,-0.0442,-0.4213,-0.468,-0.4553,-0.3972,-0.3202,-0.2403,-0.1454,-0.0166,0.0,0.0,0.0,0.0,0.0,0.0,0.0,0.0,0.0,0.5491,0.4574,0.0,0.6439,0.0,0.5594,0.6309,0.7588,0.7483,0.0,0.0,0.8037,0.8054,0.8381,0.8008,0.7859,0.8284,0.8295,0.8341,0.8487,0.854,0.8572,0.8568,0.8532,0.8483,0.8438,0.8434,0.8438,0.8434,0.8632,0.886,0.9244,0.9607,0.9868,0.9946,1.0038,1.0038,1.0038,1.0038,1.0038,1.0038,1.0038,1.0038,1.0125,1.0467,1.0864,1.1267,1.1974,1.2608,1.2614,1.2662,1.2705,2.8283,2.8264,2.7893,2.7157,2.6343,2.7204,2.7539,2.7532,2.7988,2.817,2.8182,2.8534,2.888,2.9248,2.9214,2.9474,2.9904,2.9833,2.9967,3.0273,3.0109,2.9946,2.9841,2.9825,2.9806,2.9857,3.0018,3.0083,3.0102,3.0152,2.9991,2.9602,2.962,2.9183,2.831,2.8044,2.7901,2.7892,2.7104,2.1901,1.2382,1.1584,0.6758,-0.2583,-0.1178,-0.1373,-0.4113,-0.4622,-0.459,-0.3989,-0.3433,-0.2615,-0.1564,-0.0537,0.0526,0.0,0.0,0.0,0.0,0.0,0.0,0.0,0.0,0.0,0.0,0.0,0.684,0.6678,0.6694,0.7275,0.8511,0.8312,0.8221,0.8553,0.8446,0.8316,0.84,0.8131,0.8078,0.8365,0.8414,0.8455,0.8556,0.8572,0.8572,0.8572,0.8572,0.8572,0.8572,0.8572,0.8572,0.8568,0.8652,0.8915,0.9262,0.9607,0.9864,0.9951,1.0038,1.0038,1.0038,1.0038,1.0038,1.0038,1.0038,1.0038,1.0038,1.0294,1.0722,1.0977,1.1752,1.2357,1.2619,1.2705,1.2705,2.8633,2.8557,2.7795,2.7357,2.7226,2.8096,2.8315,2.8046,2.8047,2.811,2.8247,2.8923,2.9656,3.0358,3.03,3.0272,3.0264,3.0269,3.0257,3.0179,3.0037,2.9931,2.9891,2.9859,2.9825,2.9825,3.0028,3.0092,3.0083,3.0166,3.0234,3.0279,3.0299,3.0336,3.0321,2.8948,2.817,2.8055,2.7374,2.2619,1.3758,1.2232,0.7277,-0.1371,-0.3239,-0.3965,-0.3907,-0.457,-0.4616,-0.4012,-0.347,-0.2689,-0.1484,-0.0713,0.0136,0.0,0.2036,0.0,0.0,0.0,0.0,0.0,0.0,0.0,0.0,0.6426,0.7116,0.8235,0.8076,0.8318,0.9337,0.8939,0.8774,0.8869,0.8626,0.844,0.8615,0.841,0.839,0.8548,0.8572,0.8572,0.8568,0.8572,0.8572,0.8572,0.8572,0.8572,0.8572,0.8572,0.8572,0.8572,0.8652,0.8915,0.9262,0.9519,0.9777,0.9951,1.0038,1.0038,1.0038,1.0038,1.0038,1.0038,1.0038,1.0038,1.0038,1.0294,1.0554,1.0636,1.1327,1.2015,1.2443,1.2619,1.2705,3.0325,3.0313,3.0157,2.9301,2.8131,2.8988,2.8514,2.7157,2.7205,2.7593,2.8178,2.8295,2.8429,2.8586,2.857,2.8543,2.8531,2.9268,2.9409,2.9136,2.9883,3.0085,2.9823,2.9857,2.9872,2.9891,3.0032,3.0095,3.0102,3.0157,3.0213,3.0221,3.0279,3.0299,3.0316,0.0,0.0,0.0,2.8801,2.5347,1.8572,1.4484,0.9306,0.2695,-0.1721,0.0,-0.4522,-0.4849,-0.4835,-0.4423,-0.4036,0.0,0.0,0.0,0.0,0.0,0.0,0.0,0.0,0.0,0.0,0.0,0.6237,0.6216,0.6308,0.7089,0.7917,0.8845,0.8662,0.8632,0.8859,0.8755,0.8675,0.8669,0.845,0.8442,0.8574,0.8599,0.8532,0.856,0.8572,0.8572,0.8572,0.8572,0.8572,0.8572,0.8572,0.8572,0.8572,0.8572,0.8572,0.8656,0.8915,0.9262,0.9515,0.9777,0.9864,1.0038,1.0038,1.0038,1.0033,1.0038,1.0038,1.0038,1.0038,1.0038,1.0038,1.0033,1.0207,1.0544,1.1068,1.1585,1.2015,1.2448,1.2705,3.2085,0.0,3.1621,3.0945,0.0,2.9771,2.9059,2.8141,2.7343,2.7203,2.7565,2.7484,2.7705,2.8106,2.8112,2.807,2.8086,2.8885,2.9129,2.8986,2.9838,3.015,3.0011,3.0026,3.006,3.0041,3.0117,3.0151,3.0161,3.019,3.0199,3.0207,3.0266,3.0305,3.0304,3.0367,3.021,2.98,2.9389,2.6508,2.1022,1.5521,1.0029,0.4492,0.0,0.0,0.0,0.0,0.0,0.0,0.0,0.0,0.0,0.0,0.0,0.0705,0.155,0.2609,0.3833,0.3799,0.4467,0.6087,0.665,0.6981,0.7083,0.7731,0.8312,0.888,0.8918,0.9053,0.9167,0.9289,0.9301,0.9137,0.888,0.8814,0.8719,0.8652,0.8568,0.8572,0.8572,0.8572,0.8572,0.8572,0.8572,0.8572,0.8572,0.8568,0.8572,0.8572,0.8652,0.874,0.8915,0.9262,0.9519,0.9336,0.951,0.9772,0.9685,0.9689,0.9946,1.0038,1.0038,1.0038,1.0038,1.0038,1.0038,1.0038,1.012,1.0549,1.0977,1.1408,1.1929,1.2357,1.2705,3.3863,3.3785,3.3105,3.2586,3.2224,3.1023,3.0304,2.9822,0.0,0.0,0.0,2.6836,2.7122,2.7659,2.7672,2.7663,2.7714,2.8539,2.8907,2.8935,2.9829,3.0228,3.0222,3.0215,3.0221,3.0221,3.0213,3.0204,3.0204,3.0204,3.0199,3.0207,3.0266,3.0305,3.0336,3.0379,3.0398,3.0371,2.9753,2.7496,2.3447,1.6548,1.1233,0.7747,0.0,-0.3805,-0.3294,-0.4512,-0.5041,-0.4638,-0.3815,-0.3204,-0.2778,-0.1479,-0.0409,0.0245,0.08,0.1727,0.3219,0.3418,0.4096,0.5582,0.6845,0.7565,0.7776,0.8201,0.852,0.8721,0.9077,0.9464,0.9682,0.9847,0.9864,0.9602,0.9345,0.9087,0.8911,0.8744,0.8572,0.8572,0.8572,0.8572,0.8572,0.8572,0.8652,0.8656,0.8656,0.8652,0.8652,0.8656,0.874,0.8828,0.8999,0.917,0.9428,0.9248,0.9157,0.9859,0.9506,0.9331,0.9772,1.0038,1.0038,1.0038,1.0038,1.0038,1.0038,1.0038,1.012,1.0554,1.0982,1.1408,1.1923,1.2357,1.2699,3.5633,3.5642,3.5506,3.4588,3.3244,3.3768,3.3127,3.155,2.9098,2.7597,2.6898,2.6887,2.653,2.5951,2.5945,2.5958,2.6062,2.7556,2.8175,0.0,2.9668,3.0314,3.0215,3.0213,3.0218,3.0218,3.0218,3.0204,3.0204,3.0204,3.0199,3.0207,3.0247,3.0318,3.0379,3.0398,3.0398,3.041,3.0342,2.9676,2.8192,1.8729,1.5175,1.7361,0.3483,-0.2189,0.1973,-0.2832,-0.5497,-0.524,-0.4637,-0.3982,-0.3211,-0.1756,-0.0792,-0.0554,0.0493,0.1308,0.1854,0.2091,0.315,0.5295,0.6708,0.7585,0.7759,0.8313,0.8709,0.89,0.9285,0.9682,0.988,0.9758,0.9689,0.9607,0.9262,0.8911,0.8911,0.874,0.8572,0.8572,0.8572,0.8572,0.8572,0.8572,0.8652,0.8823,0.874,0.8652,0.8828,0.8828,0.8823,0.8911,0.9257,0.9515,0.9602,0.9685,0.9685,0.9946,0.9859,0.9685,0.9864,0.9946,0.9946,1.0038,0.9946,0.9951,0.9951,1.0038,1.0207,1.0554,1.0977,1.1413,1.1929,1.2363,1.2705,3.6007,3.601,3.601,3.5542,3.4822,3.4725,3.3983,3.2734,3.1552,2.9977,2.832,2.7825,2.7391,2.7019,2.6955,2.6955,2.7006,2.8236,2.8779,2.8803,2.9984,3.0539,3.0482,3.0449,3.0417,3.0406,3.0311,3.026,3.0241,3.0221,3.0213,3.0207,3.0273,3.0343,3.0398,3.0398,3.0398,3.0398,3.0466,3.0316,2.9834,2.2382,1.9233,2.083,0.7376,0.1124,0.3237,-0.25,-0.5699,-0.5646,-0.4911,-0.439,-0.4088,-0.2706,-0.1585,-0.0839,-0.0786,0.0,0.1751,0.2589,0.3702,0.5408,0.6395,0.7034,0.7427,0.8125,0.8626,0.8823,0.9192,0.9478,0.9579,0.9602,0.9515,0.9428,0.9087,0.8911,0.8911,0.874,0.8572,0.8572,0.8572,0.8572,0.8572,0.8572,0.8656,0.8823,0.8915,0.8999,0.9087,0.917,0.9257,0.9349,0.9432,0.9602,0.9777,0.9157,0.9069,0.9331,0.9069,0.8978,0.9244,0.9419,0.9593,0.9859,0.9685,0.9598,0.9859,1.0038,1.0294,1.0895,1.1154,1.1585,1.2186,1.2534,1.2619,3.5927,3.5927,3.5958,3.5985,3.5955,3.5271,3.4608,3.4003,3.3749,3.2558,3.0693,2.9562,2.8972,2.8748,2.8528,2.8417,2.8476,2.9078,2.9389,2.9486,3.0268,3.0676,3.0668,3.0585,3.0558,3.054,3.0367,3.0304,3.0304,3.0228,3.0207,3.0234,3.0299,3.0367,3.0398,3.0398,3.0398,3.041,3.0447,3.049,3.0334,2.5113,2.2661,2.2863,1.2201,0.5847,0.5266,-0.0481,-0.4439,-0.5674,-0.5195,-0.4876,-0.4919,-0.3764,-0.2561,-0.1619,-0.1796,-0.0843,0.178,0.2726,0.3849,0.5315,0.5877,0.6393,0.7092,0.7789,0.8371,0.8643,0.9017,0.928,0.9318,0.9432,0.9432,0.9349,0.9087,0.8911,0.8911,0.874,0.8572,0.8572,0.8572,0.8572,0.8572,0.8572,0.8652,0.8911,0.9174,0.9349,0.9345,0.9515,0.9607,0.9694,0.9689,0.9777,0.9864,0.8978,0.8536,0.8803,0.8364,0.8273,0.8536,0.8627,0.8982,0.9423,0.9331,0.9331,0.9859,1.0038,1.0381,1.0977,1.1235,1.1585,1.2448,1.2705,1.2619,3.5745,3.5753,3.5852,3.5942,3.5968,3.5893,3.5776,3.56,3.492,3.4491,3.3925,3.2478,3.1262,3.0445,2.9732,2.944,2.9357,2.9369,2.9447,2.9537,3.025,3.0613,3.0593,3.0482,3.0413,3.0413,3.0364,3.0328,3.0316,3.0253,3.0245,3.0292,3.0374,3.0398,3.0398,3.0398,3.0398,3.0398,3.0447,3.049,3.0166,2.5022,2.4539,2.9481,1.8263,1.2042,1.1509,0.5591,-0.0396,-0.5087,-0.5701,-0.5712,-0.546,-0.4394,-0.3648,-0.3332,-0.2026,-0.0286,0.1641,0.1429,0.228,0.4501,0.5143,0.5914,0.7031,0.7496,0.7986,0.8581,0.903,0.9314,0.934,0.9349,0.9345,0.9262,0.9087,0.8911,0.8911,0.874,0.8572,0.8572,0.8572,0.8572,0.8572,0.8656,0.874,0.8915,0.9257,0.9607,0.9607,0.9602,0.9689,0.9864,0.9951,0.9951,0.9946,0.9331,0.8803,0.8798,0.8273,0.7918,0.7918,0.7921,0.8097,0.8803,0.8894,0.8978,0.9593,1.0038,1.0207,1.0804,1.1235,1.1585,1.2443,1.2705,1.2619,3.5713,3.5702,3.5753,3.5788,3.5827,3.5833,3.5869,3.5899,3.5572,3.5447,3.5405,3.4713,3.3633,3.229,3.1903,3.1741,3.1664,3.1164,3.0934,3.0909,3.0768,3.068,3.0653,3.061,3.0574,3.0574,3.053,3.0422,3.0356,3.0279,3.0279,3.0299,3.0367,3.0398,3.0398,3.0398,3.0398,3.039,3.0466,3.049,3.0265,2.833,2.8196,2.944,2.2313,1.6139,1.2636,0.6195,0.0,-0.5065,-0.5954,-0.609,-0.5756,-0.5228,-0.4546,-0.3844,-0.216,-0.0892,-0.0077,0.077,0.1935,0.3517,0.43,0.5314,0.6491,0.7155,0.7875,0.8832,0.9213,0.9262,0.917,0.9345,0.9345,0.8999,0.8915,0.8823,0.8736,0.8656,0.8568,0.8572,0.8572,0.8572,0.8656,0.874,0.8911,0.9087,0.9428,0.9602,0.9777,0.9868,0.9864,0.9951,1.0038,1.0038,0.9951,0.9419,0.8803,0.836,0.8006,0.7742,0.7302,0.7217,0.7482,0.8097,0.8009,0.8009,0.8536,0.9152,0.9593,1.0279,1.1322,1.1929,1.2613,1.2705,1.2705,3.5834,3.566,3.5669,3.5676,3.5713,3.5713,3.5753,3.584,3.584,3.5889,3.5919,3.5923,3.5243,3.4156,3.3807,3.3682,3.3517,3.2521,3.2015,3.1899,3.1117,3.0711,3.0697,3.069,3.069,3.0683,3.0629,3.0549,3.0423,3.0378,3.0364,3.0409,3.043,3.0449,3.0436,3.0417,3.0425,3.0383,3.0477,3.049,3.049,3.055,3.0617,3.0201,2.6258,2.1198,1.5624,1.0305,0.4165,-0.2651,-0.368,-0.4722,-0.6079,-0.6041,-0.5325,-0.4141,-0.3194,-0.2069,-0.1013,-0.0078,0.1406,0.3433,0.4389,0.5598,0.7104,0.7875,0.8636,0.962,0.9515,0.9257,0.9087,0.9345,0.9257,0.8823,0.8911,0.8823,0.8828,0.874,0.8652,0.8652,0.8656,0.8572,0.8656,0.874,0.8999,0.9087,0.9345,0.9602,0.9777,0.9864,0.9864,0.9946,1.0038,1.0038,0.9951,0.9419,0.8715,0.8185,0.7921,0.7302,0.6864,0.6691,0.6779,0.7309,0.6956,0.7132,0.7921,0.8448,0.8973,0.9753,1.0799,1.1929,1.2619,1.2705,1.2705,3.6213,3.5566,3.5562,3.5621,3.5713,3.5685,3.5693,3.5721,3.5702,3.5729,3.5737,3.5737,3.5716,3.5632,3.4913,3.4607,3.4342,3.2953,3.2176,3.201,3.1213,3.0728,3.0697,3.069,3.071,3.069,3.0637,3.0567,3.0501,3.0491,3.0535,3.0587,3.0576,3.054,3.0501,3.0501,3.0452,3.0428,3.0449,3.0479,3.049,3.055,3.0598,3.053,3.0201,2.7059,2.206,2.0712,1.4978,0.3609,0.2065,-0.0847,-0.5872,-0.6574,-0.592,-0.463,-0.5222,-0.4119,-0.0935,-0.1482,-0.0078,0.4801,0.5599,0.7088,1.0033,0.995,1.0015,1.1042,1.012,0.9519,0.9345,0.9432,0.9345,0.9257,0.8999,0.9087,0.9262,0.8915,0.874,0.8828,0.874,0.8656,0.8564,0.874,0.8911,0.8999,0.9174,0.9345,0.9602,0.9602,0.9777,0.9951,0.9951,1.0038,0.9951,0.951,0.9065,0.8536,0.7746,0.6953,0.6605,0.6432,0.6517,0.6605,0.6605,0.6868,0.757,0.8093,0.8703,0.9488,1.0448,1.1402,1.2186,1.2528,1.2705,3.5968,3.5141,3.5287,3.5348,3.538,3.5379,3.548,3.564,3.564,3.564,3.5693,3.5693,3.5737,3.5767,3.5558,3.5489,3.5368,3.4297,3.341,3.2879,3.2502,3.1771,3.0814,3.1234,3.1215,3.0749,3.0668,3.0626,3.0563,3.0507,3.0543,3.0603,3.0605,3.0598,3.0568,3.0509,3.0482,3.0462,3.046,3.0439,3.0458,3.049,3.053,3.0549,3.0588,2.7937,2.2264,2.1376,1.7375,0.982,0.4644,0.0874,-0.129,-0.4934,-0.6968,-0.6659,-0.5893,-0.483,-0.3579,-0.2495,0.0077,0.4505,0.5389,0.7529,1.0942,1.0969,1.0383,1.0919,1.0467,0.9864,0.9777,0.9781,0.9607,0.9345,0.9345,0.9345,0.9257,0.9174,0.8999,0.8911,0.874,0.8572,0.8656,0.8652,0.8736,0.8911,0.8999,0.9174,0.9345,0.9515,0.9602,0.9777,0.9864,1.0038,1.0038,0.9859,0.9419,0.8623,0.7834,0.7132,0.6697,0.6517,0.6605,0.6169,0.6169,0.6257,0.6782,0.7221,0.7921,0.8969,0.9927,1.0707,1.1671,1.21,1.2443,3.5531,3.4983,3.5035,3.5105,3.5086,3.5082,3.5206,3.5353,3.5386,3.5432,3.5538,3.553,3.5591,3.5678,3.5764,3.584,3.5802,3.5064,3.4355,3.3763,3.3473,3.2682,3.1821,3.2162,3.213,3.1618,3.154,3.1513,3.1481,3.1441,3.1442,3.152,3.1512,3.1331,3.1113,3.1006,3.087,3.0623,3.0501,3.0471,3.0509,3.0749,3.0893,3.0951,3.1195,2.9392,2.4982,2.4485,2.1739,1.6227,1.1105,0.7663,0.5439,-0.0565,-0.432,-0.4349,-0.3348,-0.3583,-0.5186,-0.3973,-0.0533,0.5067,0.5656,0.7924,1.3265,1.2556,1.1702,1.1536,1.0982,1.0381,1.0038,1.0038,0.9864,0.9607,0.9607,0.9602,0.9519,0.9432,0.917,0.8911,0.8828,0.8652,0.8652,0.8656,0.874,0.8823,0.8823,0.8999,0.9257,0.9432,0.9602,0.9689,0.9864,0.9951,0.9859,0.9685,0.9331,0.8627,0.8009,0.7397,0.6697,0.6605,0.6343,0.5908,0.5733,0.5733,0.5911,0.6349,0.7228,0.8364,0.8969,0.9662,1.0621,1.158,1.1837,3.4946,3.4851,3.4884,3.4887,3.4908,3.4868,3.4868,3.4944,3.4926,3.5015,3.52,3.5223,3.5378,3.5543,3.5609,3.566,3.5589,3.508,3.4716,3.4492,3.3906,3.3453,3.3102,3.3228,3.321,3.303,3.3187,3.3187,3.3083,3.3025,3.3063,3.3253,3.3135,3.2689,3.2016,3.1963,3.1596,3.108,3.0889,3.0778,3.0722,3.139,3.173,3.1811,3.2444,3.1962,3.0274,3.0854,2.8366,2.3442,2.2168,1.9813,1.2587,0.6055,0.246,0.2663,0.2488,-0.034,-0.3973,-0.4644,-0.0517,0.6999,0.7299,1.0193,1.5724,1.5367,1.3652,1.2753,1.1746,1.0895,1.0207,1.0038,0.9951,0.9956,0.9781,0.9689,0.9777,0.9607,0.9262,0.8999,0.8915,0.8823,0.874,0.8828,0.8915,0.8828,0.8823,0.8999,0.9257,0.9345,0.9519,0.9777,0.9951,0.9951,0.9685,0.9423,0.9069,0.8715,0.8097,0.7485,0.6697,0.6343,0.6169,0.5822,0.5733,0.5733,0.5733,0.6171,0.6612,0.7485,0.8093,0.879,0.9575,1.0448,1.0971,3.522,3.4435,3.443,3.4534,3.4649,3.436,3.4449,3.487,3.4715,3.4793,3.4982,3.516,3.5235,3.5355,3.5526,3.5609,3.5621,3.5528,3.5194,3.471,3.492,3.4432,3.3621,3.3941,3.3897,3.3389,3.3301,3.3317,3.3383,3.3406,3.3392,3.3395,3.3417,3.3256,3.2989,3.2911,3.2713,3.2542,3.2421,3.2384,3.2377,3.2542,3.2656,3.2703,3.291,3.2713,3.227,3.2497,3.1693,2.9523,2.5389,1.9935,1.3928,1.0797,0.9566,0.8867,0.468,0.4381,0.6246,0.3333,0.5434,1.3936,1.5652,1.6859,1.9714,1.7934,1.5621,1.384,1.226,1.1154,1.0901,1.0294,1.012,1.0038,0.9956,0.9864,0.9951,0.9689,0.9432,0.9257,0.9174,0.9087,0.8911,0.8999,0.9174,0.9087,0.8999,0.8999,0.9262,0.9349,0.9432,0.9689,0.9777,0.9864,0.951,0.9069,0.8627,0.8277,0.7834,0.7309,0.652,0.6171,0.5997,0.5819,0.5733,0.5733,0.5733,0.5997,0.6435,0.6871,0.7482,0.8181,0.8703,0.9314,1.0014,3.4958,3.3998,3.3963,3.4056,3.4197,3.3887,3.4023,3.4394,3.4315,3.4405,3.4653,3.4889,3.5019,3.5122,3.5336,3.5445,3.5483,3.5688,3.5482,3.5065,3.5569,3.5273,3.4413,3.4801,3.4832,3.4378,3.4259,3.4281,3.4324,3.4324,3.4339,3.4354,3.4332,3.415,3.3887,3.3784,3.3673,3.3375,3.3239,3.3232,3.3289,3.3468,3.3587,3.3576,3.382,3.3954,3.3949,3.3923,3.3769,3.2374,2.6977,2.2295,2.0467,1.8617,1.6672,1.5521,1.2752,1.1125,1.2166,0.8844,1.0868,1.8836,1.9816,2.0432,2.2056,2.0319,1.7576,1.5963,1.4058,1.2662,1.2401,1.1809,1.1305,1.1058,1.0381,1.0033,0.9951,0.9868,0.9694,0.9519,0.9428,0.9257,0.917,0.9262,0.9349,0.9345,0.9257,0.917,0.9345,0.9345,0.9519,0.9602,0.9777,0.9685,0.9419,0.8798,0.8185,0.7746,0.7394,0.6786,0.6086,0.6086,0.5908,0.5822,0.5733,0.5733,0.5733,0.5908,0.626,0.6697,0.7044,0.7397,0.8013,0.8711,0.9323,3.4353,3.3678,3.3588,3.3634,3.3633,3.3571,3.3611,3.3671,3.3815,3.4012,3.4237,3.4542,3.473,3.4908,3.5105,3.5203,3.5235,3.5463,3.56,3.5581,3.5839,3.5793,3.5723,3.5739,3.5702,3.5695,3.571,3.5771,3.5622,3.5641,3.589,3.5706,3.5633,3.5467,3.4818,3.4667,3.4335,3.3799,3.3621,3.3628,3.3641,3.4132,3.4458,3.4429,3.501,3.5323,3.5245,3.5205,3.4955,3.3585,2.8526,2.7913,3.1538,2.7806,2.4018,2.3506,2.3248,1.9525,1.5208,1.3755,1.5875,2.1843,2.185,2.0926,2.453,2.2752,2.0321,1.9053,1.6911,1.5209,1.4684,1.3787,1.3224,1.2413,1.1063,1.0294,1.0038,0.9951,0.9864,0.9694,0.9607,0.9519,0.9345,0.9519,0.9519,0.9432,0.9519,0.9432,0.9432,0.9519,0.9607,0.9689,0.9864,0.9685,0.9331,0.8978,0.8273,0.7746,0.7305,0.6609,0.5997,0.5908,0.5908,0.5733,0.5733,0.5733,0.5733,0.5911,0.6086,0.6257,0.6523,0.6792,0.7228,0.7925,0.8185,3.5192,3.436,3.3626,3.3408,3.3549,3.3244,3.3274,3.3559,3.3643,3.3762,3.403,3.4409,3.4604,3.471,3.487,3.5054,3.5187,3.5345,3.5469,3.5609,3.5721,3.5852,3.5914,3.5971,3.5987,3.5972,3.5973,3.5972,3.5956,3.5976,3.5957,3.5974,3.5958,3.5855,3.56,3.5506,3.5455,3.5251,3.5201,3.5157,3.5145,3.5259,3.5424,3.5426,3.5477,3.5515,3.5476,3.5398,3.5311,3.5053,3.3593,3.2882,3.4434,3.2649,3.1096,3.026,2.6319,2.5217,2.6274,2.2506,2.2929,2.8657,2.7997,2.7985,2.7355,2.589,2.3943,2.2161,1.964,1.7828,1.7246,1.5546,1.371,1.1912,1.1322,1.0722,1.012,1.0038,0.9864,0.9689,0.9777,0.9781,0.9694,0.9694,0.9864,0.9777,0.9689,0.9607,0.9602,0.9607,0.9694,0.9864,0.9859,0.9598,0.9244,0.8978,0.8448,0.7834,0.7221,0.6605,0.6083,0.5733,0.5733,0.5733,0.5733,0.5733,0.5733,0.5822,0.5908,0.5997,0.6171,0.6438,0.6435,0.6782,0.6959,3.5069,3.4339,3.3102,3.2749,3.2988,3.257,3.2553,3.2827,3.3075,3.3225,3.3468,3.4037,3.4311,3.4321,3.4651,3.4889,3.4999,3.5181,3.5345,3.5463,3.5611,3.5764,3.5864,3.5942,3.5978,3.601,3.601,3.6018,3.6003,3.6005,3.5992,3.5957,3.5965,3.5951,3.5868,3.5896,3.588,3.5855,3.5897,3.5891,3.5885,3.5872,3.5815,3.5782,3.5646,3.5496,3.5388,3.5254,3.5258,3.5304,3.5223,3.5107,3.4889,3.4889,3.4711,3.4195,3.0055,2.9846,3.1804,2.9093,2.8795,3.1725,3.2417,3.1569,2.9974,2.8555,2.6906,2.5283,2.2806,2.1107,1.9687,1.7569,1.5126,1.3328,1.2577,1.1729,1.0202,1.0038,0.9951,0.9864,0.9864,0.9951,0.9781,0.9951,0.9951,0.9951,0.9864,0.9777,0.9777,0.9777,0.9781,0.9864,0.9946,0.9772,0.9506,0.9157,0.889,0.8273,0.757,0.6868,0.6169,0.5822,0.5733,0.5822,0.5733,0.5733,0.5733,0.5733,0.5822,0.5908,0.5997,0.6083,0.6169,0.6257,0.6343,3.4447,3.3981,3.2422,3.1932,3.2249,3.1896,3.186,3.1878,3.24,3.2631,3.2805,3.3486,3.3823,3.3895,3.4375,3.4653,3.4714,3.5016,3.5207,3.534,3.5488,3.566,3.5794,3.5878,3.5909,3.5955,3.5965,3.5962,3.5955,3.5958,3.5935,3.5909,3.5896,3.5898,3.5872,3.5884,3.5885,3.5889,3.5891,3.5872,3.5878,3.5864,3.5823,3.5801,3.5658,3.5477,3.5296,3.519,3.5174,3.5277,3.5162,3.4982,3.4753,3.473,3.4583,3.4316,3.3593,3.3309,3.3468,3.2823,3.2644,3.296,3.3222,3.3128,3.1913,3.0578,2.9428,2.8595,2.6286,2.3931,2.1613,1.9643,1.7357,1.5231,1.4483,1.3056,1.1047,1.0207,1.0038,1.0033,1.012,1.0033,1.0038,1.0038,1.0038,1.0038,0.9951,0.9951,0.9864,0.9864,0.9777,0.9777,0.9864,1.0038,0.9772,0.9506,0.9152,0.8711,0.8006,0.7305,0.6432,0.6083,0.5908,0.5908,0.5908,0.5822,0.5733,0.5733,0.5822,0.5822,0.5908,0.6083,0.6257,0.6346,0.6432,3.4234,3.4119,3.2577,3.2003,3.2039,3.1967,3.1878,3.1896,3.223,3.2366,3.2565,3.313,3.34,3.3458,3.4018,3.4394,3.4591,3.4851,3.5054,3.5223,3.5379,3.5483,3.5601,3.5729,3.584,3.5858,3.584,3.584,3.584,3.5814,3.5762,3.5768,3.586,3.5884,3.5852,3.5878,3.5896,3.589,3.5883,3.5859,3.583,3.5823,3.5815,3.5782,3.5679,3.5526,3.5364,3.5235,3.5209,3.5176,3.5056,3.4889,3.4851,3.4831,3.473,3.4561,3.4404,3.4221,3.3902,3.3512,3.3332,3.3488,3.3529,3.355,3.3639,3.2647,3.1927,3.1225,2.9072,2.6013,2.2812,2.0507,1.8717,1.709,1.6188,1.5202,1.3128,1.1466,1.0712,1.0549,1.0463,1.0463,1.0467,1.0207,1.012,1.0033,1.0038,0.9956,0.9956,0.9951,0.9951,0.9864,0.9864,1.0038,0.9946,0.9685,0.9506,0.9152,0.8448,0.7918,0.7132,0.6343,0.6254,0.6169,0.5994,0.5908,0.5733,0.5733,0.5733,0.5822,0.5822,0.5908,0.5994,0.626,0.6432,3.3955,3.3766,3.1935,3.1133,3.1043,3.0881,3.0818,3.092,3.1405,3.1591,3.1809,3.2464,3.2965,3.313,3.3616,3.4031,3.4483,3.4831,3.5037,3.5157,3.5289,3.5374,3.5432,3.5579,3.5687,3.5779,3.5806,3.5799,3.5772,3.5729,3.5721,3.5713,3.5787,3.5825,3.583,3.5864,3.5859,3.5882,3.5892,3.5885,3.584,3.5833,3.5791,3.5754,3.5658,3.5526,3.5336,3.5266,3.5207,3.5105,3.4926,3.4812,3.4811,3.4771,3.467,3.4602,3.4495,3.4227,3.391,3.368,3.3563,3.3919,3.4127,3.431,3.4491,3.4206,3.3625,3.2685,3.0966,2.8595,2.4963,2.2456,2.0708,1.9215,1.794,1.6742,1.5112,1.3212,1.1724,1.1316,1.1154,1.1068,1.0895,1.0549,1.0376,1.0376,1.0038,1.0038,1.0038,0.9951,0.9951,0.9951,0.9951,1.0038,1.0038,0.9946,0.9772,0.9419,0.8973,0.8536,0.8101,0.7309,0.6602,0.6343,0.5994,0.5819,0.5733,0.5733,0.5733,0.5733,0.5733,0.5733,0.5819,0.6257,0.6432,3.3354,3.3185,3.1031,3.0081,2.9929,2.9717,2.9677,2.9705,3.0344,3.0761,3.0897,3.1826,3.2451,3.2759,3.3223,3.3739,3.4325,3.4771,3.4964,3.4982,3.5193,3.5239,3.5311,3.5405,3.5543,3.5721,3.5732,3.5743,3.5715,3.5687,3.566,3.5669,3.5676,3.5745,3.5807,3.5849,3.5847,3.5898,3.5914,3.5896,3.5895,3.5899,3.5852,3.5747,3.5667,3.5546,3.5397,3.5277,3.5184,3.5122,3.487,3.4793,3.4751,3.4623,3.4473,3.4491,3.4404,3.4227,3.3943,3.3815,3.3879,3.4249,3.4755,3.517,3.5324,3.5256,3.4584,3.3489,3.1995,3.0352,2.7733,2.5141,2.311,2.16,1.9907,1.8505,1.7001,1.5367,1.3975,1.2413,1.2169,1.2083,1.1488,1.1068,1.0895,1.0636,1.0294,1.0125,1.012,1.0038,1.012,1.0207,1.0207,1.0207,1.0207,1.0038,0.9946,0.9598,0.924,0.8803,0.8364,0.7224,0.6343,0.6257,0.5994,0.5822,0.5733,0.5733,0.5733,0.5733,0.5733,0.5733,0.5908,0.6254,0.6343,3.2099,3.2076,3.051,2.9853,2.9821,2.975,2.9661,2.9853,3.0251,3.0543,3.0608,3.1435,3.1842,3.2127,3.2862,3.357,3.4093,3.452,3.4689,3.4752,3.4945,3.5105,3.5122,3.5266,3.5369,3.5424,3.5526,3.5593,3.557,3.556,3.557,3.5562,3.559,3.566,3.5741,3.582,3.5873,3.5906,3.595,3.5937,3.5913,3.5903,3.5881,3.5796,3.5727,3.5623,3.5521,3.5369,3.53,3.5251,3.5049,3.4962,3.4889,3.4609,3.4431,3.4381,3.4335,3.4203,3.4055,3.4002,3.4458,3.5102,3.545,3.5883,3.619,3.5908,3.5284,3.4218,3.2207,2.9935,2.8099,2.6595,2.4979,2.3486,2.2477,2.1339,1.9418,1.7912,1.6359,1.4552,1.3827,1.3014,1.226,1.1671,1.1327,1.1068,1.0809,1.0549,1.0549,1.0381,1.0294,1.0381,1.0549,1.0549,1.0549,1.0207,0.9946,0.9685,0.9157,0.8448,0.7837,0.6697,0.5994,0.6169,0.5994,0.5733,0.5733,0.5733,0.5733,0.5733,0.5733,0.5733,0.5819,0.5994,0.5908,3.166,3.11,2.9816,2.9077,2.8779,2.8748,2.8904,2.9136,2.9572,2.9777,3.0021,3.069,3.1189,3.1497,3.2057,3.2845,3.3606,3.4203,3.4363,3.4454,3.4672,3.4832,3.4889,3.5069,3.5174,3.5239,3.536,3.5457,3.547,3.5554,3.5534,3.556,3.5581,3.5637,3.5679,3.576,3.5846,3.5884,3.5916,3.5942,3.5951,3.5943,3.5884,3.5834,3.5773,3.5718,3.5648,3.5543,3.5451,3.536,3.5171,3.5051,3.4925,3.4754,3.4505,3.4413,3.4293,3.4173,3.4253,3.4341,3.5073,3.5846,3.6131,3.6654,3.7058,3.6829,3.6061,3.4961,3.3304,3.1153,3.0381,2.8628,2.705,2.5884,2.5061,2.3693,2.2168,2.0958,1.897,1.6734,1.5079,1.3944,1.2875,1.2277,1.1929,1.1585,1.1241,1.1068,1.0977,1.0809,1.0554,1.0722,1.0895,1.0722,1.0636,1.0294,1.0038,0.9685,0.9244,0.854,0.8013,0.7136,0.6694,0.6605,0.6346,0.5997,0.5733,0.5733,0.5733,0.5733,0.5733,0.5733,0.5733,0.5733,0.5733,3.1239,3.0207,2.9091,2.8267,2.772,2.7806,2.8005,2.8348,2.8904,2.9166,2.9257,3.0081,3.069,3.0999,3.1514,3.2213,3.3046,3.3697,3.3924,3.4043,3.4344,3.4539,3.4689,3.485,3.5019,3.5072,3.5239,3.5307,3.5369,3.5483,3.5553,3.5553,3.5591,3.5654,3.5679,3.5747,3.5815,3.5866,3.5903,3.596,3.5976,3.5946,3.5899,3.5889,3.5846,3.5791,3.5717,3.562,3.5543,3.547,3.5315,3.5155,3.5069,3.4889,3.4734,3.4553,3.4325,3.4154,3.4284,3.4721,3.5377,3.6062,3.6856,3.738,3.7626,3.7377,3.6829,3.5552,3.4251,3.2776,3.1916,3.0602,2.917,2.7878,2.6809,2.5765,2.4329,2.2952,2.1232,1.8961,1.6627,1.4949,1.3873,1.2881,1.2448,1.2186,1.1843,1.1499,1.1408,1.1235,1.1068,1.1154,1.1154,1.089,1.0636,1.0294,1.012,0.9946,0.9419,0.8715,0.8452,0.8101,0.7658,0.7221,0.6868,0.652,0.6171,0.5733,0.5733,0.5733,0.5733,0.5733,0.5733,0.5733,0.5733,3.0228,2.9203,2.8497,2.7794,2.7299,2.7575,2.779,2.7974,2.8716,2.9136,2.9074,2.9995,3.0444,3.0754,3.1397,3.1933,3.25,3.3021,3.3328,3.3413,3.3899,3.4274,3.4517,3.4623,3.4771,3.487,3.5069,3.5209,3.5235,3.5334,3.5444,3.5477,3.5601,3.5718,3.5728,3.5747,3.5872,3.5908,3.5955,3.5994,3.6003,3.5994,3.5951,3.5919,3.5897,3.5846,3.5784,3.5688,3.5599,3.5574,3.5476,3.5412,3.5315,3.5174,3.5016,3.4794,3.4569,3.4381,3.4498,3.4973,3.5616,3.6321,3.6924,3.7467,3.7765,3.7433,3.6636,3.5335,3.4811,3.4039,3.2951,3.2167,3.0792,2.9492,2.8214,2.7129,2.5915,2.4708,2.2992,2.1363,1.91,1.6611,1.4866,1.3873,1.296,1.2705,1.2443,1.21,1.1929,1.1752,1.1666,1.1757,1.1585,1.1322,1.0977,1.0554,1.0294,1.012,0.9598,0.9065,0.8978,0.8715,0.8189,0.7746,0.7485,0.6956,0.6257,0.5908,0.5822,0.5822,0.5994,0.5908,0.5733,0.5733,0.5733,2.9518,2.8693,2.8152,2.7487,2.6817,2.6982,2.7372,2.7825,2.8204,2.8494,2.8764,2.9374,2.9976,3.0547,3.135,3.1787,3.2039,3.2449,3.2677,3.2818,3.3299,3.3705,3.388,3.4184,3.4454,3.4529,3.4718,3.4831,3.4958,3.5216,3.543,3.5507,3.5538,3.5626,3.5718,3.5737,3.5814,3.5884,3.5958,3.6015,3.6013,3.5989,3.5979,3.5951,3.5962,3.5919,3.5853,3.5764,3.565,3.5568,3.5477,3.5388,3.5335,3.5226,3.5105,3.5051,3.4754,3.4771,3.5165,3.5569,3.6168,3.6867,3.7461,3.7925,3.7929,3.7487,3.6925,3.6256,3.5504,3.4622,3.3705,3.3119,3.2007,3.072,2.9638,2.8688,2.7551,2.617,2.4755,2.3201,2.1559,1.9247,1.6928,1.5576,1.4357,1.3307,1.3045,1.2705,1.2534,1.2448,1.2363,1.2363,1.21,1.1752,1.1413,1.0982,1.0549,1.0294,1.0033,0.968,0.9593,0.9244,0.8803,0.854,0.8364,0.7661,0.6697,0.6432,0.6609,0.6432,0.6343,0.6083,0.5822,0.5733,0.5644,2.8302,2.7625,2.7581,2.7102,2.6394,2.6443,2.6893,2.7423,2.774,2.7989,2.8317,2.8872,2.9637,3.0453,3.107,3.1414,3.16,3.1967,3.2109,3.235,3.2677,3.3003,3.3252,3.3652,3.3968,3.4043,3.4408,3.4579,3.4774,3.5037,3.5335,3.5543,3.5531,3.5607,3.5689,3.5754,3.5788,3.5891,3.5931,3.5968,3.5996,3.6015,3.6009,3.5996,3.5968,3.5955,3.5899,3.5827,3.5706,3.5611,3.55,3.5438,3.5345,3.53,3.5203,3.5138,3.4926,3.5171,3.5741,3.6254,3.683,3.7358,3.7998,3.8165,3.7933,3.7522,3.7206,3.6873,3.6291,3.5459,3.4671,3.4037,3.3171,3.2204,3.1202,3.0363,2.9324,2.7801,2.6591,2.535,2.3746,2.2019,1.9792,1.7789,1.6055,1.4384,1.3646,1.3222,1.2966,1.2796,1.2705,1.2619,1.2272,1.1837,1.1494,1.1154,1.0809,1.0549,1.0294,1.0033,0.9859,0.9772,0.9506,0.9331,0.9157,0.8807,0.8193,0.7749,0.7305,0.6609,0.6083,0.5994,0.5908,0.5733,0.5555,2.6219,2.5336,2.6406,2.6442,2.5948,2.6351,2.651,2.6721,2.7408,2.779,2.7993,2.8732,2.9599,3.0261,3.0533,3.0845,3.1213,3.1582,3.1677,3.186,3.2144,3.25,3.2755,3.3076,3.3395,3.3678,3.4012,3.4394,3.467,3.4849,3.5136,3.5361,3.5476,3.5629,3.5717,3.5768,3.5807,3.586,3.5912,3.5957,3.5994,3.6015,3.5992,3.5996,3.5939,3.5888,3.588,3.5833,3.5779,3.5745,3.5609,3.5519,3.5424,3.5397,3.5326,3.5223,3.5089,3.5399,3.595,3.6419,3.6597,3.6877,3.7473,3.8204,3.7916,3.7864,3.7558,3.7009,3.6533,3.6079,3.5448,3.4925,3.4071,3.3187,3.2164,3.1375,3.0363,2.924,2.8023,2.7261,2.5834,2.4116,2.2402,2.0409,1.7717,1.5898,1.3977,1.3555,1.3052,1.2796,1.2705,1.2613,1.2272,1.1923,1.1494,1.1235,1.0982,1.0636,1.0381,1.0207,1.0038,0.9951,0.9859,0.9859,0.9598,0.9685,0.951,0.854,0.7485,0.6349,0.5822,0.6171,0.5905,0.5641,0.5371,2.5389,2.5017,2.5105,2.4939,2.4781,2.5314,2.5742,2.604,2.6707,2.7333,2.7841,2.8686,2.9305,2.9653,3.0021,3.0309,3.074,3.0868,3.1123,3.1432,3.175,3.2021,3.2264,3.2533,3.2822,3.3082,3.356,3.3986,3.419,3.4612,3.4981,3.5209,3.5359,3.5495,3.5609,3.5704,3.5755,3.5807,3.586,3.5939,3.6001,3.5991,3.5976,3.5935,3.591,3.5892,3.5885,3.5853,3.583,3.5801,3.5699,3.5596,3.5526,3.5489,3.5411,3.5335,3.519,3.5316,3.5704,3.64,3.7131,3.7951,3.8303,3.8318,3.7897,3.7703,3.7299,3.6891,3.6667,3.6199,3.5554,3.5144,3.4592,3.3804,3.3014,3.2314,3.136,3.0257,2.9303,2.8397,2.7538,2.6294,2.459,2.2867,2.0101,1.7404,1.5411,1.3808,1.3385,1.2875,1.2875,1.279,1.2528,1.2272,1.1923,1.1585,1.1241,1.0809,1.0467,1.0294,1.0125,1.0038,0.9946,1.0038,0.9951,0.9777,0.9336,0.8623,0.7921,0.7224,0.6786,0.6694,0.6254,0.5549,0.5191,2.4272,2.4141,2.3697,2.3682,2.4021,2.4509,2.4851,2.519,2.5932,2.6836,2.7801,2.8481,2.8904,2.9155,2.9507,2.9968,3.041,3.0658,3.0878,3.1196,3.1504,3.1674,3.1858,3.2091,3.2368,3.2535,3.2978,3.3451,3.3876,3.4408,3.4756,3.4996,3.5168,3.535,3.5419,3.5581,3.5659,3.5745,3.5807,3.5924,3.5978,3.5996,3.5956,3.5921,3.5887,3.5884,3.5883,3.5859,3.5823,3.5791,3.5747,3.5718,3.5646,3.557,3.5509,3.5383,3.5281,3.5138,3.5381,3.6174,3.7542,3.8591,3.8685,3.8378,3.7964,3.7614,3.7319,3.6708,3.6485,3.6216,3.5677,3.5543,3.5161,3.4414,3.3955,3.326,3.2314,3.1245,3.0392,2.9538,2.8552,2.7512,2.6307,2.4365,2.1181,1.8338,1.5921,1.4475,1.3808,1.3385,1.3045,1.296,1.279,1.2619,1.2443,1.21,1.1671,1.0895,1.0549,1.0381,1.0207,1.012,1.0038,1.0038,0.9864,0.9689,0.9423,0.9152,0.8803,0.8448,0.7834,0.7044,0.634,0.5636,0.5102,2.2793,2.2283,2.2321,2.2932,2.3787,2.4034,2.4021,2.4297,2.5301,2.6442,2.7538,2.7834,2.8376,2.8981,2.9275,2.9705,3.0215,3.0634,3.0895,3.1015,3.1213,3.1406,3.1596,3.1785,3.1967,3.2109,3.255,3.3069,3.3616,3.4,3.4414,3.4813,3.5049,3.5212,3.5166,3.5393,3.56,3.5772,3.5774,3.5878,3.5953,3.5988,3.5956,3.5909,3.5893,3.5892,3.5872,3.5859,3.583,3.5799,3.5782,3.5747,3.5698,3.5648,3.5593,3.5496,3.5405,3.5345,3.5365,3.6265,3.7617,3.8931,3.8989,3.8615,3.808,3.7791,3.7559,3.7013,3.6731,3.6527,3.6335,3.6079,3.5588,3.5144,3.4671,3.3955,3.3014,3.2084,3.1174,3.0375,2.9366,2.8336,2.7353,2.5628,2.2274,1.9344,1.6569,1.5144,1.4475,1.3724,1.3307,1.3045,1.2875,1.2705,1.2528,1.2528,1.2186,1.1327,1.0722,1.0463,1.0207,1.0033,1.0038,1.0038,0.9951,0.9777,0.9864,0.9864,0.9157,0.8364,0.7837,0.7132,0.634,0.5633,0.501,2.2079,2.1526,2.1987,2.2223,2.2408,2.3075,2.3386,2.3657,2.4995,2.6023,2.6643,2.755,2.8227,2.8639,2.9044,2.9454,2.9941,3.0027,3.0284,3.0692,3.0838,3.1055,3.1252,3.1483,3.1637,3.1894,3.2266,3.2763,3.3356,3.3703,3.4086,3.4467,3.4889,3.5049,3.5228,3.5418,3.5546,3.5601,3.5693,3.582,3.5889,3.5935,3.5948,3.5898,3.5898,3.5893,3.5883,3.5879,3.5852,3.5815,3.5799,3.5782,3.5775,3.5728,3.5688,3.5562,3.5502,3.5907,3.6566,3.7577,3.8329,3.902,3.9202,3.8865,3.8524,3.836,3.7946,3.7487,3.7111,3.6917,3.6781,3.636,3.5915,3.5677,3.5174,3.4382,3.3515,3.2664,3.1792,3.1043,3.0133,2.9192,2.8179,2.6671,2.3625,2.1322,1.8804,1.6339,1.5304,1.4139,1.3307,1.3222,1.3045,1.2705,1.2613,1.2619,1.2272,1.1499,1.0895,1.0463,1.0207,1.012,1.0038,1.0038,0.9951,0.9864,0.9685,0.9419,0.8719,0.8017,0.7397,0.6599,0.563,0.5099,0.4832,2.1651,2.1123,2.1474,2.16,2.1577,2.2433,2.298,2.3433,2.457,2.5315,2.6011,2.7085,2.7819,2.828,2.8777,2.9243,2.9677,2.9924,3.0054,3.0452,3.0576,3.0821,3.1015,3.1173,3.1389,3.1691,3.2038,3.2519,3.3009,3.3497,3.4037,3.4505,3.4713,3.4981,3.5235,3.5383,3.5514,3.5577,3.5688,3.5753,3.5846,3.5919,3.5955,3.5918,3.5898,3.5891,3.5896,3.5899,3.5891,3.5845,3.5834,3.5799,3.581,3.5765,3.5728,3.5629,3.5591,3.621,3.7305,3.7757,3.8483,3.9443,3.9357,3.911,3.8828,3.8579,3.8245,3.7825,3.7451,3.719,3.6978,3.6509,3.6191,3.5941,3.5633,3.483,3.4003,3.3145,3.2516,3.1721,3.0763,2.9889,2.8826,2.7113,2.4991,2.3054,2.1106,1.8664,1.6273,1.4887,1.3808,1.3555,1.3307,1.3052,1.279,1.2619,1.2272,1.1671,1.1154,1.0636,1.0294,1.0207,1.012,1.0038,0.9951,0.9772,0.9331,0.8803,0.8189,0.7485,0.6776,0.5894,0.4919,0.4654,0.4565,2.1365,2.106,2.0688,2.088,2.1388,2.2087,2.2811,2.3518,2.3636,2.4513,2.5889,2.5972,2.6885,2.8045,2.8529,2.8982,2.947,2.9924,3.014,3.0309,3.0452,3.0658,3.0845,3.1021,3.1201,3.1449,3.1821,3.2266,3.2669,3.3346,3.4086,3.4591,3.4752,3.4926,3.5105,3.527,3.5411,3.5526,3.5609,3.5706,3.5806,3.5883,3.5916,3.5898,3.5918,3.5918,3.5906,3.5907,3.5909,3.5885,3.5857,3.5807,3.5782,3.5727,3.5718,3.5658,3.5514,3.6516,3.7352,3.7632,3.8366,3.9299,3.9363,3.9099,3.8942,3.8778,3.853,3.8129,3.7738,3.7377,3.7017,3.6678,3.6326,3.6174,3.6062,3.5283,3.4399,3.37,3.3198,3.2321,3.1276,3.0208,2.9107,2.7551,2.6164,2.4637,2.2698,2.0611,1.8231,1.5959,1.497,1.423,1.3893,1.3398,1.3137,1.279,1.2357,1.1837,1.1413,1.0982,1.0636,1.0294,1.012,0.9951,0.9951,0.9685,0.9244,0.8536,0.7658,0.7041,0.6691,0.545,0.4565,0.4654,0.4476,2.0571,2.0129,2.0442,2.0431,2.0484,2.1616,2.2506,2.2957,2.3471,2.4067,2.4478,2.5879,2.6593,2.713,2.8003,2.8622,2.9074,2.9409,2.9677,2.9941,3.0172,3.0267,3.0418,3.0625,3.0931,3.1376,3.1731,3.2127,3.2816,3.3429,3.3787,3.4154,3.4564,3.4711,3.4851,3.4963,3.5235,3.5443,3.5538,3.562,3.5724,3.5813,3.5855,3.5892,3.5938,3.593,3.5956,3.5976,3.5966,3.5911,3.5889,3.5849,3.5803,3.5785,3.5776,3.5775,3.6095,3.6767,3.7141,3.7525,3.8131,3.8842,3.8984,3.9124,3.9074,3.8943,3.8783,3.8493,3.7954,3.754,3.7306,3.7038,3.6701,3.6474,3.6199,3.5526,3.4752,3.4268,3.37,3.2687,3.1592,3.0569,2.9421,2.8338,2.7018,2.582,2.4292,2.2286,2.0023,1.7679,1.5876,1.5137,1.4314,1.373,1.3307,1.296,1.2528,1.2009,1.1671,1.1241,1.0809,1.0467,1.012,0.9946,0.9859,0.9506,0.9152,0.8448,0.7746,0.7489,0.7048,0.5542,0.4389,0.4565,0.4297,1.9922,1.9605,1.966,1.9781,2.0107,2.1181,2.1949,2.2531,2.322,2.365,2.4073,2.5059,2.5957,2.6686,2.7354,2.7966,2.8732,2.9074,2.9319,2.9515,2.9798,3.0044,3.0156,3.0393,3.0764,3.1201,3.164,3.2039,3.2669,3.325,3.3652,3.3972,3.4316,3.452,3.4732,3.4908,3.5089,3.5285,3.5411,3.5495,3.56,3.5724,3.5791,3.5891,3.5938,3.5962,3.5999,3.6001,3.5976,3.5938,3.5919,3.5885,3.5823,3.581,3.5776,3.5773,3.5971,3.6451,3.6877,3.7151,3.7763,3.824,3.8365,3.8359,3.8489,3.8452,3.8779,3.886,3.8218,3.7733,3.7628,3.7487,3.7135,3.6803,3.6232,3.5677,3.5207,3.4833,3.3937,3.2886,3.1901,3.0896,2.9889,2.8876,2.8012,2.7098,2.5738,2.3765,2.1439,1.8919,1.7131,1.5951,1.4887,1.3984,1.3639,1.3215,1.279,1.2357,1.2015,1.1585,1.1068,1.0636,1.0294,0.9946,0.9685,0.9506,0.9419,0.8715,0.8189,0.7841,0.7404,0.6251,0.5097,0.4476,0.4121,1.9386,1.9473,1.8674,1.9065,2.0053,2.0716,2.1389,2.2063,2.2689,2.3397,2.391,2.4132,2.5092,2.609,2.662,2.7303,2.8079,2.8638,2.8982,2.9136,2.9649,2.993,3.0189,3.0443,3.0658,3.1004,3.1452,3.1986,3.2317,3.2908,3.3494,3.385,3.4087,3.4371,3.4751,3.4811,3.4945,3.5141,3.5235,3.5321,3.5481,3.5591,3.5697,3.5846,3.5875,3.5908,3.5964,3.5972,3.5972,3.5957,3.595,3.5916,3.5866,3.5826,3.5775,3.5755,3.5831,3.6076,3.6419,3.6627,3.7031,3.7408,3.7617,3.7699,3.7905,3.8003,3.8308,3.8458,3.783,3.7759,3.7699,3.7611,3.7377,3.6981,3.6481,3.6011,3.5543,3.5005,3.4087,3.3035,3.1894,3.0936,2.9894,2.8802,2.7827,2.7691,2.6588,2.4634,2.2961,2.0328,1.8497,1.696,1.5621,1.4643,1.4062,1.3639,1.3215,1.279,1.2277,1.1929,1.1585,1.1068,1.0467,1.012,0.9772,0.9859,0.9772,0.9157,0.8632,0.8281,0.7753,0.6871,0.5985,0.5275,0.4387,1.9198,1.9208,1.9008,1.9131,1.9428,2.0051,2.0738,2.1376,2.2039,2.2726,2.3334,2.3923,2.4557,2.5342,2.5903,2.6678,2.765,2.8158,2.8606,2.909,2.9515,2.9782,3.006,3.0231,3.051,3.0948,3.1418,3.2004,3.2486,3.2957,3.3339,3.3671,3.3902,3.4255,3.4668,3.4691,3.4851,3.5037,3.5157,3.5223,3.5336,3.5512,3.566,3.5724,3.5753,3.5845,3.5886,3.5917,3.5956,3.5976,3.5976,3.5954,3.5914,3.5836,3.5776,3.5766,3.5747,3.5901,3.5971,3.6103,3.6395,3.6766,3.7045,3.7329,3.7502,3.7466,3.7514,3.7596,3.7641,3.7682,3.7794,3.7682,3.7542,3.7155,3.6676,3.6264,3.5786,3.4964,3.4121,3.3057,3.1905,3.0889,2.9842,2.8876,2.7834,2.6916,2.5909,2.4674,2.3869,2.1951,1.988,1.8197,1.6495,1.5455,1.4803,1.3984,1.3476,1.3045,1.2534,1.2272,1.2015,1.1413,1.0809,1.0294,0.9951,1.0038,1.0038,0.9689,0.9248,0.8719,0.8372,0.7753,0.7224,0.6517,0.5453,1.8529,1.8741,1.8998,1.9131,1.9152,1.9512,2.0281,2.1135,2.1553,2.231,2.3258,2.359,2.4026,2.4705,2.5301,2.6068,2.7056,2.763,2.811,2.8638,2.9182,2.9499,2.9782,3.0044,3.0342,3.0764,3.1342,3.1968,3.2603,3.293,3.3178,3.3473,3.377,3.4136,3.452,3.4691,3.4851,3.5019,3.5124,3.519,3.5254,3.5451,3.5615,3.5649,3.5715,3.5794,3.5821,3.5864,3.5893,3.5957,3.5976,3.5976,3.5937,3.5867,3.5849,3.5819,3.5807,3.5803,3.5737,3.5776,3.5863,3.6215,3.6254,3.6504,3.643,3.6432,3.6881,3.6965,3.6681,3.664,3.747,3.7619,3.7535,3.729,3.6471,3.5792,3.5,3.4145,3.3482,3.2789,3.1776,3.0936,2.9899,2.8973,2.805,2.7414,2.6246,2.5269,2.446,2.3573,2.1511,1.9669,1.804,1.6456,1.5462,1.4559,1.3737,1.3222,1.2778,1.2431,1.2077,1.166,1.1154,1.0549,1.0207,1.012,1.0038,0.9864,0.9607,0.9165,0.8903,0.8732,0.8201,0.7496,0.6517,1.7988,1.8472,1.8942,1.9131,1.9131,1.9131,1.9911,2.1071,2.1198,2.2002,2.3245,2.3258,2.3631,2.4288,2.4827,2.5536,2.6269,2.7056,2.76,2.8094,2.8606,2.9166,2.9589,2.9826,3.0241,3.0764,3.1397,3.1896,3.242,3.2784,3.3117,3.3321,3.3733,3.4195,3.4467,3.4793,3.5072,3.5088,3.5155,3.5203,3.5311,3.5476,3.5565,3.5651,3.5704,3.5723,3.5776,3.5795,3.5825,3.5898,3.5957,3.5957,3.5957,3.5915,3.593,3.591,3.5884,3.5864,3.5806,3.5795,3.576,3.5745,3.5621,3.5585,3.5584,3.5767,3.6222,3.6217,3.5901,3.6171,3.6987,3.7395,3.7335,3.6986,3.6058,3.5174,3.426,3.3398,3.2934,3.2409,3.1598,3.0736,2.9907,2.8961,2.8166,2.7625,2.6914,2.6126,2.5281,2.4423,2.3029,2.1447,1.9893,1.83,1.6595,1.5418,1.4413,1.3594,1.3153,1.2559,1.2037,1.1645,1.123,1.0722,1.0463,1.0371,1.0207,0.9951,0.9689,0.9432,0.9257,0.8999,0.8472,0.7852,0.7316,1.8875,1.8931,1.9065,1.9131,1.9131,1.9131,1.9584,2.042,2.1135,2.1877,2.2677,2.3365,2.3872,2.4469,2.4553,2.5077,2.5797,2.6587,2.7181,2.762,2.8143,2.8919,2.9483,2.9722,3.0309,3.0868,3.1435,3.195,3.2266,3.2752,3.3196,3.3415,3.3707,3.4111,3.4467,3.4755,3.4981,3.5069,3.5239,3.5315,3.5311,3.5411,3.5509,3.5589,3.5673,3.5704,3.5706,3.5707,3.5747,3.5811,3.5898,3.5918,3.5937,3.5953,3.5984,3.5982,3.5946,3.5923,3.5883,3.5852,3.582,3.5718,3.566,3.5566,3.5521,3.5393,3.5682,3.5675,3.559,3.5927,3.6539,3.6726,3.6683,3.5977,3.5171,3.4408,3.3584,3.3069,3.259,3.1905,3.1098,3.0353,2.9623,2.8576,2.753,2.6911,2.6287,2.5558,2.5387,2.4873,2.4418,2.3051,2.1564,1.982,1.7977,1.6427,1.5368,1.4324,1.3291,1.2606,1.2052,1.1718,1.1337,1.0942,1.0677,1.0438,1.0274,1.0125,0.9777,0.9519,0.9345,0.9087,0.8652,0.8032,0.7231]},{"header":{"parameterUnit":"m.s-1","parameterCategory":1,"la1":31.0,"la2":29.5877,"lo1":-88.7671,"lo2":-86.6584,"dy":0.0162,"dx":0.0185,"nx":115,"ny":88,"refTime":"2024-09-13T06:00:00:Z","depth":0,"parameterNumber":3,"parameterNumberName":"V-component_of_WINDS"},"data":[0.0,0.0,0.0,0.0,0.0,0.0,0.0,0.0,0.0,0.0,0.0,0.0,0.0,0.0,0.0,0.0,0.0,0.0,0.0,0.0,0.0,0.0,0.0,0.0,0.0,0.0,0.0,0.0,0.0,0.0,0.0,0.0,0.0,0.0,0.0,0.0,0.0,0.0,0.0,0.0,0.0,0.0,0.0,0.0,0.0,0.0,0.0,0.0,0.0,0.0,0.0,0.0,0.0,0.0,0.0,0.0,0.0,0.0,0.0,0.0,0.0,0.0,0.0,0.0,0.0,0.0,0.0,0.0,0.0,0.0,0.0,0.0,0.0,0.0,0.0,0.0,0.0,0.0,0.0,0.0,0.0,0.0,0.0,0.0,0.0,0.0,0.0,0.0,0.0,0.0,0.0,0.0,0.0,0.0,0.0,0.0,0.0,0.0,0.0,0.0,0.0,0.0,0.0,0.0,0.0,0.0,0.0,0.0,0.0,0.0,0.0,0.0,0.0,0.0,0.0,0.0,0.0,0.0,0.0,0.0,0.0,0.0,0.0,0.0,0.0,0.0,0.0,0.0,0.0,0.0,0.0,0.0,0.0,0.0,0.0,0.0,0.0,0.0,0.0,0.0,0.0,0.0,0.0,0.0,0.0,0.0,0.0,0.0,0.0,0.0,0.0,0.0,0.0,0.0,0.0,0.0,0.0,0.0,0.0,0.0,0.0,0.0,0.0,0.0,0.0,0.0,0.0,0.0,0.0,0.0,0.0,0.0,0.0,0.0,0.0,0.0,0.0,0.0,0.0,0.0,0.0,0.0,0.0,0.0,0.0,0.0,0.0,0.0,0.0,0.0,0.0,0.0,0.0,0.0,0.0,0.0,0.0,0.0,0.0,0.0,0.0,0.0,0.0,0.0,0.0,0.0,0.0,0.0,0.0,0.0,0.0,0.0,0.0,0.0,0.0,0.0,0.0,0.0,0.0,0.0,0.0,0.0,0.0,0.0,0.0,0.0,0.0,0.0,0.0,0.0,0.0,0.0,0.0,0.0,0.0,0.0,0.0,0.0,0.0,0.0,0.0,0.0,0.0,0.0,0.0,0.0,0.0,0.0,0.0,0.0,0.0,0.0,0.0,0.0,0.0,0.0,0.0,0.0,0.0,0.0,0.0,0.0,0.0,0.0,0.0,0.0,0.0,0.0,0.0,0.0,0.0,0.0,0.0,0.0,0.0,0.0,0.0,0.0,0.0,0.0,0.0,0.0,0.0,0.0,0.0,0.0,0.0,0.0,0.0,0.0,0.0,0.0,0.0,0.0,0.0,0.0,0.0,0.0,0.0,0.0,0.0,0.0,0.0,0.0,0.0,0.0,0.0,0.0,0.0,0.0,0.0,0.0,0.0,0.0,0.0,0.0,0.0,0.0,0.0,0.0,0.0,0.0,0.0,0.0,0.0,0.0,0.0,0.0,0.0,0.0,0.0,0.0,0.0,0.0,0.0,0.0,0.0,0.0,0.0,0.0,0.0,0.0,0.0,0.0,0.0,0.0,0.0,0.0,0.0,0.0,0.0,0.0,0.0,0.0,0.0,0.0,0.0,0.0,0.0,0.0,0.0,0.0,0.0,0.0,0.0,0.0,0.0,0.0,0.0,0.0,0.0,0.0,0.0,0.0,0.0,0.0,0.0,0.0,0.0,0.0,0.0,0.0,0.0,0.0,0.0,0.0,0.0,0.0,0.0,0.0,0.0,0.0,0.0,0.0,0.0,0.0,0.0,0.0,0.0,0.0,0.0,0.0,0.0,0.0,0.0,0.0,0.0,0.0,0.0,0.0,0.0,0.0,0.0,0.0,0.0,0.0,0.0,0.0,0.0,0.0,0.0,0.0,0.0,0.0,0.0,0.0,0.0,0.0,0.0,0.0,0.0,0.0,0.0,0.0,0.0,0.0,0.0,0.0,0.0,0.0,0.0,0.0,0.0,0.0,0.0,0.0,0.0,0.0,0.0,0.0,0.0,0.0,0.0,0.0,0.0,0.0,0.0,0.0,0.0,0.0,0.0,0.0,0.0,0.0,0.0,0.0,0.0,0.0,0.0,0.0,0.0,0.0,0.0,0.0,0.0,0.0,0.0,0.0,0.0,0.0,0.0,0.0,0.0,0.0,0.0,0.0,0.0,0.0,0.0,0.0,0.0,0.0,0.0,0.0,0.0,0.0,0.0,0.0,0.0,0.0,0.0,0.0,0.0,0.0,0.0,0.0,0.0,0.0,0.0,0.0,0.0,0.0,0.0,0.0,0.0,0.0,0.0,0.0,0.0,0.0,0.0,0.0,0.0,0.0,0.0,0.0,0.0,0.0,0.0,0.0,0.0,0.0,0.0,0.0,0.0,0.0,0.0,0.0,0.0,0.0,0.0,0.0,0.0,0.0,0.0,0.0,0.0,0.0,0.0,0.0,0.0,0.0,0.0,0.0,0.0,0.0,0.0,0.0,0.0,0.0,0.0,0.0,0.0,0.0,0.0,0.0,0.0,0.0,0.0,0.0,0.0,0.0,0.0,0.0,0.0,0.0,0.0,0.0,0.0,0.0,0.0,0.0,0.0,0.0,0.0,0.0,0.0,0.0,0.0,0.0,0.0,0.0,0.0,0.0,0.0,0.0,0.0,0.0,0.0,0.0,0.0,0.0,0.0,0.0,0.0,0.0,0.0,0.0,0.0,0.0,0.0,0.0,0.0,0.0,0.0,0.0,0.0,0.0,0.0,0.0,0.0,0.0,0.0,0.0,0.0,0.0,0.0,0.0,0.0,0.0,0.0,0.0,0.0,0.0,0.0,0.0,0.0,0.0,0.0,0.0,0.0,0.0,0.0,0.0,0.0,0.0,0.0,0.0,0.0,0.0,0.0,0.0,0.0,0.0,0.0,0.0,0.0,0.0,0.0,0.0,0.0,0.0,0.0,0.0,0.0,0.0,0.0,0.0,0.0,0.0,0.0,0.0,0.0,0.0,0.0,0.0,0.0,0.0,0.0,0.0,0.0,0.0,0.0,0.0,0.0,0.0,0.0,0.0,0.0,0.0,0.0,0.0,0.0,0.0,0.0,0.0,0.0,0.0,0.0,0.0,0.0,0.0,0.0,0.0,0.0,0.0,0.0,0.0,0.0,0.0,0.0,0.0,0.0,0.0,0.0,0.0,0.0,0.0,0.0,0.0,0.0,0.0,0.0,0.0,0.0,0.0,0.0,0.0,0.0,0.0,0.0,0.0,0.0,0.0,0.0,0.0,0.0,0.0,0.0,0.0,0.0,0.0,0.0,0.0,0.0,0.0,0.0,0.0,0.0,0.0,0.0,0.0,0.0,0.0,0.0,0.0,0.0,0.0,0.0,0.0,0.0,0.0,0.0,0.0,0.0,0.0,0.0,0.0,0.0,0.0,0.0,0.0,0.0,0.0,0.0,0.0,0.0,0.0,0.0,0.0,0.0,0.0,0.0,0.0,0.0,0.0,0.0,0.0,0.0,0.0,0.0,0.0,0.0,0.0,0.0,0.0,0.0,0.0,0.0,0.0,0.0,0.0,0.0,0.0,0.0,0.0,0.0,0.0,0.0,0.0,0.0,0.0,0.0,0.0,0.0,0.0,0.0,0.0,0.0,0.0,0.0,0.0,0.0,0.0,0.0,0.0,0.0,0.0,0.0,0.0,0.0,0.0,0.0,0.0,0.0,0.0,0.0,0.0,0.0,0.0,0.0,0.0,0.0,0.0,0.0,0.0,0.0,0.0,0.0,0.0,0.0,0.0,0.0,0.0,0.0,0.0,0.0,0.0,0.0,0.0,0.0,0.0,0.0,0.0,0.0,0.0,0.0,0.0,0.0,0.0,0.0,0.0,0.0,0.0,0.0,0.0,0.0,0.0,0.0,0.0,0.0,0.0,0.0,0.0,0.0,0.0,0.0,0.0,0.0,0.0,0.0,0.0,0.0,0.0,0.0,0.0,0.0,0.0,0.0,0.0,0.0,0.0,0.0,0.0,0.0,0.0,0.0,0.0,0.0,0.0,0.0,0.0,0.0,0.0,0.0,0.0,0.0,0.0,0.0,0.0,0.0,0.0,0.0,0.0,0.0,0.0,0.0,0.0,0.0,0.0,0.0,0.0,0.0,0.0,0.0,0.0,0.0,0.0,0.0,0.0,0.0,0.0,0.0,0.0,0.0,0.0,0.0,0.0,0.0,0.0,0.0,0.0,0.0,0.0,0.0,0.0,0.0,0.0,0.0,0.0,0.0,0.0,0.0,0.0,0.0,0.0,1.1312,0.0,0.0,0.0,0.0,0.0,0.0,0.0,0.0,0.0,0.0,0.0,0.0,0.0,0.0,0.0,0.0,0.0,0.0,0.0,0.0,0.0,0.0,0.0,0.0,0.0,0.0,0.0,0.0,0.0,0.0,0.0,0.0,0.0,0.0,0.0,0.0,0.0,0.0,0.0,0.0,0.0,0.0,0.0,0.0,0.0,0.0,0.0,0.0,0.0,0.0,0.0,0.0,0.0,0.0,0.0,0.0,0.0,0.0,0.0,0.0,0.0,0.0,0.0,0.0,0.0,0.0,0.0,0.0,0.0,0.0,0.0,0.0,0.0,0.0,0.0,0.0,0.0,0.0,0.0,0.0,0.0,0.0,0.0,0.0,0.0,0.0,0.0,0.0,0.0,0.0,0.0,0.0,0.0,0.0,0.0,0.0,0.0,0.0,0.0,0.0,0.0,0.0,0.0,0.0,0.0,0.0,0.0,0.0,0.0,0.0,1.299,1.3396,1.3087,1.2385,1.1326,0.0,0.0,0.0,0.0,0.0,0.0,0.0,0.0,0.0,0.0,0.0,0.0,0.0,0.0,0.0,0.0,0.0,0.0,0.0,0.0,0.0,0.0,0.0,0.0,0.0,0.0,0.0,0.0,0.0,0.0,0.0,0.0,0.0,0.0,0.0,0.0,0.0,0.0,0.0,0.0,0.0,0.0,0.0,0.0,0.0,0.0,0.0,0.0,0.0,0.0,0.0,0.0,0.0,0.0,0.0,0.0,0.0,0.0,0.0,0.0,0.0,0.0,0.0,0.0,0.0,0.0,0.0,0.0,0.0,0.0,0.0,0.0,0.0,0.0,0.0,0.0,0.0,0.0,0.0,0.0,0.0,0.0,0.0,0.0,0.0,0.0,0.0,0.0,0.0,0.0,0.0,0.0,0.0,0.0,0.0,0.0,0.0,0.0,0.0,0.0,0.0,0.0,0.0,0.0,0.0,0.0,0.0,0.0,0.0,0.0,0.0,0.0,1.3343,1.2844,1.215,0.0,0.0,0.0,0.0,0.0,0.0,0.0,0.0,0.0,0.0,0.0,0.0,0.0,0.0,0.0,0.0,0.0,0.0,0.0,0.0,0.0,0.0,0.0,0.0,0.0,0.0,0.0,0.0,0.0,0.0,0.0,0.0,0.0,0.0,0.0,0.0,0.0,0.0,0.0,0.0,0.0,0.0,0.0,0.0,0.0,0.0,0.0,0.0,0.0,0.0,0.0,0.0,0.0,0.0,0.0,0.0,0.0,0.0,0.0,0.0,0.0,0.0,0.0,0.0,0.0,0.0,0.0,0.0,0.0,0.0,0.0,0.0,0.0,0.0,0.0,0.0,0.0,0.0,0.0,0.0,0.0,0.0,0.0,0.0,0.0,0.0,0.0,0.0,0.0,0.0,0.0,0.0,0.0,0.0,0.0,0.0,0.0,0.0,0.0,0.0,0.0,0.0,0.0,0.0,0.0,0.0,0.0,0.0,0.0,0.0,1.2973,1.436,1.5081,0.0,1.4519,0.0,0.0,0.0,0.0,0.0,0.0,0.0,0.0,0.0,0.0,0.0,0.0,0.0,0.0,0.0,0.0,0.0,0.0,0.0,0.0,0.0,0.0,0.0,0.0,0.0,0.0,0.0,0.0,0.0,0.0,0.0,0.0,0.0,0.0,0.0,0.0,0.0,0.0,0.0,0.0,0.0,0.0,0.0,0.0,0.0,0.0,0.0,0.0,0.0,0.0,0.0,0.0,0.0,0.0,0.0,0.0,0.0,0.0,0.0,0.0,0.0,0.0,0.0,0.0,0.0,0.0,0.0,0.0,0.0,0.0,0.0,0.0,0.0,0.0,0.0,0.0,0.0,0.0,0.0,0.0,0.0,0.0,0.0,0.0,0.0,0.0,0.0,0.0,0.0,0.0,0.0,0.0,0.0,0.0,0.0,0.0,0.0,0.0,0.0,0.0,0.0,0.0,0.0,0.0,0.0,0.0,0.0,0.0,0.0,0.0,1.3447,1.4477,1.4449,1.4127,0.0,0.0,0.0,0.0,0.0,0.0,0.0,0.0,0.0,0.0,0.0,0.0,0.0,0.0,0.0,0.0,0.0,0.0,0.0,0.0,0.0,0.0,0.0,0.0,0.0,0.0,0.0,0.0,0.0,0.0,0.0,0.0,0.0,0.0,0.0,0.0,0.0,0.0,0.0,0.0,0.0,0.0,0.0,0.0,0.0,0.0,0.0,0.0,0.0,0.0,0.0,0.0,0.0,0.0,0.0,0.0,0.0,0.0,0.0,0.0,0.0,0.0,0.0,0.0,0.0,0.0,0.0,0.0,0.0,0.0,0.0,0.0,0.0,0.0,0.0,0.0,0.0,0.0,0.0,0.0,0.0,0.0,0.0,0.0,0.0,0.0,0.0,0.0,0.0,0.0,0.0,0.0,0.0,0.0,0.0,0.0,0.0,0.0,0.0,0.0,0.0,0.0,0.0,0.0,0.0,0.0,0.0,0.0,0.0,0.0,1.2975,0.0,1.5058,1.4519,1.3647,1.2552,0.0,0.0,0.0,0.0,0.0,0.0,0.0,0.0,0.0,0.0,0.0,0.0,0.0,0.0,0.0,0.0,0.0,0.0,0.0,0.0,0.0,0.0,0.0,0.0,0.0,0.0,0.0,0.0,0.0,0.0,0.0,0.0,0.0,0.0,0.0,0.0,0.0,0.0,0.0,0.0,0.0,0.0,0.0,0.0,0.0,0.0,0.0,0.0,0.0,0.0,0.0,0.0,0.0,0.0,0.0,0.0,0.0,0.0,0.0,0.0,0.0,0.0,0.0,0.0,0.0,0.0,0.0,0.0,0.0,0.0,0.0,0.0,0.0,0.0,0.0,0.0,0.0,0.0,0.0,0.0,0.0,0.0,0.0,0.0,0.0,0.0,0.0,0.0,0.0,0.0,0.0,0.0,0.0,0.0,0.0,0.0,0.0,0.0,0.0,0.0,0.0,0.0,0.0,0.0,0.0,0.0,0.0,0.0,0.0,1.3969,1.4482,1.6686,1.6134,1.4762,0.0,0.0,0.0,0.0,0.0,0.0,0.0,0.0,0.0,0.0,0.0,0.0,0.0,0.0,0.0,0.0,0.0,0.0,0.0,0.0,0.0,0.0,0.0,0.0,0.0,0.0,0.0,0.0,0.0,0.0,0.0,0.0,0.0,0.0,0.0,0.0,0.0,0.0,0.0,0.0,0.0,0.0,0.0,0.0,0.0,0.0,0.0,0.0,0.0,0.0,0.0,0.0,0.0,0.0,0.0,0.0,0.0,0.0,0.0,0.0,0.0,0.0,0.0,0.0,0.0,0.0,0.0,0.0,0.0,0.0,0.0,0.0,0.0,0.0,0.0,0.0,0.0,0.0,0.0,0.0,0.0,0.0,0.0,0.0,0.0,0.0,0.0,0.0,0.0,0.0,0.0,0.0,0.0,0.0,0.0,0.0,0.0,0.0,0.0,0.0,0.0,0.0,0.0,0.0,0.0,0.0,0.0,0.0,0.0,1.0938,1.2101,1.4518,1.8061,1.5327,1.3954,0.0,0.0,0.0,0.0,0.0,0.0,0.0,0.0,0.0,0.0,0.0,0.0,0.0,0.0,0.0,0.0,0.0,0.0,0.0,0.0,0.0,0.0,0.0,0.0,0.0,0.0,0.0,0.0,0.0,0.0,0.0,0.0,0.0,0.0,0.0,0.0,0.0,0.0,0.0,0.0,0.0,0.0,0.0,0.0,0.0,0.0,0.0,0.0,0.0,0.0,0.0,0.0,0.0,0.0,0.0,0.0,0.0,0.0,0.0,0.0,0.0,0.0,0.0,0.0,0.0,0.0,0.0,0.0,0.0,0.0,0.0,0.0,0.0,0.0,0.0,0.0,0.0,0.0,0.0,0.0,0.0,0.0,0.0,0.0,0.0,0.0,0.0,0.0,0.0,0.0,0.0,0.0,0.0,0.0,0.0,0.0,0.0,0.0,0.0,0.0,0.0,0.0,0.0,0.0,0.0,0.0,0.0,0.0,0.0,1.0814,0.0,1.5564,0.0,1.5138,1.3609,0.0,0.0,0.0,0.0,0.0,0.0,0.0,0.0,0.0,0.0,0.0,0.0,0.0,0.0,0.0,0.0,0.0,0.0,0.0,0.0,0.0,0.0,0.0,0.0,0.0,0.0,0.0,0.0,0.0,0.0,0.0,0.0,0.0,0.0,0.0,0.0,0.0,0.0,0.0,0.0,0.0,0.0,0.0,0.0,0.0,0.0,0.0,0.0,0.0,0.0,0.0,0.0,0.0,0.0,0.0,0.0,0.0,0.0,0.0,0.0,0.0,0.0,0.0,0.0,0.0,0.0,0.0,0.0,0.0,0.0,0.0,0.0,0.0,0.0,0.0,0.0,0.0,0.0,0.0,0.0,0.0,0.0,0.0,0.0,0.0,0.0,0.0,0.0,0.0,0.0,0.0,0.0,0.0,0.0,0.0,0.0,0.0,0.0,0.0,0.0,0.0,0.0,0.0,0.0,0.0,0.0,0.0,0.0,1.0758,1.5348,1.735,1.753,1.5921,1.5793,1.3795,0.0,0.0,0.0,0.0,0.0,0.0,0.0,0.0,0.0,0.0,0.0,0.0,0.0,0.0,0.0,0.0,0.0,0.0,0.0,0.0,0.0,0.0,0.0,0.0,0.0,0.0,0.0,0.0,0.0,0.0,0.0,0.0,0.0,0.0,0.0,0.0,0.0,0.0,0.0,0.0,0.0,0.0,0.0,0.0,0.0,0.0,0.0,0.0,0.0,0.0,0.0,0.0,0.0,0.0,0.0,0.0,0.0,0.0,0.0,0.0,0.0,0.0,0.0,0.0,0.0,0.0,0.0,0.0,0.0,0.0,0.0,0.0,0.0,0.0,0.0,0.0,0.0,0.0,0.0,0.0,0.0,0.0,0.0,0.0,0.0,0.0,0.0,0.0,0.0,0.0,0.0,0.0,0.0,0.0,0.0,0.0,0.0,0.0,0.0,0.0,0.0,0.0,0.0,0.0,0.0,0.0,0.0,0.0,0.0,1.2102,1.4938,1.6749,1.7292,1.5416,1.4239,0.0,0.0,0.0,0.0,0.0,0.0,0.0,0.0,0.0,0.0,0.0,0.0,0.0,0.0,0.0,0.0,0.0,0.0,0.0,0.0,0.0,0.0,0.0,0.0,0.0,0.0,0.0,0.0,0.0,0.0,0.0,0.0,0.0,0.0,0.0,0.0,0.0,0.0,0.0,0.0,0.0,0.0,0.0,0.0,0.0,0.0,0.0,0.0,0.0,0.0,0.0,0.0,0.0,0.0,0.0,0.0,0.0,0.0,0.0,0.0,0.0,0.0,0.0,0.0,0.0,0.0,0.0,0.0,0.0,0.0,0.0,0.0,0.0,0.0,0.0,0.0,0.0,0.0,0.0,0.0,0.0,0.0,0.0,0.0,0.0,0.0,0.0,0.0,0.0,0.0,0.0,0.0,0.0,0.0,0.0,0.0,0.0,0.0,0.0,0.0,0.0,0.0,0.0,0.0,0.0,0.0,0.0,0.0,0.0,1.376,1.6353,1.8483,1.9886,1.6761,1.498,1.4752,0.0,0.0,0.0,0.0,0.0,0.0,0.0,0.0,0.0,0.0,0.0,0.0,0.0,0.0,0.0,0.0,0.0,0.0,0.0,0.0,0.0,0.0,0.0,0.0,0.0,0.0,0.0,0.0,0.0,0.0,0.0,0.0,0.0,0.0,0.0,0.0,0.0,0.0,0.0,0.0,0.0,0.0,0.0,0.0,0.0,0.0,0.0,0.0,0.0,0.0,0.0,0.0,0.0,0.0,0.0,0.0,0.0,0.0,0.0,0.0,0.0,0.0,0.0,0.0,0.0,0.0,0.0,0.0,0.0,0.0,0.0,0.0,0.0,0.0,0.0,0.0,0.0,0.0,0.0,0.0,0.0,0.0,0.0,0.0,0.0,0.0,0.0,0.0,0.0,0.0,0.0,0.0,0.0,0.0,0.0,0.0,0.0,0.0,0.0,0.0,0.0,0.0,0.0,0.0,0.0,0.0,0.0,0.0,1.9081,2.0847,2.2112,2.2883,1.9367,1.6043,0.0,0.0,0.0,0.0,0.0,0.0,0.0,0.0,0.0,0.0,0.0,0.0,0.0,0.0,0.0,0.0,0.0,0.0,0.0,0.0,0.0,0.0,0.0,0.0,0.0,0.0,0.0,0.0,0.0,0.0,0.0,0.0,0.0,0.0,0.0,0.0,0.0,0.0,0.0,0.0,0.0,0.0,0.0,0.0,0.0,0.0,0.0,0.0,0.0,0.0,0.0,0.0,0.0,0.0,0.0,0.0,0.0,0.0,0.0,0.0,0.0,0.0,0.0,0.0,0.0,0.0,0.0,0.0,0.0,0.0,0.0,0.0,0.0,0.0,0.0,0.0,0.0,0.0,0.0,0.0,0.0,0.0,0.0,0.0,0.0,0.0,0.0,0.0,0.0,0.0,0.0,0.0,0.0,0.0,0.0,0.0,0.0,0.0,0.0,0.0,0.0,0.0,0.0,0.0,0.0,0.0,0.0,0.0,0.0,2.0592,2.19,2.2746,2.3206,2.0601,1.8249,0.0,0.0,0.0,0.0,0.0,0.0,0.0,0.0,0.0,0.0,0.0,0.0,0.0,0.0,0.0,0.0,0.0,0.0,0.0,0.0,0.0,0.0,0.0,0.0,0.0,0.0,0.0,0.0,0.0,0.0,0.0,0.0,0.0,0.0,0.0,0.0,0.0,0.0,0.0,0.0,0.0,0.0,0.0,0.0,0.0,0.0,0.0,0.0,0.0,0.0,0.0,0.0,0.0,0.0,0.0,0.0,0.0,0.0,0.0,0.0,0.0,0.0,0.0,0.0,0.0,0.0,0.0,0.0,0.0,0.0,0.0,0.0,0.0,0.0,0.0,0.0,0.0,0.0,0.0,0.0,0.0,0.0,0.0,0.0,0.0,0.0,0.0,0.0,0.0,0.0,0.0,0.0,0.0,0.0,0.0,0.0,0.0,0.0,0.0,0.0,0.0,0.0,0.0,0.0,0.0,0.0,0.0,0.0,1.9085,2.2042,2.2794,2.3436,2.4052,2.1753,1.9592,0.0,0.0,0.0,0.0,0.0,0.0,0.0,0.0,0.0,0.0,0.0,0.0,0.0,0.0,0.0,0.0,0.0,0.0,0.0,0.0,0.0,0.0,0.0,0.0,0.0,0.0,0.0,0.0,0.0,0.0,0.0,0.0,0.0,0.0,0.0,0.0,0.0,0.0,0.0,0.0,0.0,0.0,0.0,0.0,0.0,0.0,0.0,0.0,0.0,0.0,0.0,0.0,0.0,0.0,0.0,0.0,0.0,0.0,0.0,0.0,0.0,0.0,0.0,0.0,0.0,0.0,0.0,0.0,0.0,0.0,0.0,0.0,0.0,0.0,0.0,0.0,0.0,0.0,0.0,0.0,0.0,0.0,0.0,0.0,0.0,0.0,0.0,0.0,0.0,0.0,0.0,0.0,0.0,0.0,0.0,0.0,0.0,0.0,0.0,0.0,0.0,0.0,0.0,0.0,0.0,0.0,0.0,0.0,2.0797,2.3035,2.3544,2.4176,2.4925,2.2781,2.0409,0.0,0.0,0.0,0.0,0.0,0.0,0.0,0.0,0.0,0.0,0.0,0.0,0.0,0.0,0.0,0.0,0.0,0.0,0.0,0.0,0.0,0.0,0.0,0.0,0.0,0.0,0.0,0.0,0.0,0.0,0.0,0.0,0.0,0.0,0.0,0.0,0.0,0.0,0.0,0.0,0.0,0.0,0.0,0.0,0.0,0.0,0.0,0.0,0.0,0.0,0.0,0.0,0.0,0.0,0.0,0.0,0.0,0.0,0.0,0.0,0.0,0.0,0.0,0.0,0.0,0.0,0.0,0.0,0.0,0.0,0.0,0.0,0.0,0.0,0.0,0.0,0.0,0.0,0.0,0.0,0.0,0.0,0.0,0.0,0.0,0.0,0.0,0.0,0.0,0.0,0.0,0.0,0.0,0.0,0.0,0.0,0.0,0.0,0.0,0.0,0.0,0.0,0.0,0.0,0.0,0.0,0.0,0.0,2.1921,2.2583,2.419,2.5122,2.5309,2.3431,2.1279,0.0,0.0,0.0,0.0,0.0,0.0,0.0,0.0,0.0,0.0,0.0,0.0,0.0,0.0,0.0,0.0,0.0,0.0,0.0,0.0,0.0,0.0,0.0,0.0,0.0,0.0,0.0,0.0,0.0,0.0,0.0,0.0,0.0,0.0,0.0,0.0,0.0,0.0,0.0,0.0,0.0,0.0,0.0,0.0,0.0,0.0,0.0,0.0,1.8056,0.0,0.0,0.0,0.0,0.0,0.0,0.0,0.0,0.0,0.0,0.0,0.0,0.0,0.0,0.0,0.0,0.0,0.0,0.0,0.0,0.0,0.0,0.0,0.0,0.0,0.0,0.0,0.0,0.0,0.0,0.0,0.0,0.0,0.0,0.0,0.0,0.0,0.0,0.0,0.0,0.0,0.0,0.0,0.0,0.0,0.0,0.0,0.0,0.0,0.0,0.0,0.0,0.0,0.0,0.0,0.0,0.0,0.0,0.0,2.2872,2.3892,2.4635,2.5224,2.5575,2.4386,2.2319,0.0,0.0,0.0,0.0,0.0,0.0,0.0,0.0,0.0,0.0,0.0,0.0,0.0,0.0,0.0,0.0,0.0,0.0,0.0,0.0,0.0,0.0,0.0,0.0,0.0,0.0,0.0,0.0,0.0,0.0,0.0,0.0,0.0,0.0,0.0,0.0,0.0,0.0,0.0,0.0,0.0,0.0,0.0,0.0,0.0,0.0,0.0,0.0,0.0,0.0,0.0,0.0,0.0,0.0,0.0,0.0,0.0,0.0,0.0,0.0,0.0,0.0,0.0,0.0,0.0,0.0,0.0,0.0,0.0,0.0,0.0,0.0,0.0,0.0,0.0,0.0,0.0,0.0,0.0,0.0,0.0,0.0,0.0,0.0,0.0,0.0,0.0,0.0,0.0,0.0,0.0,0.0,0.0,0.0,0.0,0.0,0.0,0.0,0.0,0.0,0.0,0.0,0.0,0.0,0.0,0.0,0.0,2.1116,2.3658,2.5553,2.5155,2.5223,2.5943,2.5308,2.3239,1.9629,0.0,0.0,0.0,0.0,0.0,0.0,0.0,0.0,0.0,0.0,0.0,0.0,0.0,0.0,0.0,0.0,0.0,0.0,0.0,0.0,0.0,0.0,0.0,0.0,0.0,0.0,0.0,0.0,0.0,0.0,0.0,0.0,0.0,0.0,0.0,0.0,0.0,0.0,1.694,1.8392,0.0,0.0,0.0,0.0,0.0,0.0,0.0,0.0,1.9684,0.0,0.0,0.0,0.0,0.0,0.0,0.0,0.0,0.0,0.0,0.0,0.0,0.0,0.0,0.0,0.0,0.0,0.0,0.0,0.0,0.0,0.0,0.0,0.0,0.0,0.0,0.0,0.0,0.0,0.0,0.0,0.0,0.0,0.0,0.0,0.0,0.0,0.0,0.0,0.0,0.0,0.0,0.0,0.0,0.0,0.0,0.0,0.0,0.0,0.0,0.0,0.0,0.0,0.0,0.0,0.0,2.0871,2.2251,2.3921,2.5944,2.6065,2.6167,2.6293,2.562,2.3563,2.0086,0.0,0.0,0.0,0.0,0.0,0.0,0.0,0.0,0.0,0.0,0.0,0.0,0.0,0.0,0.0,0.0,0.0,0.0,0.0,0.0,0.0,0.0,0.0,0.0,0.0,0.0,0.0,0.0,0.0,0.0,0.0,0.0,0.0,0.0,0.0,0.0,0.0,0.0,0.0,2.0408,2.1023,0.0,0.0,0.0,0.0,0.0,0.0,0.0,0.0,2.0293,0.0,0.0,0.0,0.0,0.0,0.0,0.0,0.0,0.0,0.0,0.0,0.0,0.0,0.0,0.0,0.0,0.0,0.0,0.0,0.0,0.0,0.0,0.0,0.0,0.0,0.0,0.0,0.0,0.0,0.0,0.0,0.0,0.0,0.0,0.0,0.0,0.0,0.0,0.0,0.0,0.0,0.0,0.0,0.0,0.0,0.0,0.0,0.0,0.0,0.0,0.0,0.0,0.0,0.0,0.0,2.0517,2.2887,2.4637,2.5688,2.5846,2.5952,2.5955,2.4768,2.2868,0.0,0.0,0.0,0.0,0.0,0.0,0.0,0.0,0.0,0.0,0.0,0.0,0.0,0.0,0.0,0.0,0.0,0.0,0.0,0.0,0.0,0.0,0.0,0.0,0.0,0.0,0.0,0.0,0.0,0.0,0.0,0.0,0.0,0.0,0.0,0.0,0.0,0.0,0.0,0.0,2.1205,2.1621,2.2055,0.0,0.0,0.0,0.0,0.0,0.0,2.1288,2.0834,0.0,0.0,0.0,0.0,0.0,0.0,0.0,0.0,0.0,0.0,0.0,0.0,0.0,0.0,0.0,0.0,0.0,0.0,0.0,0.0,0.0,0.0,0.0,0.0,0.0,0.0,0.0,0.0,0.0,0.0,0.0,0.0,0.0,0.0,0.0,0.0,0.0,0.0,0.0,0.0,0.0,0.0,0.0,0.0,0.0,0.0,0.0,0.0,0.0,0.0,0.0,0.0,0.0,0.0,0.0,1.9561,2.2882,2.4897,2.5411,2.5503,2.5574,2.559,2.428,2.2507,0.0,0.0,0.0,0.0,0.0,0.0,0.0,0.0,0.0,0.0,0.0,0.0,0.0,0.0,0.0,0.0,0.0,0.0,0.0,0.0,0.0,0.0,0.0,0.0,0.0,0.0,0.0,0.0,0.0,0.0,0.0,0.0,0.0,0.0,0.0,0.0,0.0,0.0,0.0,0.0,0.0,2.2202,2.2835,2.2799,0.0,0.0,0.0,0.0,2.2955,2.2247,0.0,0.0,0.0,0.0,0.0,0.0,0.0,0.0,0.0,0.0,0.0,0.0,0.0,0.0,0.0,0.0,0.0,0.0,0.0,0.0,0.0,0.0,0.0,0.0,0.0,0.0,0.0,0.0,0.0,0.0,0.0,0.0,0.0,0.0,0.0,0.0,0.0,0.0,0.0,0.0,0.0,0.0,0.0,0.0,0.0,0.0,0.0,0.0,0.0,0.0,0.0,0.0,0.0,0.0,0.0,0.0,1.8945,2.1605,2.3824,2.5464,2.5641,2.5681,2.5697,2.5502,2.3808,0.0,0.0,0.0,0.0,0.0,0.0,0.0,0.0,0.0,0.0,0.0,0.0,0.0,0.0,0.0,0.0,0.0,0.0,0.0,0.0,0.0,0.0,0.0,0.0,0.0,0.0,0.0,0.0,0.0,0.0,0.0,0.0,0.0,0.0,0.0,0.0,0.0,0.0,0.0,0.0,0.0,2.3578,2.3668,2.3125,2.2908,0.0,0.0,2.3069,2.4502,2.3446,0.0,0.0,0.0,0.0,0.0,0.0,0.0,0.0,0.0,0.0,0.0,0.0,0.0,0.0,0.0,0.0,0.0,0.0,0.0,0.0,0.0,0.0,0.0,0.0,0.0,0.0,0.0,0.0,0.0,0.0,0.0,0.0,0.0,0.0,0.0,0.0,0.0,0.0,0.0,0.0,0.0,0.0,0.0,0.0,0.0,0.0,0.0,0.0,0.0,0.0,0.0,0.0,0.0,0.0,0.0,1.6474,1.9572,2.2673,2.4693,2.5512,2.5603,2.5646,2.5627,2.4252,2.2285,0.0,0.0,0.0,0.0,0.0,0.0,0.0,0.0,0.0,0.0,0.0,0.0,0.0,0.0,0.0,0.0,0.0,0.0,0.0,0.0,0.0,0.0,0.0,0.0,0.0,0.0,0.0,0.0,0.0,0.0,0.0,0.0,0.0,0.0,0.0,0.0,0.0,0.0,0.0,0.0,0.0,0.0,2.3855,2.4324,0.0,0.0,0.0,2.4755,2.4954,0.0,0.0,0.0,0.0,0.0,0.0,0.0,0.0,0.0,0.0,0.0,0.0,0.0,0.0,0.0,0.0,0.0,0.0,0.0,0.0,0.0,0.0,0.0,0.0,0.0,0.0,0.0,0.0,0.0,0.0,0.0,0.0,0.0,0.0,0.0,0.0,0.0,0.0,0.0,0.0,0.0,0.0,0.0,0.0,0.0,0.0,0.0,0.0,0.0,0.0,0.0,0.0,0.0,0.0,0.0,0.0,0.0,1.9094,2.3286,2.549,2.551,2.5541,2.5601,2.5582,2.3559,0.0,0.0,0.0,0.0,0.0,0.0,0.0,0.0,0.0,0.0,0.0,0.0,0.0,0.0,0.0,0.0,0.0,0.0,0.0,0.0,0.0,0.0,0.0,0.0,0.0,0.0,0.0,0.9739,0.0,0.0,0.0,0.0,0.0,0.0,0.0,0.0,0.0,0.0,0.0,0.0,0.0,0.0,2.4561,2.4622,2.5969,2.6822,0.0,0.0,2.6277,2.6204,2.556,2.4635,0.0,0.0,0.0,0.0,0.0,0.0,0.0,0.0,0.0,0.0,0.0,0.0,0.0,0.0,0.0,0.0,0.0,0.0,0.0,0.0,0.0,0.0,0.0,0.0,0.0,0.0,0.0,0.0,0.0,0.0,0.0,0.0,0.0,0.0,0.0,0.0,0.0,0.0,0.0,0.0,0.0,0.0,0.0,0.0,0.0,0.0,0.0,0.0,0.0,0.0,0.0,0.0,0.0,0.0,0.0,1.6451,2.2291,2.5395,2.5499,2.5507,2.5574,2.5668,2.4754,2.3013,0.0,0.0,0.0,0.0,0.0,0.0,0.0,0.0,0.0,0.0,0.0,0.0,0.0,0.0,0.0,0.0,0.0,0.0,0.0,0.0,0.0,0.0,0.0,0.0,0.0,0.0,0.0,0.0,0.0,0.0,0.0,0.0,0.0,0.0,0.0,0.0,0.0,0.0,0.0,0.0,0.0,2.652,2.6596,2.7985,2.9218,0.0,0.0,2.7226,2.917,2.7091,2.515,2.4867,0.0,0.0,0.0,0.0,0.0,0.0,0.0,0.0,0.0,0.0,0.0,0.0,0.0,0.0,0.0,0.0,0.0,0.0,0.0,0.0,0.0,0.0,0.0,0.0,0.0,0.0,0.0,0.0,0.0,0.0,0.0,0.0,0.0,0.0,0.0,0.0,0.0,0.0,0.0,0.0,0.0,0.0,0.0,0.0,0.0,0.0,0.0,0.0,0.0,0.0,0.0,0.0,0.0,1.3746,1.8506,2.0839,2.3114,2.534,2.5511,2.5576,2.5581,2.4767,2.3131,0.0,0.0,0.0,0.0,0.0,0.0,0.0,0.0,0.0,0.0,0.0,0.0,0.0,0.0,0.0,0.0,0.0,0.0,0.0,0.0,0.0,0.0,0.0,0.0,0.0,0.0,0.0,0.0,1.3581,1.4431,1.4792,0.0,0.0,0.0,0.0,0.0,0.0,0.0,0.0,0.0,0.0,2.7155,2.8353,2.9434,0.0,0.0,3.0153,2.9604,2.8876,2.7793,2.6465,2.4892,2.4023,0.0,0.0,0.0,0.0,0.0,0.0,0.0,0.0,0.0,0.0,0.0,0.0,0.0,0.0,0.0,0.0,0.0,0.0,0.0,0.0,0.0,0.0,0.0,0.0,0.0,0.0,0.0,0.0,0.0,0.0,0.0,0.0,0.0,0.0,0.0,0.0,0.0,0.0,0.0,0.0,0.0,0.0,0.0,0.0,0.0,0.0,0.0,0.0,0.0,0.0,0.0,0.0,1.1364,1.6583,1.8788,2.1165,2.3741,2.4944,2.5554,2.5515,2.4724,2.332,0.0,0.0,0.0,0.0,0.0,0.0,0.0,0.0,0.0,0.0,0.0,0.0,0.0,0.0,0.0,0.0,0.0,0.0,0.0,0.0,0.0,0.0,0.0,0.0,0.0,0.0,0.0,0.0,1.4583,1.5243,1.5288,0.0,0.0,0.0,0.0,0.0,0.0,0.0,0.0,0.0,0.0,2.8615,3.0244,3.1318,3.1936,3.1898,3.1745,3.1044,2.9427,2.863,2.7587,2.58,0.0,0.0,0.0,0.0,0.0,0.0,0.0,0.0,0.0,0.0,0.0,0.0,0.0,0.0,0.0,0.0,0.0,0.0,0.0,0.0,0.0,0.0,0.0,0.0,0.0,0.0,0.0,0.0,0.0,0.0,0.2192,0.0,0.0,0.0,0.0,0.0,0.0,0.0,0.0,0.0,0.0,0.0,0.0,0.0,0.0,0.0,0.0,0.0,0.0,0.0,0.0,0.0,0.0,0.0,0.8752,1.6143,2.0011,2.0272,2.3647,2.5551,2.5574,2.469,2.3791,2.289,0.0,0.0,0.0,0.0,0.0,0.0,0.0,0.0,0.0,0.0,0.0,0.0,0.0,0.0,0.0,0.0,0.0,0.0,0.0,0.0,0.0,0.0,0.0,0.0,0.0,0.0,1.3,1.4349,1.5288,0.0,0.0,0.0,0.0,0.0,0.0,0.0,0.0,0.0,0.0,2.886,3.1345,3.2307,3.377,3.4604,3.4563,3.26,3.1166,3.1533,2.983,2.8315,0.0,0.0,0.0,0.0,0.0,0.0,0.0,0.0,0.0,0.0,0.0,0.0,0.0,0.0,0.0,0.0,0.0,0.0,0.0,0.0,0.0,0.0,0.0,0.0,0.0,0.0,0.0,0.2358,0.2472,0.0,0.0,0.0,0.0,0.0,0.0,0.0,0.0,0.0,0.0,0.0,0.5087,0.4606,0.0,0.0,0.0,0.0,0.0,0.0,0.0,0.0,0.0,0.0,0.0,0.0,0.6893,1.0562,1.4423,1.7593,2.0059,2.3672,2.5581,2.56,2.5201,2.4038,2.2049,0.0,0.0,0.0,0.0,0.0,0.0,0.0,0.0,0.0,0.0,0.0,0.0,0.0,0.0,0.0,0.0,0.0,0.0,0.0,0.0,0.0,0.0,0.0,0.0,0.0,1.3904,0.0,0.0,0.0,0.0,0.0,0.0,0.0,0.0,0.0,0.0,0.0,2.6664,2.8875,3.0313,3.1922,3.4001,3.3792,3.3815,0.0,0.0,0.0,0.0,0.0,0.0,0.0,0.0,0.0,0.0,0.0,0.0,0.0,0.0,2.9024,2.493,2.3619,2.3194,2.3194,0.0,0.0,0.0,0.0,0.0,0.0,0.0,0.0,0.0,0.0,0.0,0.0,0.0,0.0,0.2221,0.0,0.207,0.0,0.0,0.0,0.0,0.0,0.0,0.0,0.0,0.4252,0.4689,0.5408,0.5079,0.5293,0.0,0.5376,0.4794,0.0,0.0,0.0,0.0,0.0,0.0,0.0,0.0,0.5087,0.8765,1.2634,1.578,1.8236,2.3033,2.56,2.5605,2.5467,2.4451,2.2464,2.1133,1.9483,0.0,0.0,0.0,0.0,0.0,0.0,0.0,0.0,0.0,0.0,0.0,0.0,0.0,0.0,0.0,0.0,0.0,0.0,0.0,0.0,0.0,0.0,0.0,1.5048,0.0,0.0,0.0,0.0,0.0,0.0,0.0,0.0,0.0,2.4469,2.706,2.9861,3.2032,3.2477,3.3242,3.4964,0.0,0.0,0.0,0.0,0.0,0.0,0.0,3.2364,3.1743,3.1334,3.1223,3.1468,3.2392,3.2845,3.19,0.0,0.0,2.7772,2.6554,2.6245,2.6264,2.7346,2.8338,2.8631,2.9779,3.0838,0.0,0.0,0.0,0.0,0.0,0.0,0.0,0.0,0.1787,0.1955,0.0,0.1935,0.0,0.0,0.0,0.0,0.0,0.3346,0.0,0.0,0.4408,0.5081,0.555,0.5895,0.6145,0.6182,0.59,0.5443,0.4857,0.4448,0.0,0.0,0.0,0.0,0.0,0.0,0.3219,0.3759,1.0687,1.4481,1.4875,2.1609,2.5396,2.5581,2.5311,2.4795,2.4139,2.3331,2.1778,1.9308,1.7532,0.0,0.0,0.0,0.0,0.0,0.0,0.0,0.0,0.0,0.0,0.0,0.0,0.0,0.0,0.0,0.0,0.0,0.0,0.0,0.0,1.4727,0.0,0.0,0.0,0.0,0.0,0.0,0.0,0.0,0.0,0.0,2.7727,3.0461,3.3268,3.4966,0.0,0.0,0.0,0.0,3.525,3.5295,3.5255,3.5488,3.6179,3.5571,3.5002,3.4927,0.0,0.0,3.5097,3.5003,3.4794,3.396,3.4471,3.4314,3.2472,3.1114,3.0374,3.0369,3.1038,3.1942,3.2681,3.3371,3.434,0.1677,0.0,0.0,0.0,0.0,0.1907,0.1978,0.1662,0.2393,0.2528,0.2297,0.2438,0.0,0.0,0.0,0.0,0.0,0.0,0.4404,0.482,0.5133,0.5615,0.6151,0.6037,0.6125,0.6258,0.5969,0.5798,0.5571,0.5313,0.4674,0.3649,0.0,0.0,0.0,0.0,0.3587,0.3821,0.8322,1.2061,1.4566,1.834,2.1967,2.5348,2.2868,2.2551,2.4783,2.4158,2.3149,2.1828,1.9592,0.0,0.0,0.0,0.0,0.0,0.0,0.0,0.0,0.0,0.0,0.0,0.0,0.0,0.0,0.0,0.0,0.0,0.0,0.0,1.5304,1.6504,1.7842,0.0,0.0,0.0,0.0,0.0,0.0,0.0,0.0,0.0,3.3525,3.4599,3.5488,0.0,0.0,3.6986,3.6986,3.6489,3.6356,3.6892,0.0,0.0,0.0,3.6501,3.6084,3.6595,3.6879,3.6955,3.6727,3.7182,3.7334,3.6481,3.695,3.7071,3.597,3.4383,3.3283,3.3189,3.3796,3.4427,3.4705,3.5379,3.6036,0.0113,0.0356,0.0871,0.0949,0.0765,0.1368,0.1457,0.1279,0.2154,0.245,0.2411,0.2681,0.2775,0.2815,0.2939,0.0,0.0,0.0,0.4266,0.4736,0.5397,0.5872,0.6218,0.6524,0.6675,0.6727,0.6306,0.6125,0.6121,0.5759,0.5246,0.438,0.0,0.0,0.3717,0.3824,0.3871,0.3981,0.7424,1.0372,1.2484,1.671,2.0111,2.2407,2.222,2.3093,2.5168,2.4812,2.421,2.3392,2.1612,1.9686,0.0,0.0,0.0,0.0,0.0,0.0,0.0,0.0,0.0,0.0,0.0,1.2902,1.0957,0.0,0.0,0.0,1.4481,1.6552,1.8922,1.9687,0.0,0.0,0.0,0.0,0.0,0.0,0.0,3.1392,3.4073,3.6139,3.7186,3.7717,3.7963,3.7852,3.8059,3.8094,3.7731,0.0,3.7158,3.7636,3.7578,3.7753,3.8442,3.8156,3.7966,3.834,3.8414,3.8395,3.8395,3.8831,3.8982,3.8603,3.8769,3.8893,3.8357,3.722,3.6138,3.5472,3.5919,3.6426,3.6445,3.7095,3.7652,-0.093,-0.0795,0.0541,0.0674,0.0061,0.0674,0.0613,0.0307,0.1414,0.2033,0.2219,0.2709,0.2968,0.3067,0.3125,0.0,0.3261,0.3355,0.3578,0.3875,0.5336,0.6097,0.6219,0.7231,0.7624,0.7375,0.6764,0.6462,0.6406,0.5981,0.5656,0.5428,0.4989,0.4604,0.429,0.4131,0.4149,0.4271,0.7285,0.9052,0.9522,1.6129,1.9386,1.8911,2.2801,2.5058,2.5367,2.5332,2.4947,2.4226,2.3423,2.1924,1.953,0.0,0.0,0.0,0.0,0.0,0.0,0.0,0.0,0.0,0.0,0.0,0.0,0.0,0.0,0.0,1.8587,0.0,2.3182,2.3641,0.0,0.0,0.0,2.6437,2.9776,3.1616,3.3292,3.504,0.0,0.0,3.9088,0.0,4.0329,4.0329,3.9603,3.882,3.8018,3.796,3.7903,3.7999,3.861,3.9299,3.9812,3.9906,3.9808,3.974,3.9889,3.9794,3.9775,3.9813,3.987,3.9775,3.987,3.981,3.9739,3.9416,3.9008,3.7392,3.7553,3.7968,3.7968,3.8469,3.8934,-0.0974,-0.0967,-0.0614,-0.054,-0.0633,0.0059,0.0476,0.0833,0.1706,0.234,0.277,0.2954,0.3188,0.3598,0.335,0.3331,0.3535,0.3682,0.4391,0.5491,0.6078,0.6729,0.7514,0.7777,0.7747,0.7442,0.7131,0.6874,0.6737,0.6419,0.601,0.5655,0.5366,0.509,0.4773,0.4704,0.4657,0.4568,0.515,0.7055,1.0496,1.4053,1.8391,2.3534,2.2068,2.2496,2.5177,2.5253,2.5178,2.5078,2.4321,2.3353,2.2179,1.8984,0.0,0.0,0.0,0.0,0.0,0.0,0.0,0.0,0.0,1.7683,1.3669,0.0,1.9244,0.0,2.1249,2.314,2.4066,2.5466,0.0,0.0,2.9734,3.1143,3.5248,3.5034,3.5448,3.7754,3.8611,3.924,3.9928,4.0177,4.0329,4.031,4.0138,3.9909,3.9699,3.968,3.9699,3.968,3.9757,3.9967,4.004,4.0015,3.9951,3.9892,3.9889,3.9889,3.9889,3.9889,3.9889,3.9889,3.9889,3.9889,3.9867,3.9758,3.951,3.897,3.8861,3.8804,3.8822,3.8971,3.9101,-0.0988,-0.0987,-0.0974,-0.077,-0.0517,-0.0415,-0.0,0.0601,0.1039,0.1723,0.259,0.2999,0.3418,0.3786,0.3587,0.3554,0.3738,0.4126,0.4813,0.5679,0.64,0.712,0.7787,0.7922,0.7917,0.7722,0.7484,0.7222,0.6881,0.6478,0.6102,0.5754,0.5557,0.5343,0.5119,0.4945,0.4857,0.4793,0.4414,0.6384,1.0763,1.3325,1.8075,2.5102,2.3466,2.328,2.5253,2.5244,2.5071,2.4838,2.4428,2.3881,2.3092,2.0501,1.8547,0.0,0.0,0.0,0.0,0.0,0.0,0.0,0.0,0.0,0.0,0.0,2.2029,2.2364,2.52,2.739,2.8278,2.9719,3.1504,3.3677,3.3563,3.4641,3.7889,3.7448,3.7599,3.9355,3.9584,3.9775,4.0253,4.0329,4.0329,4.0329,4.0329,4.0329,4.0329,4.0329,4.0329,4.031,4.0272,4.0215,4.0117,4.0015,3.9933,3.9911,3.9889,3.9889,3.9889,3.9889,3.9889,3.9889,3.9889,3.9889,3.9889,3.9804,3.967,3.958,3.9357,3.9192,3.9129,3.9101,3.9101,-0.1062,-0.0997,-0.0971,-0.0597,-0.0178,-0.0736,-0.0556,0.0184,0.0122,0.092,0.2285,0.304,0.351,0.3727,0.372,0.3784,0.385,0.4389,0.486,0.5321,0.6453,0.7186,0.7591,0.7792,0.7922,0.7922,0.7766,0.7433,0.6876,0.6412,0.6083,0.5954,0.5752,0.5554,0.5415,0.5104,0.4904,0.4884,0.4458,0.6432,1.0846,1.3349,1.8125,2.5119,2.5459,2.5395,2.5385,2.5274,2.4908,2.43,2.4304,2.4069,2.343,2.1766,2.0742,0.0,1.8973,0.0,0.0,0.0,0.0,0.0,0.0,0.0,0.0,2.3776,2.5023,2.632,2.9622,3.2164,3.3387,3.4566,3.5856,3.73,3.6996,3.7299,3.8861,3.9146,3.947,4.0215,4.0329,4.0329,4.031,4.0329,4.0329,4.0329,4.0329,4.0329,4.0329,4.0329,4.0329,4.0329,4.0272,4.0215,4.0117,4.0036,3.9954,3.9911,3.9889,3.9889,3.9889,3.9889,3.9889,3.9889,3.9889,3.9889,3.9889,3.9804,3.9735,3.9693,3.9502,3.9298,3.9165,3.9129,3.9101,-0.1258,-0.1059,-0.1053,-0.0959,-0.0859,-0.0949,-0.0311,0.077,0.0297,0.1144,0.2837,0.3036,0.3239,0.3573,0.3381,0.3441,0.3693,0.3788,0.4592,0.5994,0.5944,0.6601,0.7852,0.7722,0.7587,0.7591,0.7349,0.7086,0.6881,0.6548,0.6284,0.6148,0.5954,0.5752,0.555,0.0,0.0,0.0,0.4562,0.6673,1.0994,1.3507,1.8165,2.511,2.541,0.0,2.5322,2.5241,2.5165,2.5082,2.5127,0.0,0.0,0.0,0.0,0.0,0.0,0.0,0.0,0.0,0.0,0.0,2.598,2.5644,2.4615,2.7661,3.0069,3.0847,3.2902,3.4302,3.4566,3.6122,3.7205,3.7547,3.8117,3.8879,3.991,4.0024,4.0138,4.0272,4.0329,4.0329,4.0329,4.0329,4.0329,4.0329,4.0329,4.0329,4.0329,4.0329,4.0329,4.0291,4.0215,4.0117,4.0017,3.9954,3.9933,3.9889,3.9889,3.9889,3.987,3.9889,3.9889,3.9889,3.9889,3.9889,3.9889,3.987,3.9826,3.9698,3.9575,3.9427,3.9298,3.9183,3.9101,-0.1261,0.0,-0.1104,-0.0878,0.0,-0.091,-0.0444,0.043,-0.0119,0.0475,0.1988,0.2707,0.3034,0.314,0.3265,0.3447,0.3635,0.3995,0.4614,0.5438,0.5665,0.6203,0.6929,0.6863,0.6802,0.6798,0.6815,0.6753,0.6618,0.6486,0.635,0.6214,0.602,0.5822,0.5617,0.5491,0.5259,0.4987,0.472,0.6548,1.0538,1.3374,1.7371,2.2585,0.0,0.0,0.0,0.0,0.0,0.0,0.0,0.0,0.0,0.0,0.0,2.4853,2.4463,2.4313,2.4546,2.5045,2.6343,2.8637,2.9994,2.9939,2.8146,3.0722,3.273,3.3431,3.5116,3.631,3.6765,3.7962,3.8743,3.8802,3.9242,3.9757,4.0158,4.0272,4.031,4.0329,4.0329,4.0329,4.0329,4.0329,4.0329,4.0329,4.0329,4.031,4.0329,4.0329,4.0272,4.0253,4.0215,4.0117,4.0036,4.0039,3.9998,3.9935,3.9956,3.9975,3.9892,3.9889,3.9889,3.9889,3.9889,3.9889,3.9889,3.9889,3.9848,3.9717,3.958,3.9458,3.9324,3.9192,3.9101,-0.1257,-0.1254,-0.1156,-0.0853,-0.0422,-0.088,-0.0727,-0.0325,0.0,0.0,0.0,0.2289,0.2791,0.2724,0.3153,0.3397,0.3464,0.4074,0.4514,0.4712,0.5394,0.5807,0.5943,0.6079,0.6148,0.6148,0.6284,0.642,0.642,0.642,0.635,0.6214,0.602,0.5822,0.5554,0.5425,0.5428,0.5355,0.4912,0.6096,0.9059,1.2987,1.6192,1.8587,2.334,2.5459,2.4605,2.5264,2.5343,2.4725,2.4786,2.5188,2.5886,2.6052,2.6755,2.8065,2.8192,2.8228,2.8255,2.8349,2.9147,3.0867,3.2909,3.3432,3.1777,3.3201,3.4491,3.5306,3.6747,3.7959,3.8831,3.9494,3.9933,3.9996,4.0077,4.0157,4.0196,4.0273,4.0329,4.0329,4.0329,4.0329,4.0329,4.0329,4.0272,4.0291,4.0291,4.0272,4.0272,4.0291,4.0253,4.0234,4.0176,4.0118,4.0038,4.0059,4.006,3.9914,3.9979,4.002,3.9935,3.9889,3.9889,3.9889,3.9889,3.9889,3.9889,3.9889,3.9848,3.9735,3.9599,3.9458,3.9305,3.9192,3.9082,-0.1478,-0.1245,-0.124,-0.1208,-0.1088,-0.1179,-0.1084,-0.0895,-0.0444,0.0181,0.0939,0.1586,0.2204,0.2728,0.2784,0.2843,0.2969,0.314,0.3709,0.0,0.4832,0.5345,0.6079,0.6284,0.6354,0.6354,0.6354,0.642,0.642,0.642,0.635,0.6214,0.6017,0.5756,0.5425,0.5428,0.5428,0.5362,0.4942,0.49,0.5225,1.2221,1.4848,1.3082,2.2308,2.5668,2.2001,2.535,2.7324,2.7275,2.7344,2.7467,2.7646,2.7718,2.7918,2.8237,2.8238,2.8525,2.9258,2.9907,3.1287,3.3431,3.451,3.4568,3.3608,3.4963,3.6274,3.7072,3.7943,3.8831,3.9627,3.9878,3.9975,4.0015,4.0117,4.0196,4.0196,4.0253,4.0329,4.0329,4.0329,4.0329,4.0329,4.0329,4.0272,4.0215,4.0253,4.0272,4.0234,4.0234,4.0215,4.0196,4.0098,4.0017,3.9996,3.9956,3.9956,3.9892,3.9914,3.9956,3.9933,3.9892,3.9892,3.9889,3.9892,3.9911,3.9911,3.9889,3.9826,3.9735,3.958,3.9477,3.9324,3.921,3.9101,-0.1415,-0.1336,-0.1336,-0.1319,-0.1216,-0.1213,-0.1187,-0.1143,-0.0826,-0.0458,-0.0,0.1215,0.2216,0.284,0.2893,0.2893,0.2958,0.303,0.3279,0.3728,0.3881,0.4156,0.4556,0.4891,0.509,0.5156,0.5686,0.5951,0.5947,0.6148,0.6284,0.6214,0.5885,0.5624,0.5428,0.5428,0.5428,0.5428,0.503,0.4734,0.4659,0.9848,1.1901,1.0442,1.947,2.3391,2.1338,2.5385,2.7701,2.7752,2.7852,2.8116,2.8635,2.876,2.9039,2.9578,3.0029,3.043,3.0829,3.2005,3.3134,3.4145,3.4927,3.5362,3.5321,3.5909,3.6635,3.7471,3.8287,3.9102,3.9901,3.9996,4.0017,4.0038,4.0157,4.0196,4.0196,4.0253,4.0329,4.0329,4.0329,4.0329,4.0329,4.0329,4.0291,4.0215,4.0215,4.0176,4.0157,4.0118,4.0098,4.0096,4.0057,3.9996,3.9954,4.006,4.008,4.002,4.008,4.0081,4.004,4.0,3.9958,3.9914,3.9956,3.9977,3.9914,3.9889,3.9804,3.9623,3.9551,3.9427,3.9245,3.9156,3.9129,-0.1883,-0.1883,-0.1649,-0.1492,-0.1256,-0.1232,-0.1209,-0.1187,-0.1179,-0.1137,-0.0804,0.071,0.2026,0.3022,0.2873,0.2799,0.2993,0.3056,0.3089,0.3099,0.3315,0.336,0.3426,0.3959,0.4159,0.4292,0.515,0.5617,0.5617,0.6013,0.6214,0.6083,0.5752,0.5491,0.5428,0.5428,0.5428,0.5362,0.5027,0.4761,0.4872,0.8099,0.9445,0.8891,1.6191,2.0389,2.0547,2.4507,2.7258,2.8204,2.8376,2.875,2.9396,2.9586,3.0028,3.0895,3.1629,3.2196,3.2608,3.3698,3.4454,3.4535,3.5117,3.5801,3.6485,3.6642,3.6994,3.7814,3.867,3.941,3.9963,4.0057,4.0057,4.0096,4.0157,4.0196,4.0196,4.0253,4.0329,4.0329,4.0329,4.0329,4.0329,4.0329,4.0272,4.0196,4.0137,4.0096,4.0077,4.0017,4.0015,3.9994,3.9975,3.9954,3.9933,4.0081,4.0157,4.012,4.0213,4.0212,4.0157,4.0158,4.01,4.0019,4.002,4.002,3.9914,3.9889,3.9781,3.958,3.9508,3.9427,3.9183,3.9101,3.9129,-0.3521,-0.3443,-0.2743,-0.1962,-0.1413,-0.1332,-0.1327,-0.1321,-0.1219,-0.1204,-0.1185,-0.0354,0.1297,0.3133,0.234,0.2317,0.3021,0.3087,0.3095,0.317,0.3647,0.3894,0.3892,0.442,0.4749,0.4749,0.5286,0.5484,0.555,0.6086,0.6222,0.5888,0.5561,0.5428,0.5428,0.5428,0.5428,0.5428,0.5027,0.4761,0.5048,0.8738,0.8871,0.5,1.3208,1.7769,1.7979,2.1814,2.5954,2.9605,3.003,3.0087,3.0194,3.0308,3.082,3.17,3.1987,3.2733,3.416,3.4443,3.4789,3.5379,3.5469,3.5824,3.6596,3.7261,3.7978,3.8709,3.9508,3.9944,4.0058,4.0096,4.0077,4.0117,4.0157,4.0196,4.0196,4.0253,4.0329,4.0329,4.0329,4.0329,4.0329,4.0291,4.0253,4.0215,4.0098,4.0015,4.0015,3.9996,3.9975,3.9933,3.9911,3.9911,3.9892,4.002,4.012,4.0101,4.0212,4.0264,4.0264,4.0283,4.0248,4.012,4.012,4.0081,3.9958,3.9889,3.9826,3.9628,3.9508,3.9427,3.9165,3.9101,3.9129,-0.3832,-0.3752,-0.3443,-0.3052,-0.282,-0.2741,-0.2508,-0.2038,-0.1942,-0.1703,-0.1314,-0.0985,0.0073,0.148,0.1393,0.1525,0.1867,0.2316,0.2502,0.2568,0.3234,0.3496,0.356,0.3758,0.3889,0.3889,0.4359,0.4818,0.5216,0.5749,0.5954,0.5752,0.5491,0.5428,0.5428,0.5428,0.5428,0.5359,0.503,0.4761,0.4929,0.6216,0.6186,0.5125,1.0287,1.4853,1.7472,2.1427,2.5703,2.9866,3.0279,3.0272,3.0318,3.0829,3.1352,3.1878,3.2957,3.407,3.5176,3.5304,3.5435,3.5706,3.566,3.6095,3.7291,3.7686,3.828,3.9433,3.9907,4.0117,4.0118,4.0077,4.0077,4.0176,4.0215,4.0215,4.0234,4.0291,4.031,4.0329,4.0329,4.0329,4.0291,4.0253,4.0196,4.0157,4.0038,3.9996,3.9954,3.9951,3.9933,3.9911,3.9889,3.9889,3.9911,4.0,4.012,4.0194,4.0247,4.0298,4.038,4.0415,4.0367,4.0248,4.0266,4.0266,4.0157,4.0041,3.9958,3.9747,3.9483,3.9324,3.911,3.9101,3.9101,-0.4479,-0.4457,-0.4222,-0.3986,-0.3832,-0.3832,-0.3443,-0.2899,-0.2899,-0.251,-0.204,-0.1961,-0.1462,-0.0522,0.0295,0.0808,0.1097,0.1562,0.1888,0.2161,0.2654,0.3025,0.3159,0.3226,0.3226,0.3293,0.3761,0.4225,0.4683,0.5084,0.5286,0.502,0.4888,0.4891,0.5093,0.509,0.516,0.5289,0.4964,0.4761,0.4761,0.4498,0.4303,0.4581,0.7344,1.1094,1.5421,1.8495,2.2747,2.8176,2.8435,2.8993,3.0215,3.1078,3.1823,3.255,3.3952,3.5076,3.5708,3.5801,3.5773,3.5655,3.5747,3.6369,3.7417,3.7861,3.8556,3.969,4.0017,4.0098,4.0157,4.0077,4.0098,4.0215,4.0196,4.0215,4.0234,4.0253,4.0272,4.0272,4.0291,4.0329,4.0291,4.0253,4.0176,4.0157,4.0077,3.9996,3.9954,3.9933,3.9933,3.9892,3.9889,3.9889,3.9911,4.0,4.0139,4.023,4.0283,4.038,4.0477,4.0526,4.0511,4.0419,4.0481,4.045,4.0283,4.0176,4.0062,3.9859,3.9609,3.9324,3.9129,3.9101,3.9101,-0.6304,-0.6032,-0.5315,-0.4611,-0.3832,-0.3908,-0.383,-0.3754,-0.3752,-0.3677,-0.3599,-0.3599,-0.3203,-0.2257,-0.0762,0.0378,0.0974,0.1007,0.1405,0.1958,0.2183,0.2621,0.3159,0.3226,0.3228,0.3226,0.3694,0.4092,0.4287,0.4217,0.3885,0.362,0.3551,0.3682,0.4287,0.4422,0.4619,0.5024,0.4891,0.4827,0.4761,0.4498,0.43,0.4359,0.4581,0.6998,1.0819,1.1422,1.5375,2.379,2.4209,2.5885,2.9519,3.093,3.2334,3.4022,3.4944,3.5465,3.571,3.5731,3.5527,3.528,3.5854,3.6466,3.6801,3.7794,3.8726,3.9481,3.9848,4.0036,4.0077,4.0057,4.0077,4.0098,4.0176,4.0157,4.0117,4.0215,4.0253,4.0234,4.0253,4.0291,4.0291,4.0253,4.0196,4.0176,4.0137,4.0077,3.9996,3.9996,3.9954,3.9911,3.9911,3.9889,3.9911,3.9998,4.0061,4.0157,4.0317,4.0462,4.0559,4.0607,4.0574,4.0559,4.0559,4.0496,4.0351,4.0229,4.0082,3.9903,3.9683,3.9439,3.9245,3.9137,3.9101,-0.7481,-0.771,-0.6381,-0.5915,-0.6079,-0.5604,-0.5065,-0.4613,-0.4613,-0.4297,-0.383,-0.383,-0.3599,-0.3287,-0.2175,-0.1162,-0.0463,0.0075,0.0729,0.1436,0.1917,0.257,0.3171,0.3283,0.3281,0.3232,0.3426,0.3625,0.382,0.3949,0.3818,0.3487,0.3284,0.3351,0.3618,0.4084,0.442,0.4553,0.4824,0.4957,0.496,0.4761,0.4631,0.4634,0.4367,0.645,1.0979,1.0833,1.3514,1.9482,2.2574,2.5024,2.6863,3.0719,3.3502,3.4659,3.5213,3.5493,3.5543,3.5675,3.5215,3.4216,3.5531,3.6198,3.6072,3.7328,3.875,3.9373,3.9758,3.9933,3.9954,3.9973,4.0015,4.0077,4.0077,4.0077,4.0098,4.0137,4.0176,4.0196,4.0253,4.0329,4.0291,4.0272,4.0234,4.0196,4.0176,4.0137,4.0077,4.0017,3.9996,3.9954,3.9933,3.9889,3.9889,3.9914,4.0,4.0139,4.03,4.045,4.0564,4.0574,4.0559,4.0668,4.0668,4.0654,4.053,4.0434,4.0283,4.0043,3.9816,3.9614,3.9401,3.9272,3.9165,-0.8285,-0.8479,-0.7367,-0.7222,-0.7778,-0.7138,-0.6605,-0.6234,-0.616,-0.577,-0.5074,-0.4993,-0.4686,-0.4144,-0.3522,-0.2899,-0.2033,-0.0995,-0.0075,0.0663,0.1242,0.1856,0.2435,0.2814,0.2952,0.2975,0.3176,0.3243,0.317,0.3374,0.3166,0.2758,0.2618,0.2672,0.2927,0.3396,0.3722,0.3964,0.4422,0.4758,0.4764,0.487,0.4962,0.4971,0.4801,0.5913,0.8969,0.8791,1.072,1.5132,1.8574,2.1197,2.356,2.8783,3.2271,3.3035,3.325,3.4089,3.5226,3.556,3.4898,3.3407,3.5213,3.6114,3.5013,3.6989,3.8577,3.9258,3.9599,3.9781,3.9889,3.9889,3.9933,4.0015,4.0015,3.9996,4.0036,4.0057,4.0118,4.0196,4.0234,4.0272,4.0272,4.0291,4.0253,4.0215,4.0215,4.0176,4.0098,4.0057,3.9996,3.9975,3.9933,3.9911,3.9914,3.9956,4.002,4.0158,4.0266,4.0403,4.0564,4.0559,4.0621,4.0746,4.079,4.079,4.0765,4.066,4.0473,4.0213,4.0043,3.9861,3.9637,3.9408,3.9331,-0.8713,-0.877,-0.8134,-0.8295,-0.8623,-0.8291,-0.8291,-0.8389,-0.8546,-0.8003,-0.7242,-0.7326,-0.6318,-0.5312,-0.4846,-0.4457,-0.3505,-0.1992,-0.0833,-0.015,0.0,0.0511,0.1228,0.1887,0.2177,0.2237,0.2976,0.2976,0.2313,0.2309,0.2022,0.1379,0.1374,0.1713,0.2169,0.2375,0.2556,0.3061,0.3724,0.3984,0.4113,0.4691,0.5168,0.5395,0.5284,0.5205,0.4998,0.4956,0.7007,1.0683,1.1725,1.4198,2.0439,2.5221,2.8115,2.8979,2.9171,3.1189,3.4204,3.469,3.3863,3.2237,3.471,3.5255,3.4109,3.6422,3.8552,3.8962,3.9338,3.9623,3.9826,3.9889,3.9911,3.993,3.9973,3.9975,3.9954,4.0015,4.0117,4.0176,4.0215,4.0215,4.0253,4.0234,4.0215,4.0234,4.0215,4.0176,4.0098,4.0077,4.0036,3.9954,3.9911,3.9911,3.9956,4.0019,4.008,4.0139,4.0248,4.0386,4.0564,4.0621,4.0668,4.0778,4.079,4.079,4.079,4.0687,4.0598,4.0386,4.0229,4.0063,3.9882,3.9683,3.9561,-0.952,-1.0282,-0.9954,-0.9658,-0.9609,-1.026,-0.9959,-0.8775,-0.914,-0.8917,-0.8318,-0.7714,-0.7169,-0.6553,-0.5547,-0.4846,-0.4453,-0.2874,-0.169,-0.106,-0.0381,0.03,0.088,0.1259,0.1406,0.1385,0.16,0.1673,0.1531,0.1459,0.1312,0.1239,0.1167,0.1307,0.1585,0.1941,0.2288,0.249,0.3193,0.3547,0.3617,0.4356,0.4808,0.4888,0.5212,0.5328,0.5256,0.5074,0.5731,0.7292,1.0516,1.5022,2.0265,2.2894,2.413,2.5039,2.7594,2.8058,2.7603,2.9834,2.9682,2.7204,2.9282,3.105,3.1094,3.4636,3.748,3.8548,3.9181,3.9551,3.9642,3.9804,3.9848,3.9889,3.993,3.9933,3.9911,3.9975,4.0057,4.0098,4.0137,4.0157,4.0196,4.0176,4.0137,4.0157,4.0176,4.0176,4.0117,4.0096,4.0057,3.9975,3.9954,3.9933,3.9998,4.008,4.0158,4.0232,4.03,4.0419,4.0593,4.0687,4.0733,4.0759,4.079,4.079,4.079,4.0733,4.0626,4.0515,4.0367,4.0211,4.0082,3.9944,3.9794,-1.1106,-1.1706,-1.1446,-1.123,-1.1111,-1.2083,-1.1632,-1.0351,-1.0409,-1.011,-0.9448,-0.8699,-0.8246,-0.7706,-0.6549,-0.5931,-0.5699,-0.4224,-0.3182,-0.2529,-0.1087,-0.0231,0.0225,0.0532,0.0912,0.105,0.1122,0.1047,0.0899,0.0899,0.1049,0.12,0.1274,0.1416,0.1628,0.2066,0.2281,0.2334,0.2835,0.3127,0.3352,0.4035,0.4496,0.4719,0.5205,0.5606,0.5757,0.5677,0.5651,0.6439,1.0491,1.4618,1.7023,1.8617,2.0225,2.1363,2.3123,2.4271,2.4007,2.6431,2.6237,2.3575,2.6178,2.8513,2.9136,3.2835,3.6236,3.7379,3.8365,3.8971,3.9034,3.9238,3.9427,3.9537,3.9781,3.987,3.9911,3.9951,3.9994,4.0036,4.0038,4.0098,4.0118,4.0117,4.0096,4.0077,4.0098,4.0118,4.0077,4.0077,4.0036,3.9996,3.9954,3.9956,4.0,4.0101,4.023,4.0317,4.0383,4.0549,4.072,4.072,4.0746,4.0778,4.079,4.079,4.079,4.0746,4.0673,4.0564,4.0466,4.0403,4.0285,4.012,3.9982,-1.3187,-1.2928,-1.2558,-1.2492,-1.2826,-1.3309,-1.3155,-1.2673,-1.2224,-1.1545,-1.0795,-0.9986,-0.9387,-0.8703,-0.7783,-0.7322,-0.7169,-0.5696,-0.4766,-0.4133,-0.2663,-0.1406,-0.1169,-0.0468,0.0234,0.0779,0.0935,0.0859,0.0466,0.0467,0.0783,0.1091,0.1478,0.1704,0.213,0.2348,0.2326,0.2438,0.272,0.2868,0.2943,0.3738,0.4307,0.4686,0.531,0.5832,0.6056,0.6287,0.6242,0.6757,1.0594,1.192,1.0629,1.3338,1.6049,1.7157,1.744,1.9697,2.2442,2.3587,2.3098,2.1465,2.4374,2.7271,2.7244,3.1029,3.4499,3.5459,3.6895,3.7881,3.8004,3.8401,3.8681,3.9072,3.9556,3.9804,3.9889,3.9911,3.9933,3.9994,4.0015,4.0036,4.0077,4.0036,4.0036,4.0057,4.0036,4.0057,4.0057,4.0036,4.0015,3.9975,3.9933,3.9956,4.002,4.0081,4.0212,4.0317,4.0399,4.0579,4.0733,4.0746,4.0746,4.079,4.079,4.079,4.079,4.0765,4.072,4.0654,4.0612,4.0588,4.0473,4.0302,4.023,-1.3509,-1.3276,-1.333,-1.3244,-1.3046,-1.3855,-1.3783,-1.2966,-1.2746,-1.2372,-1.1552,-1.0438,-0.9841,-0.9463,-0.8775,-0.8093,-0.7399,-0.6391,-0.5538,-0.4846,-0.3754,-0.2743,-0.2118,-0.1335,-0.0785,-0.0549,-0.0471,-0.0549,-0.0314,-0.0235,-0.0078,0.0392,0.2042,0.2429,0.1788,0.1705,0.1936,0.2388,0.2539,0.2613,0.2766,0.3473,0.3958,0.4115,0.5223,0.5864,0.6096,0.6641,0.6784,0.6576,0.791,0.8965,0.8665,0.9982,1.1472,1.2689,1.5195,1.6143,1.6259,1.8969,1.9497,1.7304,2.0906,2.3378,2.4523,2.8753,3.1774,3.3323,3.507,3.6352,3.6567,3.7533,3.8449,3.9268,3.9483,3.967,3.9848,3.9889,3.9933,3.9975,3.9954,3.9973,3.9994,3.9994,3.9933,3.9954,3.9975,4.0015,3.9996,4.0015,3.9994,3.9933,3.9914,3.9977,4.004,4.0081,4.0176,4.03,4.0434,4.0559,4.07,4.079,4.079,4.079,4.079,4.079,4.079,4.0778,4.0746,4.0733,4.0687,4.0646,4.0626,4.053,4.05,-1.4706,-1.4224,-1.4824,-1.4752,-1.4258,-1.5188,-1.518,-1.453,-1.3954,-1.3593,-1.2931,-1.1471,-1.0818,-1.0657,-0.9528,-0.8699,-0.8161,-0.7238,-0.6391,-0.5696,-0.4688,-0.3522,-0.2586,-0.1962,-0.1649,-0.1336,-0.1336,-0.11,-0.0943,-0.0864,-0.055,0.0078,0.1492,0.1805,0.1488,0.1724,0.2037,0.2429,0.2668,0.2746,0.2824,0.3217,0.3606,0.3919,0.501,0.586,0.6479,0.7173,0.7253,0.7022,0.7326,0.7863,0.8537,0.878,0.9382,1.0536,1.3068,1.368,1.35,1.5632,1.6374,1.5817,1.8341,2.0599,2.2793,2.6396,2.9492,3.1222,3.3028,3.4276,3.5335,3.6629,3.7914,3.8707,3.8998,3.9282,3.9807,3.9889,3.9911,3.9933,3.9933,3.9911,3.9973,3.9911,3.9911,3.9911,3.9933,3.9954,3.9954,3.9954,3.9973,3.9933,3.9892,3.9935,3.9979,4.006,4.0101,4.0212,4.0351,4.0496,4.0668,4.0778,4.079,4.0778,4.079,4.079,4.079,4.079,4.0778,4.0746,4.0733,4.07,4.0668,4.0654,4.0621,-1.6338,-1.5486,-1.6431,-1.6446,-1.5903,-1.6515,-1.6585,-1.6507,-1.5367,-1.4871,-1.4434,-1.2938,-1.2144,-1.2003,-1.0346,-0.9448,-0.9221,-0.8084,-0.7403,-0.663,-0.5541,-0.43,-0.321,-0.2666,-0.2196,-0.1727,-0.1492,-0.157,-0.1727,-0.1649,-0.1255,-0.0784,-0.0392,0.0235,0.0704,0.1567,0.2273,0.251,0.2746,0.2981,0.3139,0.3295,0.3528,0.3921,0.4774,0.5857,0.6861,0.748,0.7557,0.7257,0.7795,0.8399,0.915,0.9387,0.9916,1.0738,1.1321,1.1959,1.2931,1.3596,1.4364,1.5369,1.7479,1.9416,2.1424,2.4651,2.7322,2.872,3.0641,3.2489,3.4421,3.5805,3.7011,3.7935,3.8227,3.8738,3.95,3.9826,3.9889,3.987,3.9848,3.987,3.9889,3.9889,3.9889,3.9889,3.9911,3.9911,3.9933,3.9933,3.9954,3.9954,3.9933,3.9889,3.9935,3.9979,4.0041,4.012,4.0247,4.0399,4.0607,4.07,4.0746,4.0746,4.0746,4.0778,4.079,4.079,4.0778,4.0778,4.0746,4.07,4.0654,4.064,4.0607,-1.7349,-1.7011,-1.6599,-1.6306,-1.6237,-1.6376,-1.6507,-1.6515,-1.572,-1.5438,-1.5013,-1.3723,-1.3157,-1.3011,-1.1465,-1.0351,-0.9674,-0.877,-0.8093,-0.7326,-0.6637,-0.5699,-0.4608,-0.3677,-0.2899,-0.2665,-0.2899,-0.2899,-0.2899,-0.2976,-0.3129,-0.2815,-0.2036,-0.1567,-0.0704,0.0235,0.1254,0.2195,0.2588,0.2901,0.345,0.3528,0.3606,0.3919,0.4618,0.5547,0.6395,0.7169,0.7484,0.7638,0.8174,0.8699,0.8851,0.9008,0.9387,0.9992,1.0519,1.1037,1.1922,1.3032,1.4149,1.5438,1.7269,1.9273,2.0614,2.318,2.5057,2.6201,2.832,3.1001,3.3662,3.5341,3.6342,3.7071,3.7452,3.7863,3.8672,3.9339,3.9632,3.9717,3.9739,3.9739,3.9758,3.9826,3.9848,3.987,3.9889,3.993,3.993,3.9911,3.9911,3.9933,3.9933,3.9889,3.9892,3.9956,3.9979,4.0041,4.0176,4.0264,4.045,4.0621,4.0635,4.0668,4.0713,4.0746,4.079,4.079,4.079,4.0778,4.0778,4.0746,4.0713,4.0673,4.0607,-1.8054,-1.7954,-1.7884,-1.7794,-1.7833,-1.819,-1.8335,-1.8123,-1.7229,-1.6886,-1.6471,-1.5138,-1.4163,-1.3723,-1.2485,-1.1304,-1.0051,-0.8927,-0.8169,-0.7633,-0.7099,-0.6556,-0.6009,-0.4921,-0.4066,-0.3366,-0.329,-0.3368,-0.3444,-0.3677,-0.3754,-0.3832,-0.3288,-0.2584,-0.1878,-0.1017,0.0,0.1096,0.1803,0.2273,0.2899,0.2978,0.3446,0.3995,0.4774,0.5547,0.6549,0.7015,0.7403,0.7783,0.8466,0.9003,0.9084,0.9236,0.9533,0.9922,1.0218,1.0956,1.1842,1.2592,1.3645,1.5102,1.6553,1.8052,1.9514,2.1478,2.311,2.4518,2.6447,2.872,3.1951,3.4088,3.5155,3.5949,3.658,3.7165,3.7878,3.8644,3.9264,3.9464,3.9551,3.9575,3.9623,3.9717,3.9762,3.9762,3.9889,3.9889,3.9889,3.9911,3.9911,3.9911,3.9911,3.9889,3.9889,3.9892,3.9935,4.0,4.0062,4.0157,4.0267,4.0419,4.054,4.0621,4.0713,4.0759,4.079,4.079,4.079,4.079,4.079,4.079,4.0759,4.0654,4.0607,-1.9064,-1.8967,-1.9484,-1.9628,-1.9716,-2.0139,-2.0302,-2.0226,-1.9145,-1.8392,-1.82,-1.648,-1.5305,-1.4585,-1.3339,-1.2031,-1.0576,-0.9236,-0.8475,-0.8318,-0.7561,-0.7249,-0.6784,-0.6163,-0.5312,-0.3754,-0.3834,-0.3915,-0.399,-0.4066,-0.4457,-0.4222,-0.3986,-0.3521,-0.2818,-0.1879,-0.0939,0.0,0.0549,0.1254,0.2117,0.2353,0.3215,0.4231,0.4854,0.555,0.6321,0.6857,0.7318,0.7706,0.8613,0.8998,0.9311,0.9846,1.0293,1.0299,1.0519,1.0956,1.1687,1.2224,1.3005,1.4538,1.5383,1.6681,1.8389,1.9947,2.1611,2.3341,2.5223,2.709,2.974,3.2035,3.3625,3.4568,3.5547,3.6319,3.709,3.7796,3.8395,3.9072,3.9189,3.9216,3.9414,3.9575,3.9623,3.9693,3.9804,3.9867,3.9848,3.9889,3.9848,3.9826,3.9826,3.9826,3.9826,3.9889,3.9892,3.9977,4.0021,4.012,4.0213,4.0454,4.0621,4.0654,4.0713,4.0778,4.079,4.079,4.079,4.079,4.079,4.079,4.0746,4.0635,4.0621,-2.1145,-2.093,-2.029,-2.0042,-2.002,-2.0161,-2.0291,-2.0042,-1.9365,-1.89,-1.8757,-1.7335,-1.6576,-1.593,-1.4204,-1.2551,-1.1242,-1.0062,-0.9539,-0.9231,-0.847,-0.7783,-0.7706,-0.7015,-0.6475,-0.6167,-0.5547,-0.524,-0.5395,-0.5712,-0.5395,-0.5315,-0.4844,-0.43,-0.3756,-0.2898,-0.1802,-0.094,-0.0706,-0.0078,0.1333,0.2589,0.3534,0.4474,0.4704,0.5165,0.5705,0.6475,0.6942,0.7092,0.7851,0.8232,0.8618,0.9679,1.0363,1.0594,1.0743,1.1031,1.1477,1.1874,1.2798,1.4004,1.4957,1.6164,1.7847,1.9496,2.0681,2.2222,2.4825,2.7551,2.961,3.0865,3.2261,3.3387,3.4121,3.4822,3.595,3.6724,3.7399,3.8159,3.8511,3.8896,3.9181,3.9401,3.9502,3.9575,3.9647,3.9717,3.9717,3.9781,3.9804,3.9781,3.9717,3.9717,3.9717,3.9826,3.9892,3.9956,4.006,4.0176,4.0319,4.0564,4.0713,4.0668,4.0713,4.079,4.079,4.079,4.079,4.079,4.079,4.079,4.0759,4.0713,4.0746,-2.2479,-2.2389,-2.1962,-2.1713,-2.1588,-2.1565,-2.1388,-2.1071,-2.042,-2.0085,-1.9683,-1.8623,-1.7736,-1.7101,-1.5983,-1.4196,-1.2398,-1.1031,-1.0588,-1.0288,-0.9453,-0.8846,-0.8699,-0.7855,-0.7557,-0.7249,-0.6633,-0.6093,-0.6015,-0.587,-0.5867,-0.5712,-0.5318,-0.4929,-0.446,-0.3759,-0.2821,-0.1959,-0.1725,-0.102,0.0628,0.2277,0.3297,0.3608,0.3997,0.4307,0.4851,0.5312,0.6012,0.6633,0.7476,0.7931,0.8385,0.9069,0.9976,1.0357,1.0812,1.1186,1.1378,1.1909,1.2593,1.3491,1.4324,1.537,1.6693,1.7963,1.9376,2.111,2.3537,2.6257,2.7116,2.8879,3.044,3.1539,3.2222,3.3216,3.43,3.5052,3.6056,3.7147,3.8038,3.8573,3.9045,3.9237,3.9324,3.9427,3.9526,3.9575,3.958,3.9647,3.9735,3.967,3.9623,3.967,3.9693,3.9804,3.9889,3.9956,4.004,4.0177,4.0285,4.0469,4.0545,4.0559,4.064,4.0733,4.079,4.079,4.079,4.079,4.079,4.079,4.079,4.079,4.079,-2.3647,-2.3706,-2.3663,-2.3405,-2.3055,-2.2921,-2.2678,-2.2247,-2.1388,-2.0996,-2.0869,-1.9628,-1.8623,-1.7988,-1.7111,-1.5711,-1.3772,-1.2265,-1.1681,-1.1391,-1.0582,-1.0067,-0.9539,-0.8932,-0.8246,-0.8016,-0.7249,-0.6703,-0.6475,-0.5938,-0.5631,-0.5631,-0.5637,-0.509,-0.446,-0.4231,-0.3606,-0.3059,-0.196,-0.1099,0.0235,0.1491,0.2353,0.251,0.2821,0.3446,0.4148,0.4768,0.5312,0.6015,0.6865,0.7553,0.7855,0.8537,0.9145,0.9664,1.0576,1.118,1.1471,1.2125,1.2614,1.3304,1.3688,1.4724,1.5778,1.6935,1.7963,2.0217,2.2243,2.4364,2.5387,2.6837,2.8416,2.9765,3.0705,3.1535,3.2729,3.3709,3.4818,3.6039,3.7345,3.8194,3.864,3.9064,3.9183,3.9245,3.935,3.9452,3.9458,3.9508,3.9575,3.9551,3.9551,3.9604,3.9693,3.9804,3.9848,3.9892,4.0,4.0139,4.0195,4.0267,4.0334,4.0434,4.0496,4.0593,4.0687,4.079,4.079,4.079,4.079,4.079,4.079,4.079,4.079,-2.514,-2.5052,-2.4555,-2.4055,-2.3522,-2.3138,-2.2909,-2.2653,-2.1639,-2.1071,-2.1123,-1.9759,-1.9023,-1.8479,-1.7404,-1.6358,-1.5155,-1.3932,-1.3128,-1.291,-1.1755,-1.0807,-1.0143,-0.9846,-0.9236,-0.8775,-0.7855,-0.7484,-0.7169,-0.623,-0.5693,-0.5857,-0.5321,-0.4623,-0.4387,-0.4389,-0.4166,-0.3458,-0.1256,0.0393,0.0943,0.1257,0.1805,0.2354,0.2668,0.3057,0.3524,0.4224,0.4924,0.5237,0.6096,0.6563,0.6865,0.7557,0.8084,0.8836,0.975,1.0594,1.0877,1.1872,1.27,1.322,1.3897,1.4664,1.5546,1.6764,1.8266,2.071,2.1542,2.2637,2.416,2.5131,2.6649,2.8109,2.9473,3.0396,3.1438,3.2493,3.3611,3.4692,3.5921,3.7309,3.8227,3.864,3.9017,3.9101,3.9165,3.9272,3.9324,3.9357,3.9383,3.9376,3.9427,3.9483,3.958,3.9735,3.9804,3.9848,3.9977,4.0061,4.0081,4.0139,4.025,4.0317,4.0386,4.0481,4.0654,4.0746,4.0778,4.0778,4.0713,4.0746,4.079,4.079,4.079,-2.6,-2.5722,-2.5796,-2.5077,-2.4041,-2.3767,-2.3378,-2.2836,-2.2334,-2.1963,-2.1577,-2.0568,-1.9467,-1.8445,-1.7288,-1.6724,-1.6149,-1.5217,-1.472,-1.4355,-1.3201,-1.2184,-1.1749,-1.1025,-1.0288,-0.982,-0.8817,-0.8362,-0.799,-0.7165,-0.6247,-0.5544,-0.547,-0.5007,-0.4307,-0.4467,-0.416,-0.3297,-0.1649,-0.0236,0.0393,0.0707,0.1099,0.1805,0.1963,0.2354,0.2979,0.3522,0.4377,0.4999,0.5857,0.6479,0.6868,0.7407,0.7783,0.7931,0.9069,0.997,1.05,1.1815,1.2542,1.3146,1.3913,1.4939,1.5711,1.669,1.7811,1.9177,2.0498,2.1845,2.3165,2.4062,2.546,2.694,2.8126,2.9066,3.0067,3.1327,3.2408,3.3444,3.4502,3.5821,3.7145,3.7837,3.84,3.8921,3.8989,3.9101,3.9156,3.9183,3.921,3.921,3.9272,3.9357,3.9477,3.9599,3.9717,3.9804,3.987,3.9937,3.9958,4.004,4.012,4.0177,4.0213,4.0353,4.0564,4.0607,4.0579,4.0607,4.0621,4.07,4.0778,4.079,4.0803,-2.7093,-2.6445,-2.6519,-2.5719,-2.4505,-2.4337,-2.3897,-2.3318,-2.2969,-2.2665,-2.2223,-2.1267,-1.9803,-1.8298,-1.7668,-1.7413,-1.7157,-1.6376,-1.6097,-1.5517,-1.472,-1.3924,-1.3266,-1.2331,-1.1613,-1.1391,-1.0029,-0.9346,-0.8912,-0.8169,-0.6868,-0.5312,-0.5389,-0.5004,-0.4382,-0.3995,-0.3682,-0.2746,-0.1804,-0.0785,-0.0079,0.0236,0.0707,0.1178,0.1413,0.1727,0.2353,0.3056,0.4068,0.4688,0.5464,0.6089,0.671,0.6942,0.7322,0.7629,0.8546,0.9096,0.9912,1.1084,1.2234,1.3046,1.3924,1.513,1.5906,1.6804,1.7448,1.8184,1.9195,2.0575,2.1876,2.285,2.399,2.5274,2.6531,2.7459,2.8566,2.9943,3.0997,3.187,3.2986,3.4233,3.5522,3.6675,3.7594,3.8473,3.8803,3.895,3.9036,3.9092,3.9101,3.9129,3.9219,3.9331,3.9433,3.9551,3.9647,3.9717,3.9804,3.987,3.9914,3.9935,3.9979,4.002,4.006,4.0139,4.0269,4.0336,4.0399,4.0579,4.07,4.0713,4.0746,4.079,4.0815,-2.8613,-2.7408,-2.6406,-2.5646,-2.4948,-2.4465,-2.4292,-2.406,-2.3305,-2.2909,-2.2567,-2.1553,-1.9965,-1.8726,-1.8619,-1.8442,-1.793,-1.7148,-1.6932,-1.6585,-1.5939,-1.5155,-1.4498,-1.37,-1.2903,-1.2258,-1.1298,-1.0351,-0.9533,-0.9013,-0.7548,-0.6076,-0.5619,-0.4849,-0.4148,-0.368,-0.3054,-0.235,-0.1803,-0.1177,-0.0393,0.0079,0.055,0.1178,0.1648,0.1881,0.2037,0.2978,0.3761,0.4073,0.4846,0.5467,0.6167,0.6321,0.6707,0.7326,0.794,0.8335,0.8963,1.0529,1.2068,1.3059,1.4104,1.5242,1.5997,1.617,1.682,1.7951,1.8816,1.959,2.0672,2.1507,2.2765,2.4002,2.5356,2.6327,2.7459,2.8734,2.9789,3.0409,3.1479,3.2741,3.4007,3.5172,3.6732,3.7682,3.8664,3.8815,3.9007,3.9092,3.9101,3.911,3.9219,3.9305,3.9433,3.9508,3.9599,3.9693,3.9781,3.9826,3.9889,3.9911,3.9914,3.9914,3.9977,3.9956,3.9998,4.0177,4.0386,4.066,4.0778,4.0687,4.0726,4.0784,4.08,-2.8074,-2.7541,-2.6688,-2.6281,-2.6,-2.5536,-2.5077,-2.4711,-2.4047,-2.3242,-2.2445,-2.1518,-2.0903,-2.0475,-1.9683,-1.9309,-1.8654,-1.8365,-1.7969,-1.7423,-1.6793,-1.6228,-1.5649,-1.5084,-1.4442,-1.3787,-1.2799,-1.162,-1.0616,-0.9599,-0.8237,-0.7003,-0.6314,-0.5622,-0.4846,-0.391,-0.3207,-0.2818,-0.235,-0.1648,-0.1021,-0.0628,-0.0078,0.1255,0.1411,0.1803,0.2273,0.2979,0.345,0.3921,0.4462,0.5082,0.5547,0.578,0.6244,0.6868,0.748,0.791,0.8489,1.0094,1.1618,1.2883,1.3941,1.4901,1.5891,1.6394,1.7294,1.8193,1.8683,1.945,2.0527,2.1221,2.2038,2.3125,2.4207,2.5133,2.6314,2.7604,2.8671,2.9406,3.0185,3.1198,3.2485,3.3743,3.5348,3.6902,3.7905,3.8725,3.8873,3.9045,3.9045,3.9073,3.9137,3.9219,3.9305,3.9427,3.9526,3.9647,3.9758,3.9804,3.9867,3.9889,3.9892,3.9889,3.9911,3.9954,4.0039,4.0139,4.0283,4.0454,4.0549,4.0545,4.0635,4.0776,4.0804,-2.8045,-2.7771,-2.738,-2.7004,-2.6678,-2.6283,-2.596,-2.5522,-2.4824,-2.3638,-2.2213,-2.1756,-2.178,-2.1771,-2.0854,-1.9835,-1.9187,-1.8787,-1.8462,-1.792,-1.7373,-1.7019,-1.6673,-1.6175,-1.5525,-1.5171,-1.4083,-1.2757,-1.1582,-1.0029,-0.8827,-0.7999,-0.7395,-0.6472,-0.5848,-0.4763,-0.4142,-0.3521,-0.3054,-0.2276,-0.1649,-0.1178,-0.0314,0.1097,0.1488,0.1959,0.2588,0.3137,0.3528,0.3841,0.4231,0.4623,0.501,0.5395,0.5783,0.6398,0.6938,0.7629,0.8494,1.0032,1.1478,1.2632,1.351,1.4636,1.5628,1.6453,1.7204,1.8603,1.8993,1.946,2.0391,2.0624,2.1231,2.2242,2.2903,2.3834,2.5133,2.6451,2.7485,2.84,2.931,3.0288,3.1213,3.2629,3.4735,3.6382,3.7736,3.846,3.8725,3.8873,3.8989,3.9017,3.9073,3.9129,3.9165,3.9272,3.9401,3.9623,3.9717,3.9781,3.9826,3.9848,3.9889,3.9889,3.9933,3.9975,4.0019,4.0041,4.012,4.0176,4.03,4.0466,4.0602,4.0745,4.0815,-2.8912,-2.8394,-2.8314,-2.7695,-2.6886,-2.6692,-2.6678,-2.64,-2.5412,-2.4019,-2.26,-2.264,-2.237,-2.1938,-2.0978,-2.0226,-1.9528,-1.8865,-1.8472,-1.8269,-1.793,-1.7588,-1.7245,-1.6811,-1.6376,-1.6097,-1.5092,-1.3867,-1.2485,-1.1211,-0.9868,-0.868,-0.7851,-0.7084,-0.6915,-0.6002,-0.4766,-0.3444,-0.3209,-0.2666,-0.212,-0.1414,-0.0314,0.0784,0.1332,0.1803,0.2744,0.3137,0.345,0.3763,0.3919,0.4231,0.4621,0.4851,0.524,0.586,0.6163,0.671,0.7598,1.0142,1.1501,1.2275,1.3045,1.4055,1.5289,1.6041,1.6624,1.7853,1.8514,1.8913,1.932,1.9794,2.0547,2.1221,2.1876,2.2903,2.4207,2.5521,2.6625,2.7591,2.8607,2.96,3.0379,3.1647,3.3974,3.5813,3.7434,3.8201,3.846,3.8755,3.8921,3.8989,3.9045,3.9101,3.9137,3.9137,3.9245,3.9502,3.967,3.9739,3.9826,3.987,3.9889,3.9889,3.9911,3.9954,3.9933,3.9933,4.006,4.0213,4.0319,4.045,4.0602,4.0725,4.0807,-2.8774,-2.8826,-2.8525,-2.8317,-2.8046,-2.75,-2.7261,-2.6975,-2.5658,-2.4587,-2.3884,-2.3015,-2.2053,-2.1483,-2.1198,-2.0624,-1.9911,-1.9781,-1.9386,-1.8808,-1.8529,-1.8202,-1.7862,-1.7451,-1.7088,-1.6603,-1.5824,-1.4673,-1.3055,-1.2018,-1.1075,-0.9965,-0.8537,-0.7851,-0.7007,-0.6086,-0.5154,-0.4608,-0.383,-0.2898,-0.251,-0.1726,-0.0784,0.0,0.0,0.1332,0.2588,0.2902,0.3215,0.3606,0.3763,0.3919,0.4155,0.4387,0.4698,0.5315,0.5702,0.6574,0.7772,0.9543,1.081,1.1651,1.2454,1.3288,1.4021,1.4629,1.5621,1.669,1.7602,1.8006,1.8238,1.9231,2.001,2.0391,2.1135,2.2328,2.3576,2.4838,2.5975,2.6867,2.7855,2.8812,2.9695,3.0954,3.3121,3.4625,3.6121,3.7578,3.8117,3.8585,3.8921,3.895,3.8989,3.9101,3.911,3.9129,3.9219,3.9452,3.9623,3.9739,3.9826,3.9848,3.9889,3.9889,3.9911,3.9933,3.9956,4.0,4.0158,4.0304,4.0403,4.0521,4.0706,4.0796,4.0828,-2.8732,-2.9074,-2.8889,-2.8795,-2.8764,-2.8076,-2.763,-2.7195,-2.6119,-2.5425,-2.4684,-2.3441,-2.2128,-2.131,-2.11,-2.0955,-2.0302,-1.9901,-1.9704,-1.9121,-1.8921,-1.8519,-1.8269,-1.7998,-1.7579,-1.7028,-1.6324,-1.5251,-1.4011,-1.2691,-1.1224,-0.9976,-0.9301,-0.8237,-0.7169,-0.6398,-0.5625,-0.5079,-0.4224,-0.3443,-0.2821,-0.204,-0.1256,0.0,0.0,0.0705,0.1724,0.2353,0.2746,0.3294,0.3608,0.3763,0.3843,0.4075,0.4387,0.4849,0.5637,0.6548,0.7675,0.863,0.9863,1.1031,1.1752,1.2613,1.3275,1.4041,1.4873,1.5861,1.6772,1.7342,1.7836,1.8904,1.9548,1.9923,2.0469,2.1659,2.2936,2.4192,2.5063,2.6032,2.7217,2.8117,2.9205,3.0646,3.2276,3.3544,3.4781,3.6238,3.7649,3.8281,3.8725,3.8815,3.8921,3.9007,3.9073,3.9129,3.9219,3.9401,3.9551,3.9693,3.9804,3.9826,3.9848,3.9889,3.9911,3.9935,4.002,4.012,4.025,4.0386,4.0492,4.0649,4.0798,4.0849,4.0859,-2.8873,-2.912,-2.9409,-2.9273,-2.8904,-2.8398,-2.7795,-2.7174,-2.7071,-2.6172,-2.4784,-2.4754,-2.3165,-2.1038,-2.1304,-2.125,-2.0635,-1.9901,-1.9573,-1.9309,-1.9121,-1.8787,-1.8442,-1.8182,-1.7833,-1.7432,-1.6742,-1.5824,-1.4974,-1.3135,-1.1075,-0.9674,-0.9231,-0.8546,-0.7783,-0.7096,-0.6244,-0.5547,-0.4846,-0.4068,-0.329,-0.2588,-0.1725,0.0,0.0,0.0157,0.094,0.1489,0.2196,0.2824,0.3374,0.3684,0.3919,0.4229,0.4307,0.4774,0.5625,0.6275,0.6923,0.7827,0.8857,0.9981,1.1101,1.2328,1.3124,1.3542,1.4119,1.5115,1.6116,1.6935,1.7755,1.8487,1.9213,1.9539,1.9784,2.0991,2.2339,2.3379,2.412,2.5252,2.6595,2.7802,2.898,3.0332,3.1459,3.2547,3.381,3.5166,3.6566,3.7826,3.8249,3.8572,3.8695,3.891,3.8979,3.9073,3.9192,3.9331,3.9477,3.9599,3.9693,3.9804,3.9848,3.9911,3.9911,3.9956,4.004,4.0157,4.0334,4.0446,4.0526,4.0711,4.0859,4.0849,4.0869,-2.9515,-2.9842,-2.9605,-2.9589,-2.9528,-2.8685,-2.8042,-2.7725,-2.724,-2.6846,-2.6949,-2.4991,-2.3735,-2.2968,-2.2274,-2.1667,-2.1123,-2.0688,-2.0302,-1.9911,-1.9594,-1.9375,-1.91,-1.8767,-1.822,-1.7482,-1.6872,-1.6105,-1.4697,-1.3084,-1.2131,-1.118,-0.9911,-0.9382,-0.8851,-0.8394,-0.7169,-0.617,-0.547,-0.4768,-0.3912,-0.3212,-0.2429,-0.1803,-0.1176,-0.0706,-0.0235,-0.0078,0.0863,0.2984,0.3456,0.3847,0.4079,0.4235,0.4314,0.4789,0.5314,0.5577,0.5966,0.6955,0.8018,0.8789,0.963,1.0942,1.1946,1.2747,1.3165,1.4105,1.5238,1.6032,1.6903,1.7666,1.8399,1.8886,1.945,2.0615,2.1821,2.2574,2.3379,2.4743,2.6158,2.7404,2.8661,2.9732,3.0808,3.1743,3.2829,3.4153,3.5572,3.6858,3.7861,3.8183,3.8541,3.8773,3.8921,3.9017,3.9137,3.9279,3.9401,3.9526,3.9647,3.9758,3.9848,3.9892,3.9914,3.9979,4.0041,4.0176,4.0317,4.0406,4.0485,4.0718,4.0898,4.0859,4.0888,-2.9957,-3.0189,-3.013,-3.0027,-2.981,-2.9153,-2.8604,-2.8073,-2.7429,-2.7447,-2.7571,-2.595,-2.4741,-2.3923,-2.3157,-2.2445,-2.1553,-2.1123,-2.0816,-2.0571,-2.0194,-1.9791,-1.9584,-1.9177,-1.8576,-1.7833,-1.7001,-1.6237,-1.4974,-1.3688,-1.2666,-1.1781,-1.0738,-1.0062,-0.9306,-0.8703,-0.794,-0.7019,-0.6244,-0.5622,-0.4766,-0.3912,-0.3446,-0.2746,-0.2041,-0.157,-0.11,-0.1021,0.0235,0.2041,0.2354,0.3061,0.3528,0.3843,0.4472,0.4948,0.5216,0.5448,0.5758,0.6384,0.717,0.778,0.8505,0.9475,1.0674,1.1573,1.2041,1.2814,1.4005,1.5054,1.5875,1.669,1.7415,1.8149,1.9265,2.0391,2.1155,2.1766,2.2999,2.4446,2.5718,2.6976,2.8117,2.9129,3.004,3.0763,3.1784,3.3165,3.4645,3.6149,3.7159,3.7808,3.8281,3.8683,3.8785,3.8931,3.9073,3.9192,3.9298,3.9427,3.9575,3.9693,3.9804,3.9892,3.9956,3.9979,4.0,4.0139,4.025,4.0339,4.0441,4.0615,4.0776,4.0869,4.0926,-3.0284,-3.0274,-3.0773,-3.051,-2.987,-2.9723,-2.9171,-2.8367,-2.7894,-2.7637,-2.7506,-2.6919,-2.5645,-2.4543,-2.3968,-2.3217,-2.2335,-2.1678,-2.125,-2.1071,-2.0377,-1.9998,-1.9605,-1.9208,-1.8787,-1.8172,-1.7345,-1.6298,-1.5675,-1.4394,-1.3025,-1.207,-1.1323,-1.0426,-0.9311,-0.9084,-0.847,-0.771,-0.7169,-0.6626,-0.5461,-0.4686,-0.4146,-0.3057,-0.243,-0.1882,-0.0942,-0.0549,-0.0549,0.0078,0.0706,0.1725,0.2272,0.3292,0.4155,0.4787,0.4956,0.5311,0.5524,0.5965,0.6613,0.7356,0.7996,0.8444,0.9275,1.045,1.1166,1.1758,1.2934,1.3837,1.466,1.5965,1.6935,1.7738,1.8789,1.9756,2.0624,2.1451,2.2776,2.4112,2.5257,2.6422,2.7393,2.8428,2.8816,2.9565,3.0586,3.1959,3.3253,3.4857,3.6301,3.7216,3.7946,3.8396,3.8634,3.8785,3.8931,3.9073,3.9237,3.9324,3.9427,3.9575,3.9758,3.9848,3.9935,3.9914,3.9935,4.006,4.0177,4.0251,4.0356,4.0515,4.0655,4.0754,4.0878,-3.0426,-3.0443,-3.0568,-3.0468,-3.0349,-3.0293,-2.9756,-2.8889,-2.8336,-2.794,-2.7563,-2.6922,-2.6105,-2.5122,-2.4797,-2.4021,-2.2895,-2.2298,-2.1753,-2.1135,-2.0571,-2.0183,-1.9802,-1.9539,-1.9065,-1.823,-1.7326,-1.6219,-1.5321,-1.433,-1.347,-1.2673,-1.1922,-1.0801,-0.9614,-0.9458,-0.8851,-0.8169,-0.7633,-0.7326,-0.6549,-0.5386,-0.4457,-0.3912,-0.3443,-0.1957,-0.094,-0.0313,-0.0235,0.0078,0.0157,0.0471,0.0549,0.2113,0.3602,0.455,0.4389,0.4726,0.5216,0.5396,0.5683,0.6318,0.6866,0.7256,0.7971,0.9341,1.0315,1.0958,1.1688,1.2517,1.3569,1.5129,1.6519,1.7326,1.8186,1.9079,2.0041,2.1217,2.2477,2.358,2.4704,2.569,2.6635,2.7283,2.7713,2.8363,2.9285,3.0334,3.1389,3.2853,3.5137,3.63,3.7488,3.8013,3.8314,3.8683,3.8862,3.8989,3.9156,3.9219,3.9298,3.9477,3.9647,3.9804,3.9911,3.9889,3.9889,3.9975,4.0059,4.0158,4.0252,4.0356,4.0454,4.0574,4.073,-3.0838,-3.0733,-3.0551,-3.0468,-3.0501,-3.0481,-2.9927,-2.909,-2.8732,-2.8174,-2.7473,-2.7137,-2.6567,-2.5694,-2.5412,-2.4738,-2.3623,-2.298,-2.2359,-2.1678,-2.1008,-2.056,-2.0183,-1.9791,-1.933,-1.8576,-1.7463,-1.6289,-1.5117,-1.4489,-1.3912,-1.3185,-1.2291,-1.1174,-1.0062,-0.9458,-0.8851,-0.8246,-0.7787,-0.748,-0.7173,-0.6012,-0.5085,-0.4693,-0.399,-0.2738,-0.2348,-0.1566,-0.0627,0.0,0.0,0.0,0.0,0.0939,0.1879,0.2662,0.3054,0.3526,0.4309,0.4631,0.4562,0.517,0.5823,0.6109,0.6424,0.7744,0.894,0.9646,1.0605,1.1552,1.2719,1.4159,1.5643,1.67,1.7493,1.8335,1.9202,2.0113,2.1126,2.2012,2.3087,2.4169,2.5199,2.6317,2.6735,2.7414,2.8269,2.9326,3.0205,3.1,3.3283,3.5121,3.6182,3.7399,3.8032,3.8428,3.8792,3.895,3.9036,3.9127,3.9197,3.9364,3.9551,3.9717,3.9826,3.9848,3.9889,3.9933,4.0015,4.0099,4.0158,4.0215,4.0307,4.0444,4.0574,-3.1157,-3.0895,-3.0609,-3.0468,-3.0468,-3.0468,-2.9941,-2.9136,-2.9044,-2.8415,-2.7458,-2.7473,-2.6946,-2.6275,-2.5821,-2.5204,-2.4496,-2.3623,-2.2955,-2.2347,-2.1753,-2.0996,-2.0431,-2.0118,-1.9452,-1.8576,-1.7404,-1.6515,-1.5551,-1.4768,-1.4057,-1.3462,-1.2278,-1.0864,-0.9965,-0.8917,-0.8016,-0.7859,-0.7553,-0.7322,-0.6784,-0.6096,-0.5553,-0.5249,-0.5018,-0.5021,-0.4472,-0.3604,-0.1956,0.0,0.0,0.0,0.0,0.047,0.0706,0.1411,0.1959,0.2586,0.329,0.3604,0.3759,0.4073,0.4611,0.516,0.5556,0.6468,0.7699,0.8611,0.962,1.0543,1.1751,1.3059,1.4519,1.5986,1.6814,1.7826,1.8602,1.938,2.0083,2.0846,2.1818,2.2951,2.3896,2.5064,2.581,2.6445,2.7388,2.8512,2.947,3.016,3.1552,3.3184,3.4455,3.5722,3.7273,3.7923,3.8295,3.8656,3.8746,3.8943,3.9066,3.9002,3.9164,3.967,3.9739,3.9743,3.9826,3.9911,3.9975,4.0057,4.0098,4.0176,4.0291,4.0396,4.0457,-3.0651,-3.0593,-3.051,-3.0468,-3.0468,-3.0468,-3.0156,-2.9572,-2.909,-2.8511,-2.7879,-2.7357,-2.6864,-2.624,-2.6215,-2.5742,-2.5021,-2.415,-2.342,-2.287,-2.2286,-2.1302,-2.0549,-2.0237,-1.9309,-1.8365,-1.7335,-1.6367,-1.5824,-1.484,-1.392,-1.3331,-1.2519,-1.1248,-0.9965,-0.8988,-0.8237,-0.7855,-0.7249,-0.6865,-0.6784,-0.6244,-0.5783,-0.5398,-0.5093,-0.5018,-0.4859,-0.4701,-0.4389,-0.3448,0.0,0.0,0.0,0.0549,0.0942,0.1021,0.1491,0.1961,0.2588,0.2743,0.2898,0.3597,0.43,0.5157,0.5705,0.656,0.7422,0.7827,0.8709,0.9291,1.0391,1.1668,1.308,1.481,1.5936,1.7437,1.8616,1.9285,1.9971,2.062,2.1373,2.2154,2.2834,2.3767,2.4356,2.5095,2.5832,2.6932,2.7705,2.8739,2.9887,3.1294,3.2735,3.4677,3.6453,3.7113,3.7564,3.8058,3.8327,3.8229,3.8223,3.8327,3.8584,3.9124,3.95,3.9645,3.9728,3.9867,3.9954,4.0036,4.0077,4.0157,4.0272,4.0381,4.0492]}]]